     2              OBSERVATION DATA    GPS                 RINEX VERSION / TYPE
ASHTORIN USGS 12 - MAY - 93 14:21                           PGM / RUN BY / DATE
                                                            COMMENT
Original Marker Name: pk59 Park_1959_DWR                    COMMENT
Campaign Name: USGS Parkfield                               COMMENT
4-Character Station Name: PARK                              COMMENT
6-Character Antenna Code: ASHL12                            COMMENT
Vertical Measurement Point: BBE                             COMMENT
Vertical Offset to Rinex Ref. Point: 0.0595                 COMMENT
Radial Measurement Point: EGP                               COMMENT
Radial Offset to Rinex Ref. Point: 0.1424                   COMMENT
Antenna Height from Field Measurement: 1.2950 m             COMMENT
Additional Antenna Identification Info.:                    COMMENT
Original Ashtech L1/L2 (700228ABC)                          COMMENT
Original XYZ: -2633208.4300 -4478668.6400 3688054.0000      COMMENT
New XYZ position is based on association with SCEC monument COMMENT
E1F1N3K5+0011. Position of that monument is believed to be  COMMENT
valid to within 1 m horizontally; vertical accuracy         COMMENT
should be no worse than 3-times this value.                 COMMENT
                                                            COMMENT
Revised Rinex header created by UCSD GPS archive for        COMMENT
GSAC on 11-Jul-2000 (2000:193) 00:56:39 GMT                 COMMENT
For assistance contact dagnew@ucsd.edu                      COMMENT
or anderson@python.ucsd.edu                                 COMMENT
                                                            COMMENT
1959 PARK                                                   MARKER NAME
                                                            MARKER NUMBER
WKG US GEOLOGICAL SURVEY                                    OBSERVER / AGENCY
763 ASHTECH L-XII 6M24                                      REC # / TYPE / VERS
718 ASHTECH GEODETIC L                                      ANT # / TYPE
 -2610615.7544 -4466448.1790  3719270.3964                  APPROX POSITION XYZ
        1.2276        0.0000        0.0000                  ANTENNA: DELTA H/E/N
     1     2     0                                          WAVELENGTH FACT L1/2
     4    L1    L2    C1    D1                              # / TYPES OF OBSERV
    30                                                      INTERVAL
  1993     5     8     3     0   30.000000                  TIME OF FIRST OBS
  1993     5     8    13    30    0.000000                  TIME OF LAST OBS
    18                                                      # OF SATELLITES
           1   722   722   722   722                        PRN / # OF OBS
           3   578   578   578   578                        PRN / # OF OBS
          12   196   196   196   196                        PRN / # OF OBS
          14   362   362   362   362                        PRN / # OF OBS
          15   545   545   545   545                        PRN / # OF OBS
          16   244   244   244   244                        PRN / # OF OBS
          17   718   718   718   718                        PRN / # OF OBS
          18    84    84    84    84                        PRN / # OF OBS
          20   251   251   251   251                        PRN / # OF OBS
          21   817   817   817   817                        PRN / # OF OBS
          22   589   589   589   589                        PRN / # OF OBS
          23   786   786   786   786                        PRN / # OF OBS
          24    62    62    62    62                        PRN / # OF OBS
          25   553   553   553   553                        PRN / # OF OBS
          26   424   424   424   424                        PRN / # OF OBS
          28   550   550   550   550                        PRN / # OF OBS
          29   318   318   318   318                        PRN / # OF OBS
                                                            END OF HEADER
 93  5  8  3  0 30.0000000  0  5 20  3 16 24 17                      0.000287310
  -6634502.24718  -5274049.07019  20682046.337        1661.258
 -20348686.66317  -8056417.65116  22556384.992       -1556.669
 -15432605.18418 -12033674.92619  21434719.993         979.244
  18624264.12416  14371630.86315  23835206.617        3131.095
   6390064.30416  -5620058.96316  22655226.294       -2214.568
 93  5  8  3  1  0.0000000  0  5 20  3 16 24 17                      0.000293500
  -6584382.533 8  -5234994.768 9  20691583.694        1679.875
 -20395356.168 7  -8092783.470 6  22547504.070       -1555.007
 -15402942.205 8 -12010560.919 9  21440364.264         998.023
  18718212.619 6  14444837.383 5  23853085.292        3131.794
   6323746.424 6  -5671735.195 6  22642606.378       -2206.869
 93  5  8  3  1 30.0000000  0  5 20  3 16 24 17                      0.000299680
  -6533703.836 8  -5195504.899 9  20701227.468        1698.777
 -20441973.504 7  -8129108.650 6  22538634.127       -1552.941
 -15372715.049 8 -11987007.285 9  21446116.285        1017.319
  18812167.992 6  14518049.313 5  23870964.633        3131.976
   6257658.620 6  -5723232.138 6  22630029.827       -2198.927
 93  5  8  3  2  0.0000000  0  5 20  3 16 24 17                      0.000305820
  -6482464.046 8  -5155577.814 9  20710978.329        1717.384
 -20488534.724 7  -8165390.098 6  22529773.293       -1551.164
 -15341909.674 8 -11963003.101 9  21451978.657        1036.490
  18906114.263 6  14591254.083 5  23888842.779        3131.174
   6191802.134 6  -5774548.826 6  22617498.092       -2191.443
 93  5  8  3  2 30.0000000  0  5 20  3 16 24 17                      0.000311910
  -6430666.446 8  -5115216.071 9  20720835.206        1735.825
 -20535041.258 7  -8201628.934 7  22520923.196       -1549.498
 -15310532.420 8 -11938553.296 9  21457949.830        1055.493
  19000033.187 6  14664437.593 5  23906714.555        3130.097
   6126166.065 6  -5825693.759 6  22605008.159       -2184.081
 93  5  8  3  3  0.0000000  0  5 20  3 16 24 17                      0.000317960
  -6378312.018 8  -5074420.440 9  20730798.089        1754.482
 -20581493.069 7  -8237825.141 7  22512083.957       -1547.529
 -15278575.956 8 -11913652.152 9  21464030.670        1074.874
  19093925.273 6  14737600.163 5  23924582.226        3129.419
   6060770.740 6  -5876651.113 6  22592563.744       -2175.619
 93  5  8  3  3 30.0000000  0  5 20  3 16 24 17                      0.000323990
  -6325397.613 8  -5033188.458 9  20740867.347        1773.003
 -20627885.381 7  -8273974.970 7  22503255.569       -1545.667
 -15246040.508 7 -11888299.861 9  21470222.078        1094.083
  19187805.018 5  14810753.137 5  23942446.931        3129.402
   5995629.694 6  -5927410.315 6  22580167.487       -2167.207
 93  5  8  3  4  0.0000000  0  5 20  3 16 24 17                      0.000330030
  -6271929.162 8  -4991524.743 9  20751041.843        1791.526
 -20674222.369 7  -8310081.692 7  22494438.114       -1543.768
 -15212929.627 8 -11862499.160 8  21476522.372        1113.194
  19281693.684 6  14883913.054 5  23960312.038        3129.864
   5930746.439 6  -5977968.656 6  22567820.862       -2158.342
 93  5  8  3  4 30.0000000  0  5 20  3 16 24 17                      0.000336090
  -6217908.932 8  -4949431.098 9  20761321.547        1809.751
 -20720504.781 7  -8346145.878 7  22485630.992       -1542.076
 -15179250.011 8 -11836255.317 8  21482931.463        1132.030
  19375598.361 6  14957085.383 5  23978181.232        3130.334
   5866135.958 6  -6028314.418 6  22555525.836       -2148.931
 93  5  8  3  5  0.0000000  0  5 20  3 16 24 17                      0.000342180
  -6163337.122 8  -4906907.618 9  20771706.426        1828.235
 -20766730.719 7  -8382166.087 7  22476834.442       -1540.060
 -15144999.521 7 -11809566.621 8  21489449.183        1151.234
  19469521.513 6  15030272.172 5  23996054.238        3131.198
   5801811.859 6  -6078437.054 6  22543284.648       -2139.603
 93  5  8  3  5 30.0000000  0  5 20  3 16 24 17                      0.000348310
  -6108217.882 8  -4863957.599 9  20782195.476        1846.392
 -20812902.786 7  -8418144.323 7  22468048.035       -1538.301
 -15110173.994 7 -11782429.840 8  21496076.137        1170.476
  19563467.296 6  15103476.570 5  24013932.164        3131.835
   5737753.946 6  -6128352.265 6  22531095.027       -2130.901
 93  5  8  3  6  0.0000000  0  5 20  3 16 24 17                      0.000354440
  -6052547.378 8  -4820577.994 9  20792788.891        1865.054
 -20859015.438 7  -8454076.261 7  22459272.809       -1535.997
 -15074764.968 7 -11754838.401 8  21502814.540        1190.217
  19657433.019 6  15176696.542 5  24031812.722        3132.524
   5673964.258 6  -6178058.468 6  22518956.028       -2121.712
 93  5  8  3  6 30.0000000  0  5 20  3 16 24 17                      0.000360580
  -5996324.368 8  -4776767.900 9  20803487.614        1883.286
 -20905065.420 7  -8489959.350 7  22450510.007       -1534.040
 -15038771.417 7 -11726791.481 8  21509663.789        1209.489
  19751409.985 6  15249925.269 5  24049697.032        3132.716
   5610432.196 6  -6227563.933 6  22506865.962       -2113.629
 93  5  8  3  7  0.0000000  0  5 20  3 16 24 17                      0.000366700
  -5939552.393 8  -4732530.015 9  20814291.046        1901.532
 -20951054.299 7  -8525794.838 7  22441758.674       -1532.059
 -15002201.943 8 -11698295.786 8  21516622.792        1228.498
  19845395.378 6  15323160.511 5  24067581.439        3133.099
   5547138.115 6  -6276883.958 6  22494821.794       -2105.872
 93  5  8  3  7 30.0000000  0  5 20  3 16 24 17                      0.000372820
  -5882235.526 8  -4687867.553 9  20825198.096        1919.679
 -20996984.523 7  -8561584.591 7  22433017.495       -1530.115
 -14965065.545 7 -11669358.330 8  21523689.437        1247.234
  19939389.504 6  15396402.610 5  24085467.888        3133.165
   5484085.793 6  -6326015.574 6  22482823.696       -2097.550
 93  5  8  3  8  0.0000000  0  5 20  3 16 24 17                      0.000378940
  -5824372.487 8  -4642779.497 9  20836209.114        1937.646
 -21042852.823 7  -8597326.115 7  22424289.210       -1528.195
 -14927366.480 7 -11639982.440 8  21530863.272        1265.876
  20033383.694 6  15469644.735 5  24103355.226        3132.821
   5421287.260 6  -6374949.445 6  22470873.879       -2089.218
 93  5  8  3  8 30.0000000  0  5 20  3 16 24 17                      0.000385040
  -5765965.021 8  -4597267.219 9  20847323.789        1955.858
 -21088658.646 7  -8633018.940 7  22415572.881       -1526.026
 -14889102.996 7 -11610166.742 8  21538144.281        1284.655
  20127368.453 6  15542879.523 5  24121239.941        3132.494
   5358745.223 6  -6423683.443 6  22458972.754       -2080.534
 93  5  8  3  9  0.0000000  0  5 20  3 16 24 17                      0.000391130
  -5707018.248 8  -4551334.684 9  20858541.132        1973.918
 -21134405.815 7  -8668666.076 7  22406867.456       -1524.019
 -14850280.688 7 -11579915.595 8  21545532.070        1303.553
  20221328.707 6  15616095.243 5  24139119.731        3131.491
   5296462.916 6  -6472215.055 6  22447119.903       -2071.621
 93  5  8  3  9 30.0000000  0  5 20  3 16 24 17                      0.000397190
  -5647531.269 8  -4504981.205 9  20869860.966        1991.869
 -21180090.988 7  -8704264.886 7  22398173.785       -1521.966
 -14810884.234 7 -11549217.042 8  21553029.067        1322.845
  20315252.288 6  15689282.340 5  24156993.513        3129.989
   5234453.039 6  -6520534.398 6  22435320.125       -2062.637
 93  5  8  3 10  0.0000000  0  5 20  3 16 24 17                      0.000403220
  -5587505.241 8  -4458207.715 9  20881283.599        2009.891
 -21225712.846 7  -8739814.386 7  22389492.266       -1519.726
 -14770906.161 7 -11518065.303 8  21560636.212        1342.279
  20409133.225 5  15762436.275 5  24174858.028        3128.703
   5172710.346 6  -6568645.529 6  22423570.307       -2053.582
 93  5  8  3 10 30.0000000  0  5 20  3 16 24 17                      0.000409210
  -5526941.711 8  -4411015.383 9  20892808.591        2027.749
 -21271271.376 7  -8775314.527 7  22380823.088       -1517.661
 -14730360.619 7 -11486471.379 8  21568351.728        1360.751
  20502976.372 5  15835560.723 5  24192715.949        3127.664
   5111233.539 6  -6616549.478 6  22411871.545       -2044.723
 93  5  8  3 11  0.0000000  0  5 20  3 16 24 17                      0.000415200
  -5465841.559 8  -4363404.899 9  20904435.632        2045.553
 -21316765.203 7  -8810764.250 7  22372165.672       -1515.521
 -14689264.076 7 -11454448.112 8  21576172.427        1379.038
  20596795.999 5  15908666.850 5  24210568.083        3127.041
   5050031.858 6  -6664239.047 6  22400225.578       -2035.469
 93  5  8  3 11 30.0000000  0  5 20  3 16 24 17                      0.000421220
  -5404204.917 8  -4315376.368 9  20916164.841        2063.400
 -21362192.082 7  -8846161.819 7  22363521.297       -1513.291
 -14647620.932 7 -11421998.894 8  21584096.092        1397.012
  20690612.328 5  15981770.434 5  24228421.483        3127.333
   4989110.416 6  -6711710.257 6  22388632.233       -2026.188
 93  5  8  3 12  0.0000000  0  5 20  3 16 24 17                      0.000427270
  -5342036.933 8  -4266933.818 9  20927994.651        2081.233
 -21407555.567 7  -8881509.977 7  22354889.183       -1511.056
 -14605450.364 7 -11389138.712 8  21592121.280        1414.499
  20784439.583 6  16054882.471 5  24246276.025        3127.858
   4928457.893 6  -6758971.924 6  22377090.043       -2017.152
 93  5  8  3 12 30.0000000  0  5 20  3 16 24 17                      0.000433360
  -5279336.913 8  -4218076.688 9  20939925.852        2098.895
 -21452852.505 7  -8916806.269 7  22346268.763       -1508.855
 -14562752.240 7 -11355867.446 8  21600246.586        1432.232
  20878279.767 5  16128004.595 5  24264133.507        3128.277
   4868075.246 6  -6806023.280 6  22365600.458       -2008.215
 93  5  8  3 13  0.0000000  0  5 20  3 16 24 17                      0.000439450
  -5216108.128 8  -4168807.529 9  20951958.289        2116.464
 -21498083.849 7  -8952051.454 7  22337662.047       -1506.698
 -14519510.411 7 -11322172.523 8  21608474.868        1450.865
  20972126.207 6  16201131.602 5  24281991.354        3128.157
   4807951.224 6  -6852873.115 6  22354158.907       -1999.961
 93  5  8  3 13 30.0000000  0  5 20  3 16 24 17                      0.000445540
  -5152354.422 8  -4119129.330 9  20964090.282        2134.009
 -21543251.323 7  -8987246.880 7  22329067.127       -1504.493
 -14475705.581 7 -11288038.863 8  21616810.695        1469.710
  21065966.043 6  16274253.459 5  24299849.053        3127.818
   4748071.353 6  -6899532.675 6  22342763.968       -1991.737
 93  5  8  3 14  0.0000000  0  5 20  3 16 24 17                      0.000451590
  -5088072.712 8  -4069039.721 9  20976322.615        2151.508
 -21588349.505 7  -9022388.281 7  22320484.950       -1502.190
 -14431324.541 7 -11253456.238 8  21625256.687        1489.057
  21159787.509 6  16347361.027 5  24317702.957        3127.006
   4688445.692 6  -6945994.169 6  22331417.188       -1983.094
 93  5  8  3 14 30.0000000  0  5 20  3 16 24 17                      0.000457620
  -5023267.752 8  -4018542.368 9  20988654.497        2168.856
 -21633380.670 7  -9057477.491 7  22311916.101       -1500.074
 -14386365.565 7 -11218423.282 8  21633811.784        1508.155
  21253580.872 6  16420446.738 5  24335552.090        3126.066
   4629081.884 6  -6992251.622 6  22320120.444       -1974.552
 93  5  8  3 15  0.0000000  0  5 20  3 16 24 17                      0.000463620
  -4957942.255 8  -3967639.416 9  21001085.411        2186.174
 -21678345.329 7  -9092514.838 7  22303359.485       -1497.791
 -14340840.986 7 -11182949.585 8  21642475.265        1526.762
  21347349.900 6  16493513.404 5  24353395.375        3125.395
   4569977.337 6  -7038307.065 6  22308873.057       -1965.642
 93  5  8  3 15 30.0000000  0  5 20  3 16 24 17                      0.000469620
  -4892099.904 8  -3916333.714 9  21013614.785        2203.410
 -21723244.709 7  -9127501.351 7  22294815.331       -1495.565
 -14294769.462 7 -11147049.697 8  21651241.927        1544.703
  21441099.652 6  16566565.121 5  24371234.655        3124.756
   4511142.905 6  -7084152.020 6  22297677.896       -1956.426
 93  5  8  3 16  0.0000000  0  5 20  3 16 24 17                      0.000475650
  -4825735.712 8  -3864621.375 9  21026243.485        2220.920
 -21768071.810 7  -9162431.520 7  22286285.216       -1493.033
 -14248161.466 7 -11110731.776 8  21660111.187        1562.486
  21534847.068 6  16639614.950 5  24389074.865        3125.227
   4452585.010 6  -7129781.504 6  22286534.981       -1947.492
 93  5  8  3 16 30.0000000  0  5 20  3 16 24 17                      0.000481690
  -4758849.918 8  -3812502.598 9  21038971.824        2238.236
 -21812824.269 7  -9197303.547 7  22277768.820       -1490.594
 -14201027.862 7 -11074004.310 8  21669081.017        1579.901
  21628604.505 6  16712672.635 5  24406915.394        3125.322
   4394286.695 6  -7175208.715 6  22275440.794       -1939.016
 93  5  8  3 17  0.0000000  0  5 20  3 16 24 17                      0.000487750
  -4691448.419 8  -3759981.967 9  21051797.875        2255.540
 -21857505.404 7  -9232119.980 7  22269266.197       -1488.047
 -14153369.809 7 -11036868.167 8  21678149.839        1597.857
  21722359.834 6  16785728.740 5  24424757.395        3125.332
   4336239.522 6  -7220440.209 6  22264394.620       -1930.399
 93  5  8  3 17 30.0000000  0  5 20  3 16 24 17                      0.000493820
  -4623527.066 8  -3707056.270 9  21064722.606        2272.562
 -21902108.470 7  -9266875.572 8  22260778.551       -1485.693
 -14105158.518 7 -10999300.932 8  21687324.088        1616.208
  21816116.610 6  16858785.867 5  24442599.292        3124.975
   4278451.560 6  -7265469.742 6  22253397.882       -1922.073
 93  5  8  3 18  0.0000000  0  5 20  3 16 24 17                      0.000499880
  -4555086.928 8  -3653726.329 9  21077746.819        2290.099
 -21946631.988 7  -9301569.195 8  22252305.688       -1482.733
 -14056392.268 7 -10961301.255 8  21696603.879        1634.918
  21909868.830 6  16931839.486 5  24460438.946        3125.070
   4220926.951 6  -7310294.048 6  22242451.440       -1912.916
 93  5  8  3 18 30.0000000  0  5 20  3 16 24 17                      0.000505930
  -4486130.389 8  -3599993.972 9  21090868.927        2307.077
 -21991075.652 7  -9336200.584 8  22243848.366       -1480.313
 -14007071.180 7 -10922869.262 8  21705989.676        1653.232
  22003600.304 5  17004876.934 5  24478276.051        3123.671
   4163677.530 6  -7354903.936 6  22231557.322       -1903.531
 93  5  8  3 19  0.0000000  0  5 20  3 16 24 17                      0.000511970
  -4416660.797 8  -3545861.839 9  21104088.123        2324.090
 -22035440.357 7  -9370770.434 8  22235406.082       -1477.708
 -13957197.353 7 -10884006.537 8  21715480.783        1671.487
  22097298.293 5  17077888.322 5  24496105.130        3122.691
   4106721.101 6  -7399285.500 7  22220718.586       -1893.617
 93  5  8  3 19 30.0000000  0  5 20  3 16 24 17                      0.000518030
  -4346683.071 8  -3491333.766 9  21117404.375        2341.142
 -22079728.663 7  -9405280.783 8  22226978.184       -1475.027
 -13906794.503 7 -10844731.602 8  21725072.306        1688.547
  22190966.396 5  17150876.394 5  24513930.124        3121.813
   4050059.481 6  -7443437.361 7  22209936.285       -1883.703
 93  5  8  3 20  0.0000000  0  5 20  3 16 24 17                      0.000524120
  -4276198.969 8  -3436411.120 9  21130817.371        2357.957
 -22123939.527 7  -9439730.771 8  22218565.097       -1472.442
 -13855887.098 7 -10805063.500 8  21734759.549        1705.669
  22284600.844 5  17223838.246 5  24531749.075        3120.531
   3993694.553 6  -7487358.033 7  22199210.579       -1873.884
 93  5  8  3 20 30.0000000  0  5 20  3 16 24 17                      0.000530190
  -4205213.784 8  -3381097.998 9  21144325.498        2374.385
 -22168075.699 7  -9474122.560 8  22210166.334       -1470.168
 -13804457.909 7 -10764988.833 8  21744546.044        1722.921
  22378189.133 5  17296764.078 5  24549556.887        3118.735
   3937613.319 7  -7531057.632 7  22188538.772       -1864.859
 93  5  8  3 21  0.0000000  0  5 20  3 16 24 17                      0.000536250
  -4133730.870 8  -3325397.060 9  21157928.642        2391.094
 -22212137.358 7  -9508456.269 8  22201781.606       -1467.528
 -13752505.372 7 -10724506.337 8  21754432.359        1740.542
  22471739.645 5  17369660.551 5  24567358.789        3117.899
   3881802.790 6  -7574546.317 7  22177918.317       -1855.868
 93  5  8  3 21 30.0000000  0  5 20  3 16 24 17                      0.000542310
  -4061752.786 8  -3269310.253 9  21171624.991        2407.567
 -22256124.699 7  -9542732.101 8  22193410.941       -1465.027
 -13700023.445 7 -10683611.347 8  21764419.588        1758.494
  22565261.839 5  17442534.911 5  24585156.022        3116.891
   3826249.294 6  -7617834.693 7  22167346.674       -1847.495
 93  5  8  3 22  0.0000000  0  5 20  3 16 24 17                      0.000548330
  -3989276.993 8  -3212835.655 9  21185416.681        2424.152
 -22300032.593 7  -9576946.023 8  22185055.786       -1462.347
 -13646982.639 7 -10642280.857 8  21774512.546        1777.582
  22658754.054 5  17515385.916 5  24602947.500        3115.820
   3770957.828 6  -7660918.912 7  22156825.001       -1838.646
 93  5  8  3 22 30.0000000  0  5 20  3 16 24 17                      0.000554330
  -3916304.954 8  -3155974.351 9  21199302.876        2440.553
 -22343859.580 7  -9611096.903 8  22176715.851       -1459.738
 -13593379.352 7 -10600512.071 8  21784712.998        1795.622
  22752225.216 5  17588220.557 5  24620735.171        3115.510
   3715929.629 7  -7703797.961 7  22146353.317       -1829.920
 93  5  8  3 23  0.0000000  0  5 20  3 16 24 17                      0.000560340
  -3842839.890 8  -3098728.862 9  21213283.350        2457.101
 -22387605.453 7  -9645184.571 8  22168391.683       -1456.915
 -13539246.173 7 -10558330.386 8  21795014.286        1813.295
  22845690.883 5  17661050.913 5  24638520.345        3115.584
   3661173.226 7  -7746465.218 7  22135933.493       -1820.488
 93  5  8  3 23 30.0000000  0  5 20  3 16 24 17                      0.000566380
  -3768883.510 8  -3041100.541 9  21227356.376        2473.491
 -22431269.608 7  -9679208.571 8  22160082.436       -1454.104
 -13484584.667 7 -10515737.018 8  21805416.244        1830.867
  22939154.049 5  17733879.254 5  24656306.391        3115.290
   3606698.339 7  -7788913.122 7  22125567.140       -1811.021
 93  5  8  3 24  0.0000000  0  5 20  3 16 24 17                      0.000572440
  -3694441.509 8  -2983093.803 9  21241522.117        2489.474
 -22474854.911 7  -9713171.113 8  22151787.992       -1451.625
 -13429412.453 7 -10472745.695 8  21815914.949        1847.254
  23032599.916 5  17806694.194 5  24674088.344        3114.675
   3552506.055 7  -7831140.825 7  22115254.805       -1801.650
 93  5  8  3 24 30.0000000  0  5 20  3 16 24 17                      0.000578540
  -3619513.021 8  -2924708.000 9  21255780.939        2505.610
 -22518357.174 7  -9747068.971 8  22143509.886       -1448.939
 -13373751.532 7 -10429373.548 8  21826506.724        1863.245
  23126040.131 5  17879504.755 5  24691869.437        3114.397
   3498600.457 7  -7873145.128 7  22104996.638       -1792.097
 93  5  8  3 25  0.0000000  0  5 20  3 16 24 17                      0.000584680
  -3544099.914 8  -2865944.557 9  21270131.654        2521.764
 -22561775.983 7  -9780901.792 8  22135247.788       -1446.065
 -13317605.361 7 -10385623.309 8  21837190.617        1879.807
  23219465.801 5  17952303.973 5  24709647.751        3113.672
   3444985.925 7  -7914922.605 7  22094794.594       -1782.428
 93  5  8  3 25 30.0000000  0  5 20  3 16 24 17                      0.000590830
  -3468211.223 8  -2806810.546 9  21284572.758        2537.472
 -22605117.275 8  -9814674.221 8  22127000.334       -1443.529
 -13260960.052 7 -10341484.111 8  21847970.094        1896.471
  23312852.516 5  18025072.736 5  24727418.304        3111.934
   3391650.518 7  -7956482.592 7  22084645.468       -1773.327
 93  5  8  3 26  0.0000000  0  5 20  3 16 24 17                      0.000596970
  -3391845.109 8  -2747304.503 9  21299104.746        2553.598
 -22648376.012 8  -9848382.320 8  22118768.705       -1440.507
 -13203812.289 7 -10296953.408 8  21858845.027        1913.550
  23406194.602 5  18097806.830 5  24745180.430        3110.917
   3338592.385 7  -7997826.540 7  22074548.546       -1763.800
 93  5  8  3 26 30.0000000  0  5 20  3 16 24 17                      0.000603100
  -3315005.941 8  -2687429.870 9  21313726.504        2569.111
 -22691553.590 8  -9882027.173 8  22110552.081       -1438.058
 -13146153.694 7 -10252024.645 8  21869817.292        1930.557
  23499494.835 5  18170508.274 5  24762935.446        3108.962
   3285804.609 7  -8038959.815 7  22064503.142       -1755.368
 93  5  8  3 27  0.0000000  0  5 20  3 16 24 17                      0.000609190
  -3237698.405 8  -2627190.249 9  21328437.481        2584.729
 -22734651.736 7  -9915610.121 8  22102350.931       -1435.415
 -13087973.725 7 -10206689.606 8  21880888.505        1948.182
  23592737.808 6  18243165.069 5  24780678.749        3107.111
   3233263.206 7  -8079901.100 7  22054504.685       -1747.499
 93  5  8  3 27 30.0000000  0  5 20  3 16 24 17                      0.000615230
  -3159925.323 8  -2566587.863 9  21343237.714        2600.229
 -22777670.133 7  -9949130.950 8  22094164.411       -1432.665
 -13029265.481 7 -10160942.945 8  21892060.362        1965.598
  23685930.383 5  18315782.618 5  24798413.226        3105.911
   3180953.168 7  -8120662.118 7  22044550.308       -1739.798
 93  5  8  3 28  0.0000000  0  5 20  3 16 24 17                      0.000621250
  -3081681.686 8  -2505618.831 9  21358126.975        2615.831
 -22820600.639 8  -9982583.251 8  22085995.092       -1429.806
 -12970039.606 7 -10114792.908 8  21903330.619        1982.624
  23779098.538 5  18388381.167 5  24816142.074        3105.087
   3128876.923 7  -8161240.943 7  22034640.156       -1732.060
 93  5  8  3 28 30.0000000  0  6 20  3 16 24 23 17                   0.000627020
  -3002973.096 8  -2444287.477 9  21373105.007        2631.395
 -22863446.034 7 -10015969.268 8  22077841.950       -1426.856
 -12910301.711 7 -10068243.901 8  21914697.971        1999.815
  23872236.765 5  18460956.319 5  24833865.520        3104.076
   -278575.64315   -207679.91511  24861951.359       -3308.407
   3077033.289 7  -8201638.523 7  22024774.697       -1724.175
 93  5  8  3 29  0.0000000  0  6 20  3 16 24 23 17                   0.000633030
  -2923798.888 7  -2382593.325 9  21388171.309        2646.810
 -22906202.502 8 -10049285.988 8  22069705.450       -1423.931
 -12850050.031 7 -10021294.552 8  21926163.413        2016.919
  23965351.621 5  18533513.293 5  24851585.192        3103.495
   -377800.996 5   -284997.916 2  24843071.372       -3306.622
   3025433.096 7  -8241846.401 7  22014955.533       -1715.671
 93  5  8  3 29 30.0000000  0  6 20  3 16 24 23 17                   0.000639040
  -2844164.683 7  -2320540.722 9  21403324.936        2662.199
 -22948871.989 8 -10082534.899 8  22061585.760       -1420.882
 -12789286.116 7  -9973946.048 8  21937726.836        2033.981
  24058449.004 5  18606056.617 5  24869300.152        3102.884
   -476974.796 5   -362276.038 4  24824196.667       -3304.900
   2974106.483 7  -8281841.120 7  22005188.334       -1706.115
 93  5  8  3 30  0.0000000  0  6 20  3 16 24 23 17                   0.000645060
  -2764068.850 7  -2258128.403 9  21418566.446        2677.580
 -22991450.247 8 -10115712.763 8  22053483.111       -1417.778
 -12728012.219 7  -9926200.169 8  21949386.755        2051.188
  24151516.905 5  18678576.970 5  24887011.112        3101.662
   -576090.069 5   -439508.524 5  24805336.068       -3302.350
   2923065.296 7  -8321613.407 7  21995475.979       -1696.435
 93  5  8  3 30 30.0000000  0  6 20  3 16 24 23 17                   0.000651090
  -2683513.240 8  -2195357.828 9  21433896.021        2692.628
 -23033935.560 8 -10148818.177 8  22045398.618       -1414.892
 -12666218.275 7  -9878049.058 8  21961145.875        2068.170
  24244546.938 5  18751067.850 5  24904714.064        3100.301
   -675118.608 5   -516673.441 5  24786493.095       -3299.838
   2872319.158 7  -8361155.794 7  21985819.204       -1686.767
 93  5  8  3 31  0.0000000  0  6 20  3 16 24 23 17                   0.000657130
  -2602503.808 7  -2132233.609 9  21449311.652        2707.917
 -23076330.514 8 -10181853.188 8  22037331.122       -1411.731
 -12603922.589 7  -9829506.943 8  21972999.949        2084.785
  24337542.027 5  18823531.501 5  24922411.126        3099.386
   -774071.137 5   -593779.110 5  24767664.323       -3297.088
   2821871.748 7  -8400465.389 7  21976219.338       -1676.446
 93  5  8  3 31 30.0000000  0  4 20  3 16 17                         0.000662120
  -2521039.928 7  -2068755.290 9  21464813.949        2723.062
 -23118631.523 8 -10214814.996 8  22029281.348       -1408.514
 -12541141.221 7  -9780586.410 8  21984947.348        2100.630
   2771725.741 7  -8439540.133 7  21966676.854       -1666.692
 93  5  8  3 32  0.0000000  0  4 20  3 16 17                         0.000668140
  -2439125.908 7  -2004926.199 9  21480401.378        2737.859
 -23160839.637 8 -10247704.404 8  22021249.147       -1405.563
 -12477892.208 7  -9731301.489 8  21996983.148        2116.051
   2721865.970 7  -8478391.871 7  21957188.426       -1657.256
 93  5  8  3 32 30.0000000  0  4 20  3 16 17                         0.000674170
  -2356764.321 7  -1940748.381 9  21496074.360        2752.916
 -23202954.109 8 -10280520.867 8  22013234.877       -1402.249
 -12414179.920 7  -9681655.541 8  22009107.170        2131.440
   2672297.172 7  -8517016.855 7  21947755.466       -1647.350
 93  5  8  3 33  0.0000000  0  4 20  3 16 17                         0.000680230
  -2273956.303 7  -1876222.658 9  21511832.298        2767.608
 -23244972.644 8 -10313262.526 8  22005239.319       -1399.170
 -12350007.740 7  -9631651.245 8  22021319.009        2146.912
   2623019.413 7  -8555415.060 7  21938378.188       -1637.871
 93  5  8  3 33 30.0000000  0  4 20  3 16 17                         0.000686340
  -2190707.428 7  -1811353.438 9  21527674.002        2782.368
 -23286897.288 8 -10345931.059 8  21997261.023       -1395.920
 -12285359.039 7  -9581275.634 8  22033621.360        2163.100
   2574022.229 7  -8593594.637 7  21929054.592       -1628.501
 93  5  8  3 34  0.0000000  0  4 20  3 16 17                         0.000692530
  -2107019.718 7  -1746142.268 9  21543599.216        2796.833
 -23328726.528 8 -10378525.224 8  21989301.134       -1392.813
 -12220220.258 7  -9530518.143 8  22046016.621        2179.498
   2525307.055 7  -8631554.449 7  21919784.349       -1619.283
 93  5  8  3 34 30.0000000  0  4 20  3 16 17                         0.000698750
  -2022893.255 7  -1680589.201 9  21559608.243        2811.570
 -23370457.218 8 -10411042.621 8  21981360.083       -1389.406
 -12154583.101 7  -9479372.306 8  22058507.115        2196.346
   2476863.387 7  -8669302.704 7  21910565.531       -1610.214
 93  5  8  3 35  0.0000000  0  4 20  3 16 17                         0.000705050
  -1938327.852 7  -1614694.112 9  21575700.463        2826.108
 -23412086.225 8 -10443480.769 8  21973438.508       -1386.066
 -12088438.590 7  -9427831.125 8  22071094.177        2213.291
   2428691.101 7  -8706839.494 7  21901398.856       -1601.207
 93  5  8  3 35 30.0000000  0  5 20  3 16 23 17                      0.000711760
  -1853329.807 7  -1548461.897 9  21591874.774        2840.583
 -23453615.812 8 -10475841.455 8  21965535.974       -1382.623
 -12021792.473 7  -9375899.106 8  22083775.851        2229.753
    -29495.30315    -51102.47811  24598758.978       -3277.599
   2380786.268 7  -8744167.877 7  21892283.166       -1592.221
 93  5  8  3 36  0.0000000  0  5 20  3 16 23 17                      0.000717820
  -1767896.625 7  -1481890.632 9  21608131.824        2854.994
 -23495040.374 8 -10508120.297 8  21957652.885       -1379.163
 -11954661.779 7  -9323589.465 8  22096550.757        2245.645
   -127789.327 5   -127695.670 3  24580052.593       -3275.454
   2333152.087 7  -8781285.371 7  21883218.802       -1583.307
 93  5  8  3 36 30.0000000  0  5 20  3 16 23 17                      0.000723870
  -1682035.309 7  -1414985.707 9  21624471.308        2869.181
 -23536362.884 8 -10540319.614 8  21949789.398       -1375.797
 -11887059.073 7  -9270912.029 8  22109415.268        2261.298
   -226027.764 5   -204244.885 5  24561357.094       -3273.595
   2285782.139 7  -8818196.969 7  21874204.234       -1574.320
 93  5  8  3 37  0.0000000  0  5 20  3 16 23 17                      0.000729910
  -1595739.954 7  -1347742.602 9  21640892.675        2883.688
 -23577574.161 8 -10572432.241 8  21941947.355       -1371.957
 -11818983.123 7  -9217865.834 8  22122369.865        2276.979
   -324194.877 5   -280738.552 5  24542674.750       -3270.914
   2238704.120 7  -8854881.082 7  21865245.475       -1564.456
 93  5  8  3 37 30.0000000  0  5 20  3 16 23 17                      0.000735940
  -1509010.062 7  -1280160.890 9  21657397.057        2898.163
 -23618670.271 8 -10604455.159 8  21934127.169       -1368.087
 -11750443.160 7  -9164458.072 8  22135412.271        2292.274
   -422281.780 5   -357169.707 5  24524008.931       -3268.216
   2191913.401 7  -8891341.331 7  21856341.388       -1555.045
 93  5  8  3 38  0.0000000  0  5 20  3 16 23 17                      0.000741960
  -1421855.504 7  -1212248.280 9  21673981.785        2912.132
 -23659657.545 8 -10636393.260 8  21926327.062       -1364.584
 -11681446.840 7  -9110694.707 8  22148541.939        2307.648
   -520285.697 5   -433536.166 5  24505359.494       -3265.359
   2145394.964 7  -8927589.411 7  21847489.478       -1546.176
 93  5  8  3 38 30.0000000  0  5 20  3 16 23 17                      0.000748000
  -1334280.514 7  -1144008.059 9  21690647.067        2926.085
 -23700536.433 8 -10668246.902 8  21918548.137       -1360.946
 -11611975.479 7  -9056561.180 8  22161761.742        2323.588
   -618197.694 5   -509831.034 5  24486728.300       -3261.985
   2099141.379 7  -8963631.125 7  21838687.463       -1537.464
 93  5  8  3 39  0.0000000  0  5 20  3 16 23 17                      0.000754050
  -1246286.952 7  -1075441.659 9  21707391.514        2940.016
 -23741304.937 8 -10700014.529 8  21910790.236       -1357.279
 -11542029.586 7  -9002057.896 8  22175072.219        2339.383
   -716003.309 5   -586043.032 5  24468116.351       -3258.521
   2053149.979 7  -8999468.542 7  21829935.110       -1528.915
 93  5  8  3 39 30.0000000  0  5 20  3 16 23 17                      0.000760110
  -1157875.059 7  -1006549.300 9  21724215.418        2954.025
 -23781959.856 8 -10731693.646 8  21903054.021       -1353.422
 -11471609.611 7  -8947185.174 8  22188472.519        2355.173
   -813710.451 5   -662178.242 5  24449521.859       -3255.321
   2007413.618 7  -9035107.237 7  21821231.295       -1520.162
 93  5  8  3 40  0.0000000  0  5 20  3 16 23 17                      0.000766180
  -1069043.424 7   -937329.859 9  21741119.656        2968.038
 -23822496.669 8 -10763280.751 8  21895340.160       -1349.355
 -11400717.220 7  -8891944.350 8  22201962.712        2370.819
   -911311.369 5   -738230.727 5  24430948.278       -3251.474
   1961950.665 7  -9070532.870 7  21812580.394       -1510.744
 93  5  8  3 40 30.0000000  0  5 20  3 16 23 17                      0.000772270
   -979797.473 7   -867787.598 8  21758102.498        2981.893
 -23862916.576 8 -10794776.750 9  21887647.888       -1345.336
 -11329371.079 7  -8836349.955 8  22215539.600        2385.661
  -1008804.985 5   -814199.597 5  24412397.186       -3247.976
   1916774.364 7  -9105735.144 7  21803984.237       -1500.737
 93  5  8  3 41  0.0000000  0  5 20  3 16 23 17                      0.000778330
   -890136.523 7   -797921.958 8  21775164.768        2995.354
 -23903215.379 8 -10826178.397 9  21879979.115       -1341.583
 -11257590.498 7  -8780417.041 8  22229198.865        2399.713
  -1106196.726 5   -890089.066 5  24393864.229       -3244.916
   1871908.471 7  -9140695.554 7  21795446.595       -1490.462
 93  5  8  3 41 30.0000000  0  5 20  3 16 23 17                      0.000784390
   -800069.106 7   -727739.567 8  21792303.683        3008.947
 -23943397.747 8 -10857489.295 9  21872332.801       -1337.584
 -11185379.492 7  -8724148.719 8  22242940.054        2414.358
  -1203487.423 5   -965899.793 5  24375351.535       -3241.076
   1827354.654 7  -9175412.784 7  21786967.967       -1479.866
 93  5  8  3 42  0.0000000  0  5 20  3 16 23 17                      0.000790460
   -709594.194 7   -657239.659 8  21809520.616        3022.587
 -23983458.736 8 -10888705.628 9  21864709.767       -1333.481
 -11112722.126 7  -8667532.602 8  22256766.390        2429.341
  -1300651.115 5  -1041611.591 5  24356862.793       -3236.651
   1783115.887 7  -9209884.523 7  21778549.825       -1469.604
 93  5  8  3 42 30.0000000  0  5 20  3 16 23 17                      0.000796540
   -618721.269 7   -586429.617 8  21826813.451        3035.771
 -24023404.515 8 -10919832.175 9  21857108.558       -1329.630
 -11039617.936 7  -8610568.299 8  22270677.572        2444.526
  -1397693.847 5  -1117229.103 5  24338396.606       -3232.700
   1739167.245 7  -9244130.164 7  21770186.604       -1460.307
 93  5  8  3 43  0.0000000  0  5 20  3 16 23 17                      0.000802630
   -527446.850 7   -515306.693 8  21844182.368        3049.232
 -24063227.339 8 -10950862.915 9  21849530.314       -1325.416
 -10966037.836 7  -8553233.140 8  22284680.393        2460.934
  -1494613.108 5  -1192750.434 5  24319950.763       -3228.414
   1695501.477 7  -9278155.406 7  21761877.188       -1450.866
 93  5  8  3 43 30.0000000  0  5 20  3 16 23 17                      0.000808760
   -435775.540 7   -443874.526 8  21861626.960        3062.129
 -24102928.207 8 -10981798.626 9  21841975.794       -1321.595
 -10891965.010 7  -8495514.071 7  22298775.699        2477.104
  -1591406.539 5  -1268173.723 5  24301532.127       -3224.710
   1652102.145 7  -9311973.026 7  21753618.501       -1442.635
 93  5  8  3 44  0.0000000  0  5 20  3 16 23 17                      0.000814910
   -343718.977 7   -372142.167 8  21879144.773        3074.954
 -24142514.898 8 -11012645.374 9  21834442.381       -1317.720
 -10817418.970 7  -8437426.243 7  22312961.258        2492.533
  -1688096.042 5  -1343516.008 5  24283133.481       -3221.310
   1608942.170 7  -9345604.136 8  21745405.418       -1434.633
 93  5  8  3 44 30.0000000  0  6 20  3 22 16 23 17                   0.000820970
   -251277.094 7   -300109.550 8  21896736.018        3087.829
 -24181983.478 8 -11043400.076 9  21826931.839       -1313.712
   -545992.05916   -427074.07815  24999142.495       -2581.733
 -10742414.941 7  -8378981.551 7  22327233.606        2507.732
  -1784682.924 5  -1418778.359 5  24264751.599       -3217.761
   1566028.999 7  -9379042.929 8  21737239.092       -1426.115
 93  5  8  3 45  0.0000000  0  7 20 26  3 22 16 23 17                0.000827100
   -158456.012 7   -227781.437 8  21914398.975        3100.371
    620747.29115   -133214.73612  24359498.573       -2138.450
 -24221336.060 8 -11074064.397 9  21819443.264       -1309.863
   -623319.442 5   -487329.091 5  24984427.455       -2573.125
 -10666971.657 7  -8320194.580 7  22341590.311        2521.852
  -1881167.201 5  -1493960.749 5  24246390.687       -3214.315
   1523375.140 7  -9412279.678 8  21729122.292       -1417.355
 93  5  8  3 45 30.0000000  0  7 20 26  3 22 16 23 17                0.000833180
    -65253.387 7   -155156.043 8  21932134.770        3113.083
    556632.953 5   -183173.795 5  24347298.037       -2136.059
 -24260566.481 8 -11104633.532 9  21811977.971       -1305.765
   -700376.604 6   -547373.646 5  24969763.357       -2564.086
 -10591111.651 7  -8261082.889 7  22356025.906        2535.237
  -1977529.829 5  -1569048.338 5  24228053.634       -3209.915
   1480987.100 7  -9445309.281 8  21721055.877       -1408.555
 93  5  8  3 46  0.0000000  0  7 20 26  3 22 16 23 17                0.000839240
     28326.562 7    -82236.621 8  21949942.911        3125.617
    492585.113 5   -233081.055 5  24335109.379       -2133.575
 -24299675.066 8 -11135107.729 9  21804535.911       -1301.629
   -777159.000 5   -607204.026 5  24955152.475       -2554.621
 -10514861.206 7  -8201666.966 7  22370535.750        2548.245
  -2073763.957 5  -1644035.845 5  24209741.759       -3205.445
   1438869.372 7  -9478128.246 8  21713041.363       -1399.117
 93  5  8  3 46 30.0000000  0  7 20 26  3 22 16 23 17                0.000845290
    122279.694 7     -9026.399 8  21967821.734        3138.029
    428615.726 5   -282927.194 5  24322935.078       -2130.691
 -24338661.793 8 -11165486.974 9  21797117.011       -1297.569
   -853652.002 5   -666808.915 5  24940596.643       -2544.654
 -10438219.342 7  -8141946.043 7  22385119.916        2561.474
  -2169867.600 5  -1718921.643 5  24191452.932       -3201.465
   1397039.475 7  -9510722.928 8  21705081.513       -1389.455
 93  5  8  3 47  0.0000000  0  7 20 26  3 22 16 23 17                0.000851330
    216609.102 7     64477.024 8  21985771.838        3150.611
    364759.063 5   -332685.468 5  24310783.707       -2126.182
 -24377519.825 8 -11195765.915 9  21789722.290       -1293.179
   -929834.344 5   -726171.717 5  24926098.713       -2534.160
 -10361171.598 7  -8081908.837 7  22399782.006        2575.158
  -2265854.812 5  -1793716.703 5  24173186.570       -3197.664
   1355501.163 7  -9543090.384 8  21697177.195       -1379.899
 93  5  8  3 47 30.0000000  0  7 20 26  3 22 16 23 17                0.000857390
    311314.450 7    138273.384 8  22003793.613        3163.094
    301063.080 5   -382318.583 5  24298662.699       -2120.123
 -24416245.653 8 -11225941.862 9  21782353.041       -1288.755
  -1005708.189 5   -785294.121 5  24911660.183       -2523.891
 -10283710.481 7  -8021549.543 7  22414522.522        2588.950
  -2361724.834 5  -1868420.450 5  24154942.301       -3193.743
   1314246.606 7  -9575236.754 8  21689326.564       -1370.369
 93  5  8  3 48  0.0000000  0  7 20 26  3 22 16 23 17                0.000863460
    406388.624 7    212357.136 8  22021885.736        3175.079
    237557.460 5   -431803.347 5  24286577.760       -2113.528
 -24454842.040 8 -11256016.937 9  21775008.094       -1284.632
  -1081270.315 5   -844173.627 5  24897280.418       -2513.526
 -10205836.883 7  -7960868.828 7  22429341.592        2602.685
  -2457484.530 5  -1943038.217 5  24136719.644       -3190.308
   1273272.380 7  -9607164.676 8  21681529.249       -1361.204
 93  5  8  3 48 30.0000000  0  7 20 26  3 22 16 23 17                0.000869550
    501824.226 7    286722.525 8  22040046.493        3187.396
    174248.899 5   -481134.506 5  24274530.120       -2107.001
 -24493312.562 8 -11285993.932 9  21767687.483       -1280.168
  -1156512.357 5   -902803.762 5  24882963.019       -2502.685
 -10127544.424 7  -7899861.712 7  22444239.989        2616.892
  -2553136.583 5  -2017572.100 5  24118517.924       -3186.384
   1232575.527 7  -9638876.458 8  21673785.181       -1351.942
 93  5  8  3 49  0.0000000  0  7 20 26  3 22 16 23 17                0.000875650
    597603.622 7    361355.794 8  22058272.757        3198.503
    111107.805 5   -530335.228 5  24262513.148       -2101.849
 -24531671.227 8 -11315883.777 9  21760388.008       -1276.697
  -1231462.952 5   -961206.745 5  24868699.119       -2493.462
 -10048851.097 7  -7838542.252 7  22459215.044        2629.848
  -2648677.945 5  -2092019.745 5  24100337.450       -3182.303
   1192128.487 7  -9670393.600 8  21666088.458       -1344.017
 93  5  8  3 49 30.0000000  0  7 20 26  3 22 16 23 17                0.000881760
    693735.438 7    436263.692 8  22076565.779        3210.445
     48136.284 5   -579403.819 5  24250529.949       -2096.328
 -24569904.843 8 -11345676.179 9  21753112.265       -1272.284
  -1306112.592 5  -1019375.130 5  24854493.878       -2482.911
  -9969749.021 7  -7776904.285 7  22474267.418        2643.816
  -2744065.823 5  -2166347.768 5  24082185.699       -3176.735
   1151941.316 7  -9701708.231 8  21658440.433       -1334.990
 93  5  8  3 50  0.0000000  0  7 20 26  3 22 16 23 17                0.000887880
    790225.446 7    511450.698 8  22094927.501        3222.310
    -14680.692 5   -628351.947 5  24238577.145       -2091.480
 -24608003.561 8 -11375363.467 9  21745862.360       -1267.763
  -1380442.360 5  -1077294.431 5  24840348.863       -2472.367
  -9890218.346 7  -7714932.336 7  22489401.241        2658.440
  -2839289.771 5  -2240548.092 5  24064064.391       -3171.390
   1112029.893 7  -9732807.996 8  21650845.691       -1325.631
 93  5  8  3 50 30.0000000  0  7 20 26  3 22 16 23 17                0.000894000
    887063.740 7    586909.096 8  22113355.251        3233.636
    -77369.567 5   -677200.276 5  24226649.079       -2087.549
 -24645973.468 8 -11404950.366 9  21738636.845       -1263.706
  -1454472.947 5  -1134980.521 5  24826261.605       -2462.961
  -9810251.164 7  -7652620.245 7  22504618.580        2672.632
  -2934362.112 5  -2314630.252 5  24045972.351       -3166.637
   1072390.599 7  -9763695.712 8  21643302.264       -1316.868
 93  5  8  3 51  0.0000000  0  7 20 26  3 22 16 23 17                0.000900130
    984271.108 7    662655.068 8  22131852.689        3246.019
   -139894.769 5   -725921.081 5  24214750.475       -2081.570
 -24683789.482 8 -11434417.372 9  21731440.325       -1258.432
  -1528188.324 5  -1192420.994 5  24812233.836       -2452.129
  -9729833.109 7  -7589956.846 7  22519921.332        2687.743
  -3029264.729 5  -2388580.215 5  24027911.591       -3161.010
   1033042.456 7  -9794356.554 8  21635814.648       -1307.054
 93  5  8  3 51 30.0000000  0  7 20 26  3 22 16 23 17                0.000906240
   1081819.001 7    738666.402 8  22150415.817        3257.383
   -202267.447 5   -774523.015 5  24202881.949       -2076.530
 -24721476.036 8 -11463783.473 9  21724269.272       -1253.982
  -1601601.903 5  -1249626.265 5  24798264.687       -2441.946
  -9648990.035 7  -7526962.269 7  22535305.320        2701.856
  -3124036.827 5  -2462428.465 5  24009876.586       -3157.006
    993965.658 7  -9824805.965 8  21628378.747       -1297.806
 93  5  8  3 52  0.0000000  0  7 20 26  3 22 16 23 17                0.000912340
   1179706.924 7    814942.670 8  22169043.650        3268.477
   -264492.922 5   -823010.243 5  24191041.069       -2071.773
 -24759029.316 8 -11493045.733 9  21717122.929       -1249.738
  -1674718.763 5  -1306600.419 5  24784352.021       -2432.482
  -9567736.014 7  -7463647.452 7  22550767.311        2715.019
  -3218697.704 5  -2536190.055 5  23991863.652       -3153.624
    955163.115 7  -9855041.670 8  21620995.128       -1288.965
 93  5  8  3 52 30.0000000  0  7 20 26  3 22 16 23 17                0.000918420
   1277927.917 7    891478.507 8  22187733.871        3279.434
   -326567.890 5   -871380.196 5  24179227.879       -2066.636
 -24796452.540 8 -11522206.661 9  21710001.439       -1245.486
  -1747540.607 6  -1363344.612 5  24770494.693       -2422.282
  -9486097.979 7  -7400033.417 7  22566303.163        2727.249
  -3313250.636 5  -2609867.531 5  23973872.026       -3149.975
    916628.270 7  -9885068.772 9  21613662.032       -1280.282
 93  5  8  3 53  0.0000000  0  7 20 26  3 22 16 23 17                0.000924480
   1376479.831 7    968272.164 8  22206488.009        3290.506
   -388489.488 5   -919630.679 5  24167444.381       -2061.676
 -24833743.560 8 -11551264.576 9  21702905.122       -1240.973
  -1820052.117 6  -1419847.011 5  24756696.358       -2411.914
  -9404096.206 7  -7336135.950 7  22581907.295        2739.520
  -3407681.050 5  -2683449.572 5  23955903.088       -3145.517
    878354.231 7  -9914892.653 9  21606378.426       -1271.510
 93  5  8  3 53 30.0000000  0  7 20 26  3 22 16 23 17                0.000930520
   1475353.318 7   1045316.425 7  22225303.093        3301.330
   -450276.332 5   -967776.142 5  24155687.014       -2057.063
 -24870906.869 8 -11580222.968 9  21695833.128       -1236.553
  -1892264.689 6  -1476116.495 5  24742954.758       -2401.969
  -9321728.898 7  -7271953.651 7  22597581.168        2751.830
  -3501983.837 5  -2756932.165 5  23937958.266       -3140.956
    840334.729 7  -9944518.190 9  21599144.042       -1262.832
 93  5  8  3 54  0.0000000  0  7 20 26  3 22 16 23 17                0.000936550
   1574552.463 7   1122614.465 7  22244180.243        3312.008
   -511918.118 5  -1015808.583 5  24143956.077       -2052.251
 -24907934.684 8 -11609075.776 9  21688786.995       -1232.090
  -1964171.600 6  -1532147.742 5  24729270.898       -2391.732
  -9238989.017 7  -7207481.010 7  22613326.161        2764.396
  -3596133.390 5  -2830295.337 5  23920042.521       -3135.576
    802575.252 7  -9973941.109 9  21591958.239       -1254.332
 93  5  8  3 54 30.0000000  0  7 20 26  3 22 16 23 17                0.000942570
   1674076.674 7   1200165.779 7  22263118.724        3322.843
   -573404.873 5  -1063720.207 5  24132255.754       -2046.816
 -24944823.354 8 -11637820.167 9  21681767.637       -1227.391
  -2035763.850 6  -1587933.890 5  24715647.082       -2381.151
  -9155861.525 7  -7142706.372 7  22629145.391        2777.433
  -3690109.175 5  -2903523.131 5  23902159.017       -3129.571
    765074.137 7 -10003162.696 9  21584822.648       -1245.881
 93  5  8  3 55  0.0000000  0  7 20 26  3 22 16 23 17                0.000948580
   1773925.903 7   1277970.363 7  22282119.409        3333.504
   -634718.766 5  -1111497.146 5  24120587.168       -2040.752
 -24981569.131 8 -11666453.197 9  21674775.114       -1222.724
  -2107048.637 6  -1643480.390 5  24702082.421       -2371.384
  -9072337.521 7  -7077622.739 7  22645039.127        2790.777
  -3783899.286 5  -2976606.214 5  23884311.138       -3123.336
    727829.584 7 -10032184.377 9  21577734.777       -1237.254
 93  5  8  3 55 30.0000000  0  7 20 26  3 22 16 23 17                0.000954600
   1874094.467 7   1356023.758 7  22301180.216        3344.377
   -695839.662 5  -1159123.691 5  24108956.498       -2033.910
 -25018172.832 8 -11694975.535 9  21667809.538       -1217.715
  -2178029.754 6  -1698790.325 5  24688574.975       -2360.567
  -8988409.328 7  -7012224.189 7  22661010.488        2804.268
  -3877501.381 5  -3049542.816 5  23866498.772       -3116.857
    690847.216 7 -10061001.787 9  21570696.627       -1228.190
 93  5  8  3 56  0.0000000  0  7 20 26  3 22 16 23 17                0.000960620
   1974582.398 7   1434326.027 7  22320303.106        3354.972
   -756762.770 5  -1206596.132 5  24097361.846       -2027.349
 -25054630.159 8 -11723383.818 9  21660871.861       -1212.794
  -2248683.257 6  -1753844.898 5  24675129.687       -2349.650
  -8904088.535 7  -6946519.667 7  22677056.350        2817.310
  -3970918.712 5  -3122335.434 5  23848722.251       -3110.845
    654133.277 7 -10089610.004 9  21563710.215       -1219.230
 93  5  8  3 56 30.0000000  0  7 20 26  3 22 16 23 17                0.000966650
   2075389.775 7   1512877.218 7  22339486.385        3365.490
   -817477.644 5  -1253906.299 5  24085808.460       -2020.273
 -25090937.035 8 -11751674.863 9  21653962.673       -1207.850
  -2319001.794 5  -1808638.519 5  24661748.932       -2338.262
  -8819382.945 7  -6880515.351 7  22693174.752        2829.721
  -4064156.030 5  -3194987.763 5  23830978.097       -3104.935
    617689.465 7 -10118007.744 9  21556775.594       -1210.358
 93  5  8  3 57  0.0000000  0  7 20 26  3 22 16 23 17                0.000972700
   2176522.454 7   1591681.900 7  22358731.331        3376.363
   -877968.278 5  -1301041.779 5  24074297.230       -2012.857
 -25127083.258 8 -11779840.717 9  21647084.006       -1202.397
  -2388961.984 6  -1863152.924 5  24648435.864       -2325.851
  -8734295.188 7  -6814213.207 7  22709366.779        2842.502
  -4157204.671 5  -3267493.051 5  23813272.266       -3098.512
    581533.392 7 -10146181.265 9  21549895.587       -1200.314
 93  5  8  3 57 30.0000000  0  7 20 26  3 22 16 23 17                0.000978770
   2277973.640 7   1670734.752 7  22378037.021        3386.969
   -938251.710 5  -1348015.780 5  24062826.014       -2006.186
 -25163071.233 8 -11807883.265 9  21640235.887       -1197.045
  -2458545.382 5  -1917373.711 5  24635193.752       -2313.014
  -8648835.461 7  -6747621.251 7  22725628.555        2854.727
  -4250070.656 5  -3339856.068 5  23795600.407       -3092.571
    545674.753 7 -10174123.026 9  21543072.092       -1190.338
 93  5  8  3 58  0.0000000  0  7 20 26  3 22 16 23 17                0.000984850
   2379741.414 7   1750034.288 7  22397402.111        3397.554
   -998338.598 5  -1394836.616 5  24051392.830       -1999.472
 -25198898.207 8 -11835800.361 9  21633418.486       -1191.623
  -2527744.902 6  -1971295.355 5  24622025.635       -2300.337
  -8563009.976 7  -6680744.249 7  22741960.688        2867.074
  -4342760.050 5  -3412081.445 5  23777962.147       -3086.540
    510113.182 7 -10201833.296 9  21536304.547       -1180.347
 93  5  8  3 58 30.0000000  0  7 20 26  3 22 16 23 17                0.000990950
   2481821.094 7   1829576.893 7  22416827.563        3407.887
  -1058219.661 5  -1441497.066 5  24039998.326       -1992.712
 -25234564.709 8 -11863592.396 9  21626631.594       -1186.262
  -2596573.831 6  -2024928.229 5  24608927.996       -2287.951
  -8476820.294 7  -6613583.484 7  22758362.276        2879.167
  -4435266.160 5  -3484164.007 5  23760358.528       -3080.505
    474850.641 7 -10229310.543 9  21529593.672       -1170.381
 93  5  8  3 59  0.0000000  0  7 20 26  3 22 16 23 17                0.000997040
   2584208.471 7   1909359.232 7  22436311.166        3418.116
  -1117908.884 5  -1488008.031 5  24028639.431       -1986.264
 -25270070.522 8 -11891259.243 9  21619874.804       -1180.858
  -2665033.733 5  -2078273.590 5  24595900.253       -2276.025
  -8390256.671 7  -6546131.329 7  22774834.521        2891.846
  -4527596.430 5  -3556109.528 6  23742789.783       -3074.866
    439886.568 7 -10256555.246 9  21522940.297       -1160.546
 93  5  8  3 59 30.0010000  0  7 20 26  3 22 16 23 17                0.001003130
   2686902.408 7   1989380.482 7  22455853.036        3427.946
  -1177399.985 5  -1534364.626 5  24017317.346       -1979.518
 -25305417.452 8 -11918802.278 9  21613148.436       -1175.727
  -2733147.926 5  -2131349.533 5  24582938.391       -2264.885
  -8303317.759 7  -6478386.746 7  22791378.099        2903.942
  -4619765.954 5  -3627929.804 6  23725250.759       -3069.654
    405205.233 7 -10283579.620 9  21516340.768       -1151.536
 93  5  8  4  0  0.0010000  0  7 20 26  3 22 16 23 17                0.001009200
   2789895.191 7   2069634.577 7  22475451.998        3437.912
  -1236670.426 5  -1580549.229 5  24006038.035       -1972.150
 -25340599.298 8 -11946216.670 9  21606454.355       -1170.268
  -2800916.456 5  -2184156.135 5  24570041.962       -2253.453
  -8216013.229 7  -6410357.253 7  22807991.917        2916.021
  -4711765.205 5  -3699617.412 6  23707743.268       -3063.884
    370796.852 7 -10310391.308 9  21509792.889       -1142.593
 93  5  8  4  0 30.0010000  0  7 20 26  3 22 16 23 17                0.001015270
   2893184.339 7   2150119.594 7  22495107.941        3447.882
  -1295722.108 5  -1626563.417 5  23994801.238       -1964.770
 -25375618.790 8 -11973504.554 9  21599790.146       -1164.732
  -2868350.786 5  -2236702.318 5  24557209.618       -2242.105
  -8128349.550 7  -6342047.931 7  22824673.915        2928.029
  -4803600.162 5  -3771177.009 6  23690267.240       -3058.513
    336654.801 7 -10336995.458 9  21503296.318       -1133.695
 93  5  8  4  1  0.0010000  0  7 20 26  3 22 16 23 17                0.001021330
   2996767.924 7   2230834.064 7  22514819.055        3457.554
  -1354548.416 5  -1672402.000 5  23983608.659       -1956.904
 -25410473.045 8 -12000663.688 9  21593157.537       -1159.244
  -2935443.650 5  -2288982.407 5  24544441.849       -2230.932
  -8040330.128 7  -6273461.390 7  22841423.523        2939.528
  -4895265.096 6  -3842604.093 6  23672823.427       -3052.584
    302776.436 7 -10363394.151 9  21496849.709       -1124.969
 93  5  8  4  1 30.0010000  0  7 20 26  3 22 16 23 17                0.001027380
   3100639.299 7   2311772.782 7  22534584.442        3467.020
  -1413134.051 5  -1718053.010 5  23972459.286       -1949.085
 -25445164.956 8 -12027696.325 9  21586555.800       -1153.898
  -3002196.011 5  -2340997.190 5  24531739.481       -2219.347
  -7951979.746 7  -6204616.938 7  22858236.243        2950.468
  -4986747.623 6  -3913889.045 6  23655415.508       -3046.412
    269155.318 7 -10389592.370 9  21490451.050       -1116.530
 93  5  8  4  2  0.0010000  0  7 20 26  3 22 16 23 17                0.001033430
   3204793.768 7   2392932.075 7  22554404.639        3476.551
  -1471494.041 5  -1763528.219 5  23961353.392       -1941.677
 -25479694.086 8 -12054602.119 9  21579984.969       -1148.286
  -3068594.092 5  -2392735.898 5  24519104.272       -2207.295
  -7863293.154 7  -6135510.520 7  22875112.819        2962.023
  -5078035.724 5  -3985022.546 6  23638043.095       -3039.586
    235793.517 7 -10415588.540 9  21484102.825       -1107.566
 93  5  8  4  2 30.0010000  0  7 20 26  3 22 16 23 17                0.001039480
   3309232.046 7   2474312.553 7  22574278.950        3486.026
  -1529631.391 5  -1808829.942 5  23950289.861       -1934.028
 -25514055.678 8 -12081377.355 9  21573446.053       -1142.604
  -3134637.259 5  -2444198.090 5  24506537.317       -2195.342
  -7774253.453 7  -6066128.963 6  22892056.345        2973.984
  -5169120.838 5  -4055997.860 6  23620709.346       -3032.581
    202701.755 7 -10441374.286 9  21477805.816       -1098.542
 93  5  8  4  3  0.0010000  0  7 20 26  3 22 16 23 17                0.001045530
   3413945.723 7   2555907.600 7  22594205.358        3495.087
  -1587547.587 5  -1853959.339 5  23939268.570       -1926.811
 -25548253.472 8 -12108024.959 9  21566938.710       -1137.203
  -3200324.432 5  -2495382.885 5  24494037.541       -2183.447
  -7684865.435 7  -5996475.966 6  22909066.531        2985.530
  -5259996.974 5  -4126810.302 6  23603415.531       -3025.636
    169873.454 7 -10466954.746 9  21471558.778       -1089.752
 93  5  8  4  3 30.0010000  0  7 20 26  3 22 16 23 17                0.001051580
   3518933.982 7   2637716.628 7  22614183.585        3503.983
  -1645250.234 5  -1898922.332 5  23928288.084       -1920.238
 -25582283.788 8 -12134542.068 9  21560462.812       -1131.796
  -3265647.358 6  -2546283.815 5  24481607.385       -2171.343
  -7595121.442 7  -5926545.603 6  22926144.119        2997.469
  -5350676.354 5  -4197469.458 6  23586161.075       -3019.683
    137307.647 7 -10492330.678 9  21465361.939       -1081.258
 93  5  8  4  4  0.0010000  0  7 20 26  3 22 16 23 17                0.001057610
   3624192.454 6   2719736.189 7  22634213.460        3512.936
  -1702749.194 5  -1943726.601 5  23917347.620       -1913.353
 -25616146.378 8 -12160928.473 9  21554018.824       -1126.185
  -3330600.254 6  -2596896.415 5  24469246.812       -2159.168
  -7505017.430 7  -5856334.701 6  22943290.932        3009.050
  -5441167.513 6  -4267981.929 6  23568942.390       -3013.300
    105009.625 7 -10517497.928 9  21459215.376       -1072.217
 93  5  8  4  4 30.0010000  0  7 20 26  3 22 16 23 17                0.001063640
   3729713.632 6   2801960.447 7  22654293.779        3521.827
  -1760040.959 5  -1988369.408 5  23906445.193       -1905.991
 -25649844.416 8 -12187186.667 9  21547606.203       -1120.489
  -3395189.826 6  -2647225.892 5  24456956.409       -2146.626
  -7414579.515 7  -5785863.614 6  22960500.213        3020.092
  -5531470.035 5  -4338347.459 6  23551757.109       -3006.702
     72975.147 7 -10542459.828 9  21453119.405       -1063.368
 93  5  8  4  5  0.0010000  0  7 20 26  3 22 16 23 17                0.001069660
   3835501.755 6   2884392.737 7  22674424.669        3530.647
  -1817107.410 5  -2032836.657 5  23895584.129       -1898.336
 -25683368.803 8 -12213309.540 9  21541226.839       -1114.730
  -3459391.865 6  -2697253.428 5  24444739.131       -2133.387
  -7323813.896 6  -5715137.187 6  22977772.262        3031.007
  -5621574.813 6  -4408558.869 6  23534609.537       -3000.294
     41209.054 7 -10567212.597 9  21447074.330       -1054.452
 93  5  8  4  5 30.0010000  0  7 20 26  3 22 16 23 17                0.001075690
   3941548.340 6   2967026.430 7  22694604.525        3539.201
  -1873940.961 5  -2077122.454 5  23884770.561       -1890.308
 -25716723.648 8 -12239300.315 9  21534879.663       -1109.064
  -3523200.171 6  -2746974.159 5  24432596.298       -2120.280
  -7232720.980 6  -5644155.710 6  22995106.859        3041.883
  -5711485.784 6  -4478619.248 6  23517501.251       -2993.385
      9706.287 7 -10591760.169 9  21441079.040       -1045.588
 93  5  8  4  6  0.0010000  0  7 20 26  3 22 16 23 17                0.001081740
   4047856.354 6   3049863.814 7  22714834.389        3547.725
  -1930517.991 5  -2121208.348 5  23874004.856       -1881.707
 -25749901.885 8 -12265153.455 9  21528566.213       -1103.285
  -3586612.302 6  -2796386.202 5  24420529.472       -2107.363
  -7141299.480 7  -5572918.208 6  23012503.711        3052.703
  -5801169.525 6  -4548502.601 6  23500435.390       -2985.688
    -21519.069 7 -10616091.577 9  21435137.333       -1036.467
 93  5  8  4  6 30.0010000  0  7 20 26  3 22 16 23 17                0.001087810
   4154421.113 6   3132901.275 7  22735112.927        3556.340
  -1986827.906 5  -2165086.084 5  23863289.340       -1872.410
 -25782903.164 8 -12290868.710 9  21522286.262       -1097.250
  -3649631.588 6  -2845492.073 5  24408537.703       -2094.171
  -7049541.384 6  -5501418.389 6  23029964.268        3064.261
  -5890619.357 6  -4618203.692 6  23483413.960       -2977.980
    -52471.291 7 -10640210.165 9  21429247.250       -1027.214
 93  5  8  4  7  0.0010000  0  7 20 26  3 22 16 23 17                0.001093880
   4261233.576 6   3216131.726 7  22755438.576        3564.633
  -2042867.329 5  -2208753.098 5  23852623.745       -1863.346
 -25815732.256 8 -12316449.809 9  21516039.216       -1091.360
  -3712265.103 6  -2894297.365 5  24396619.240       -2081.298
  -6957445.536 7  -5429655.422 6  23047490.013        3075.562
  -5979856.351 6  -4687738.938 6  23466431.861       -2970.961
    -83156.099 7 -10664120.380 9  21423408.263       -1018.372
 93  5  8  4  7 30.0010000  0  7 20 26  3 22 16 23 17                0.001099950
   4368294.562 6   3299555.861 7  22775811.871        3572.682
  -2098636.757 5  -2252209.700 5  23842010.368       -1854.707
 -25848383.405 8 -12341892.227 9  21509825.480       -1085.615
  -3774526.695 6  -2942812.856 5  24384770.971       -2069.542
  -6865012.989 6  -5357630.065 6  23065079.435        3086.299
  -6068879.175 6  -4757107.281 6  23449490.995       -2963.922
   -113577.669 7 -10687825.457 9  21417619.313       -1009.881
 93  5  8  4  8  0.0010000  0  7 20 26  3 22 16 23 17                0.001106010
   4475600.887 6   3383171.157 7  22796231.325        3580.995
  -2154147.240 6  -2295464.535 5  23831447.407       -1846.092
 -25880855.570 8 -12367195.194 9  21503646.164       -1079.479
  -3836430.788 6  -2991049.808 5  24372990.799       -2057.460
  -6772261.206 7  -5285355.969 6  23082729.208        3096.944
  -6157695.700 6  -4826314.861 6  23432590.284       -2957.362
   -143742.699 7 -10711330.647 9  21411879.045       -1001.298
 93  5  8  4  8 30.0010000  0  7 20 26  3 22 16 23 17                0.001112050
   4583149.643 6   3466975.360 6  22816698.238        3588.955
  -2209408.400 6  -2338525.059 5  23820932.789       -1837.936
 -25913146.552 8 -12392356.977 9  21497501.190       -1073.467
  -3897977.956 6  -3039008.609 5  24361278.553       -2045.749
  -6679204.798 6  -5212844.494 6  23100437.831        3106.725
  -6246327.029 6  -4895378.147 6  23415724.039       -2951.320
   -173664.461 7 -10734646.283 9  21406185.206        -993.400
 93  5  8  4  9  0.0010000  0  7 20 26  3 22 16 23 17                0.001118060
   4690935.516 6   3550964.333 6  22837208.712        3596.744
  -2264418.115 6  -2381389.693 5  23810464.660       -1829.421
 -25945257.505 8 -12417378.473 9  21491390.690       -1067.506
  -3959174.481 6  -3086694.145 5  24349633.130       -2034.024
  -6585859.499 6  -5140107.896 6  23118200.308        3116.334
  -6334774.397 6  -4964298.078 6  23398893.170       -2944.969
   -203350.122 7 -10757777.940 9  21400536.078        -985.576
 93  5  8  4  9 30.0010000  0  7 20 26  3 22 16 23 17                0.001124050
   4798958.539 6   3635138.102 6  22857764.568        3604.520
  -2319169.421 6  -2424052.962 5  23800045.123       -1820.846
 -25977183.739 8 -12442256.032 9  21485315.485       -1061.419
  -4020006.928 5  -3134096.044 5  24338056.523       -2021.726
  -6492217.921 6  -5067140.443 6  23136019.891        3126.180
  -6423014.980 6  -5033056.896 6  23382102.451       -2937.910
   -232791.233 7 -10780719.031 9  21394933.557        -977.360
 93  5  8  4 10  0.0010000  0  7 20 26  3 22 16 23 17                0.001130030
   4907215.419 6   3719494.075 6  22878365.124        3612.562
  -2373652.902 6  -2466507.564 5  23789677.573       -1811.305
 -26008923.422 8 -12466988.241 9  21479275.737       -1054.866
  -4080458.263 5  -3181200.939 5  24326552.829       -2008.380
  -6398277.151 6  -4993939.861 6  23153895.764        3136.529
  -6511038.401 6  -5101646.476 6  23365351.327       -2930.323
   -261981.264 7 -10803464.484 9  21389379.128        -968.696
 93  5  8  4 10 30.0010000  0  7 20 26  3 22 16 23 17                0.001136030
   5015702.464 6   3804029.425 6  22899009.693        3619.959
  -2427848.908 6  -2508738.113 5  23779363.685       -1801.631
 -26040475.684 8 -12491574.383 9  21473271.534       -1048.799
  -4140511.595 6  -3227995.726 5  24315125.738       -1995.008
  -6304025.435 6  -4920496.986 6  23171831.417        3146.940
  -6598835.287 6  -5170059.538 6  23348644.260       -2922.743
   -290923.132 7 -10826016.557 9  21383871.565        -960.621
 93  5  8  4 11  0.0010000  0  7 20 26  3 22 16 23 17                0.001142040
   5124412.598 6   3888738.610 6  22919697.056        3627.373
  -2481751.763 6  -2550740.266 5  23769106.736       -1792.069
 -26071843.311 8 -12516016.670 9  21467302.385       -1042.561
  -4200156.918 5  -3274472.522 5  24303775.192       -1981.122
  -6209462.249 6  -4846811.392 6  23189826.231        3157.228
  -6686405.918 6  -5238296.302 6  23331978.994       -2915.118
   -319616.280 7 -10848374.831 9  21378411.455        -952.232
 93  5  8  4 11 30.0010000  0  7 20 26  3 22 16 23 17                0.001148070
   5233348.111 6   3973623.413 6  22940425.594        3634.906
  -2535373.177 6  -2592523.117 5  23758902.977       -1782.716
 -26103019.604 8 -12540309.855 9  21461369.692       -1036.107
  -4259371.981 5  -3320614.111 5  24292506.971       -1966.768
  -6114590.866 7  -4772885.679 6  23207879.468        3167.258
  -6773741.013 6  -5306349.535 6  23315359.673       -2907.244
   -348053.682 8 -10870533.817 9  21373000.070        -943.697
 93  5  8  4 12  0.0010000  0  7 20 26  3 22 16 23 17                0.001154130
   5342503.487 6   4058679.523 6  22961197.763        3642.044
  -2588710.902 5  -2634084.911 5  23748753.116       -1773.386
 -26134004.615 8 -12564454.012 9  21455473.215       -1029.842
  -4318162.809 5  -3366425.127 5  24281319.044       -1952.686
  -6019429.510 7  -4698733.978 6  23225988.589        3176.697
  -6860844.994 6  -5374222.683 6  23298784.189       -2899.730
   -376238.691 8 -10892496.143 9  21367636.552        -935.375
 93  5  8  4 12 30.0010000  0  7 20 26  3 22 16 23 17                0.001160180
   5451874.559 6   4143903.716 6  22982010.707        3649.329
  -2641781.601 5  -2675438.620 5  23738654.123       -1764.765
 -26164798.350 8 -12588449.110 9  21449613.352       -1023.305
  -4376535.800 6  -3411910.518 5  24270210.881       -1938.885
  -5923986.509 6  -4624362.812 6  23244151.022        3186.058
  -6947718.514 6  -5441916.268 6  23282252.733       -2891.854
   -404167.442 7 -10914258.769 9  21362321.732        -926.466
 93  5  8  4 13  0.0010000  0  7 20 26  3 22 16 23 17                0.001166230
   5561462.661 6   4229297.032 6  23002864.998        3656.460
  -2694598.766 5  -2716594.790 5  23728603.596       -1756.427
 -26195394.481 8 -12612290.230 9  21443790.912       -1016.711
  -4434496.099 5  -3457074.352 5  24259180.549       -1925.281
  -5828271.560 6  -4549779.770 6  23262365.044        3194.898
  -7034356.293 6  -5509426.132 6  23265765.825       -2883.988
   -431821.024 8 -10935806.991 9  21357059.255        -917.201
 93  5  8  4 13 30.0010000  0  7 20 26  3 22 16 23 17                0.001172250
   5671265.478 6   4314857.656 6  23023759.905        3663.505
  -2747156.040 5  -2757548.434 5  23718601.513       -1747.382
 -26225790.786 8 -12635975.612 9  21438006.897       -1010.101
  -4492055.379 6  -3501925.706 5  24248227.340       -1912.179
  -5732282.024 6  -4474982.757 6  23280630.814        3204.276
  -7120757.944 6  -5576752.018 6  23249324.564       -2876.343
   -459200.289 8 -10957141.456 9  21351849.301        -908.167
 93  5  8  4 14  0.0010000  0  7 20 26  3 22 16 23 17                0.001178250
   5781273.111 6   4400577.859 6  23044693.180        3670.372
  -2799445.407 5  -2798293.324 5  23708651.081       -1738.499
 -26255992.023 8 -12659509.050 9  21432259.546       -1003.477
  -4549226.155 5  -3546474.331 5  24237348.954       -1899.061
  -5636013.428 6  -4399968.311 6  23298949.795        3213.636
  -7206938.145 6  -5643905.348 6  23232924.921       -2868.915
   -486310.992 8 -10978266.656 9  21346689.915        -899.235
 93  5  8  4 14 30.0010000  0  7 20 26  3 22 16 23 17                0.001184230
   5891487.235 6   4486458.948 6  23065666.045        3677.042
  -2851468.644 5  -2838830.852 5  23698752.054       -1729.567
 -26285992.202 8 -12682885.796 9  21426551.207        -996.927
  -4606005.015 5  -3590717.564 5  24226544.144       -1886.268
  -5539463.641 6  -4324734.727 6  23317323.233        3222.886
  -7292889.138 6  -5710880.087 6  23216568.851       -2861.302
   -513152.612 8 -10999182.162 9  21341582.262        -890.354
 93  5  8  4 15  0.0010000  0  7 20 26  3 22 16 23 17                0.001190190
   6001901.488 6   4572496.019 6  23086676.871        3683.847
  -2903205.577 6  -2879145.245 5  23688907.569       -1719.445
 -26315792.802 8 -12706107.018 9  21420880.302        -990.054
  -4662391.847 6  -3634655.308 5  24215814.296       -1872.937
  -5442633.870 6  -4249282.990 6  23335748.979        3232.419
  -7378610.183 6  -5777675.631 6  23200256.236       -2853.420
   -539732.742 8 -11019893.931 9  21336524.261        -881.658
 93  5  8  4 15 30.0010000  0  7 20 26  3 22 16 23 17                0.001196150
   6112516.445 6   4658689.474 6  23107725.895        3690.629
  -2954633.425 6  -2919218.852 5  23679121.354       -1708.889
 -26345388.348 8 -12729168.463 9  21415248.242        -983.046
  -4718378.969 5  -3678281.628 5  24205160.530       -1859.227
  -5345515.605 6  -4173606.438 6  23354230.584        3242.241
  -7464085.346 6  -5844279.574 6  23183991.668       -2844.615
   -566053.300 8 -11040403.422 9  21331515.828        -872.720
 93  5  8  4 16  0.0010000  0  7 20 26  3 22 16 23 17                0.001202100
   6223327.233 6   4745035.525 6  23128812.416        3696.932
  -3005757.950 6  -2959056.108 5  23669392.102       -1699.077
 -26374779.414 8 -12752070.564 9  21409655.284        -976.390
  -4773957.610 6  -3721589.609 5  24194584.379       -1845.812
  -5248119.116 6  -4097713.112 6  23372763.960        3251.067
  -7549291.060 6  -5910673.569 6  23167777.284       -2835.567
   -592108.685 8 -11060706.284 9  21326557.410        -864.185
 93  5  8  4 16 30.0010000  0  7 20 26  3 22 16 23 17                0.001208050
   6334333.757 6   4831534.092 6  23149936.374        3703.300
  -3056570.705 6  -2998650.407 5  23659722.703       -1688.612
 -26403961.122 8 -12774809.529 9  21404102.457        -969.451
  -4829122.730 5  -3764575.362 5  24184087.009       -1831.967
  -5150445.245 6  -4021603.603 6  23391350.224        3260.331
  -7634216.521 6  -5976849.195 6  23151616.713       -2826.387
   -617899.285 8 -11080802.818 9  21321649.380        -855.371
 93  5  8  4 17  0.0010000  0  7 20 26  3 22 16 23 17                0.001214000
   6445531.795 6   4918181.889 6  23171096.558        3709.828
  -3107068.268 6  -3037999.093 5  23650112.578       -1678.038
 -26432932.828 8 -12797384.850 9  21398589.055        -962.279
  -4883860.540 6  -3807228.179 5  24173670.772       -1817.257
  -5052491.788 6  -3945276.274 6  23409990.289        3269.708
  -7718874.427 6  -6042816.331 6  23135506.315       -2817.406
   -643422.463 8 -11100690.994 9  21316792.432        -846.210
 93  5  8  4 17 30.0010000  0  7 20 26  3 22 16 23 17                0.001219960
   6556918.248 6   5004976.496 6  23192293.172        3716.019
  -3157258.215 6  -3077108.077 5  23640561.509       -1667.935
 -26461693.032 8 -12819795.371 9  21393116.124        -955.194
  -4938162.505 6  -3849541.351 5  24163337.782       -1802.607
  -4954265.735 6  -3868736.530 6  23428682.649        3278.683
  -7803264.396 6  -6108574.661 6  23119447.013       -2808.568
   -668669.302 7 -11120363.820 9  21311988.197        -836.852
 93  5  8  4 18  0.0010000  0  7 20 26  3 22 16 23 17                0.001225920
   6668491.077 6   5091916.340 6  23213525.223        3722.089
  -3207149.433 6  -3115984.276 5  23631067.476       -1658.097
 -26490239.032 8 -12842038.982 9  21387684.234        -948.116
  -4992015.678 6  -3891504.842 5  24153089.546       -1787.693
  -4855772.582 6  -3791988.660 6  23447425.309        3287.483
  -7887402.898 6  -6174137.082 6  23103435.995       -2800.799
   -693636.270 8 -11139818.564 9  21307237.095        -827.777
 93  5  8  4 18 30.0010000  0  7 20 26  3 22 16 23 17                0.001231890
   6780245.587 6   5178997.733 6  23234791.594        3728.122
  -3256736.278 6  -3154623.360 5  23621631.387       -1647.772
 -26518570.383 8 -12864115.325 9  21382292.837        -940.911
  -5045418.582 6  -3933117.466 5  24142927.334       -1772.621
  -4757009.480 6  -3715030.417 6  23466219.470        3296.611
  -7971315.235 6  -6239523.240 6  23087468.560       -2793.252
   -718331.490 8 -11159061.572 9  21302537.489        -818.590
 93  5  8  4 19  0.0010000  0  7 20 26  3 22 16 23 17                0.001237860
   6892180.118 6   5266219.418 6  23256091.757        3734.251
  -3306015.350 6  -3193022.592 5  23612254.392       -1637.186
 -26546683.918 8 -12886021.943 9  21376942.841        -933.520
  -5098372.471 6  -3974380.205 5  24132850.933       -1757.600
  -4657971.661 6  -3637858.147 6  23485065.323        3305.939
  -8054993.852 6  -6304727.294 6  23071544.553       -2784.985
   -742753.485 8 -11178091.657 9  21297890.547        -809.591
 93  5  8  4 19 30.0010000  0  7 20 26  3 22 16 23 17                0.001243830
   7004292.509 6   5353579.685 6  23277425.019        3739.799
  -3354966.791 6  -3231166.513 5  23602939.141       -1626.281
 -26574577.141 8 -12907756.890 9  21371634.766        -926.395
  -5150889.072 6  -4015302.217 5  24122856.938       -1743.552
  -4558656.652 6  -3560469.840 6  23503964.560        3314.955
  -8138421.792 6  -6369736.014 6  23055668.264       -2777.118
   -766915.436 8 -11196919.110 9  21293293.060        -801.526
 93  5  8  4 20  0.0010000  0  7 20 26  3 22 16 23 17                0.001249810
   7116575.751 6   5441073.122 6  23298791.931        3745.652
  -3403579.183 6  -3269046.234 5  23593689.365       -1614.632
 -26602252.571 8 -12929322.129 9  21366368.641        -918.930
  -5202979.793 6  -4055892.323 5  24112944.441       -1729.199
  -4459063.827 6  -3482865.090 6  23522916.810        3324.482
  -8221614.083 6  -6434561.118 6  23039837.216       -2768.974
   -790844.051 8 -11215564.746 9  21288739.921        -793.874
 93  5  8  4 20 30.0010000  0  7 20 26  3 22 16 23 17                0.001255800
   7229027.872 6   5528698.094 6  23320190.878        3751.233
  -3451836.611 6  -3306649.396 5  23584506.166       -1602.581
 -26629707.003 8 -12950715.166 9  21361143.817        -911.497
  -5254656.503 6  -4096159.892 5  24103110.363       -1715.729
  -4359190.313 6  -3405041.603 6  23541922.155        3333.692
  -8304550.060 6  -6499186.459 6  23024055.268       -2759.978
   -814549.426 8 -11234036.442 9  21284228.936        -786.338
 93  5  8  4 21  0.0010000  0  7 20 26  3 22 16 23 17                0.001261790
   7341646.306 6   5616452.714 6  23341621.622        3756.645
  -3499736.284 6  -3343973.753 5  23575390.997       -1590.609
 -26656938.341 8 -12971934.356 9  21355961.935        -904.123
  -5305923.883 6  -4136108.436 5  24093354.525       -1702.059
  -4259052.655 6  -3327012.269 6  23560977.896        3341.959
  -8387216.101 6  -6563601.531 6  23008324.977       -2751.078
   -838029.451 8 -11252332.534 9  21279760.367        -779.020
 93  5  8  4 21 30.0010000  0  7 20 26  3 22 16 23 17                0.001267780
   7454424.155 6   5704331.523 6  23363082.154        3761.832
  -3547280.158 6  -3381020.871 5  23566343.762       -1579.274
 -26683948.516 8 -12992981.228 9  21350821.993        -896.798
  -5356779.262 6  -4175735.978 5  24083676.925       -1688.230
  -4158683.464 6  -3248802.569 6  23580076.771        3349.237
  -8469620.387 6  -6627812.593 6  22992643.931       -2742.512
   -861288.027 8 -11270456.064 9  21275334.612        -771.556
 93  5  8  4 22  0.0010000  0  7 20 26  3 22 16 23 17                0.001273750
   7567362.616 6   5792335.491 6  23384573.239        3767.224
  -3594495.861 6  -3417812.263 5  23557357.304       -1568.608
 -26710732.032 8 -13013851.470 9  21345725.619        -889.116
  -5407203.957 6  -4215027.902 5  24074081.282       -1673.608
  -4058094.058 6  -3170421.243 6  23599218.418        3356.539
  -8551755.927 6  -6691814.260 6  22977013.946       -2733.158
   -884310.397 8 -11288395.523 9  21270953.438        -763.328
 93  5  8  4 22 30.0010000  0  7 20 26  3 22 16 23 17                0.001279710
   7680457.220 6   5880461.120 6  23406094.515        3772.285
  -3641392.973 6  -3454355.407 5  23548432.938       -1558.086
 -26737288.285 8 -13034544.631 9  21340672.190        -881.663
  -5457201.917 6  -4253987.326 5  24064567.067       -1659.579
  -3957298.115 6  -3091878.989 6  23618399.249        3362.970
  -8633609.212 6  -6755596.010 6  22961437.478       -2724.114
   -907085.900 8 -11306142.650 9  21266619.406        -755.035
 93  5  8  4 23  0.0010000  0  7 20 26  3 22 16 23 17                0.001285650
   7793704.537 6   5968705.791 6  23427645.370        3777.483
  -3687978.343 6  -3490655.650 5  23539568.338       -1547.591
 -26763615.599 8 -13055059.407 9  21335661.859        -873.751
  -5506764.391 6  -4292607.381 5  24055135.822       -1644.603
  -3856304.016 6  -3013182.327 6  23637617.604        3369.989
  -8715200.637 6  -6819173.679 6  22945911.583       -2715.392
   -929601.920 8 -11323687.570 9  21262334.562        -746.044
 93  5  8  4 23 30.0010000  0  7 20 26  3 22 16 23 17                0.001291560
   7907103.110 6   6057068.263 6  23449225.868        3782.325
  -3734254.877 6  -3526715.228 5  23530762.482       -1537.586
 -26789710.786 8 -13075393.301 9  21330696.147        -866.156
  -5555882.003 6  -4330880.826 5  24045789.146       -1629.850
  -3755096.956 6  -2934319.714 6  23656876.405        3377.356
  -8796535.998 6  -6882551.832 6  22930433.124       -2706.941
   -951854.512 8 -11341027.227 9  21258099.824        -737.387
 93  5  8  4 24  0.0010000  0  7 20 26  3 22 16 23 17                0.001297470
   8020651.352 6   6145547.384 6  23470832.151        3787.312
  -3780213.865 6  -3562527.376 5  23522016.604       -1526.302
 -26815570.552 8 -13095543.745 9  21325775.082        -858.234
  -5604550.389 6  -4368804.194 5  24036527.784       -1614.970
  -3653651.120 6  -2855271.050 6  23676181.077        3385.492
  -8877606.261 6  -6945723.386 6  22915006.550       -2697.775
   -973839.608 8 -11358158.418 9  21253916.252        -728.412
 93  5  8  4 24 30.0010000  0  7 20 26  3 22 16 23 17                0.001303360
   8134343.110 6   6234138.360 6  23492466.588        3792.104
  -3825828.045 6  -3598070.812 5  23513335.942       -1514.685
 -26841196.157 8 -13115511.731 9  21320898.480        -850.382
  -5652783.037 6  -4406388.040 5  24027349.215       -1600.335
  -3551967.968 6  -2776037.449 6  23695531.048        3393.314
  -8958405.434 6  -7008683.746 6  22899630.427       -2688.849
   -995555.975 8 -11375080.247 9  21249783.620        -719.442
 93  5  8  4 25  0.0010000  0  7 20 26  3 22 16 23 17                0.001309260
   8248173.416 6   6322837.281 6  23514128.474        3796.648
  -3871097.209 6  -3633345.444 5  23504721.975       -1503.067
 -26866587.804 8 -13135297.400 9  21316066.863        -842.577
  -5700562.953 6  -4443619.100 5  24018256.949       -1584.984
  -3450049.188 6  -2696620.261 6  23714925.564        3401.199
  -9038933.746 6  -7071433.019 6  22884305.983       -2679.550
  -1017006.501 8 -11391794.906 9  21245701.707        -710.712
 93  5  8  4 25 30.0010000  0  7 20 26  3 22 16 23 17                0.001315150
   8362136.270 6   6411639.466 6  23535815.393        3801.069
  -3916009.976 6  -3668342.347 5  23496174.694       -1490.907
 -26891746.399 8 -13154901.471 9  21311279.369        -834.755
  -5747888.207 6  -4480495.870 5  24009250.310       -1569.767
  -3347903.504 6  -2617026.240 6  23734363.180        3408.605
  -9119174.458 6  -7133958.164 7  22869036.196       -2669.680
  -1038205.973 8 -11408313.934 9  21241667.490        -702.410
 93  5  8  4 26  0.0010000  0  7 20 26  3 22 16 23 17                0.001321040
   8476233.529 6   6500546.395 6  23557527.491        3805.494
  -3960552.397 6  -3703050.665 5  23487698.146       -1478.580
 -26916665.358 8 -13174318.832 9  21306537.511        -826.741
  -5794753.634 6  -4517014.355 5  24000332.597       -1554.611
  -3245537.507 6  -2537260.578 6  23753842.732        3415.613
  -9199114.794 6  -7196249.286 7  22853824.305       -2659.689
  -1059150.154 8 -11424634.056 9  21237681.969        -693.921
 93  5  8  4 26 30.0010000  0  7 20 26  3 22 16 23 17                0.001326930
   8590457.961 6   6589552.440 6  23579263.438        3809.708
  -4004733.829 6  -3737477.683 6  23479291.187       -1466.698
 -26941347.188 8 -13193551.401 9  21301841.000        -818.758
  -5841163.042 6  -4553177.447 5  23991501.091       -1539.071
  -3142975.377 6  -2457342.033 6  23773359.628        3422.193
  -9278771.578 6  -7258319.417 7  22838666.671       -2650.638
  -1079848.447 8 -11440762.550 9  21233743.404        -685.977
 93  5  8  4 27  0.0010000  0  7 20 26  3 22 16 23 17                0.001332820
   8704807.397 6   6678655.848 6  23601023.351        3813.719
  -4048557.575 6  -3771625.987 6  23470952.544       -1454.670
 -26965788.911 8 -13212596.876 9  21297190.204        -810.829
  -5887104.661 6  -4588976.052 6  23982758.980       -1523.697
  -3040211.017 6  -2377265.942 6  23792914.708        3428.914
  -9358155.219 6  -7320176.744 7  22823560.617       -2641.479
  -1100308.491 8 -11456705.411 9  21229849.451        -677.972
 93  5  8  4 27 30.0010000  0  7 20 26  3 22 16 23 17                0.001338710
   8819278.138 6   6767853.820 6  23622805.905        3817.695
  -4092028.089 6  -3805499.074 6  23462680.338       -1443.321
 -26989989.726 8 -13231454.633 9  21292584.680        -802.709
  -5932586.742 6  -4624416.579 6  23974104.362       -1508.322
  -2937236.775 6  -2297026.275 6  23812509.595        3436.105
  -9437262.712 6  -7381818.875 7  22808507.197       -2632.400
  -1120526.441 8 -11472459.635 9  21226001.786        -669.698
 93  5  8  4 28  0.0010000  0  7 20 26  3 22 16 23 17                0.001344590
   8933869.004 6   6857145.391 6  23644612.035        3821.666
  -4135152.674 6  -3839102.546 6  23454473.413       -1431.567
 -27013945.850 8 -13250121.722 9  21288025.686        -794.545
  -5977611.095 6  -4659500.474 6  23965536.470       -1493.242
  -2834044.942 6  -2216617.073 5  23832146.459        3443.321
  -9516097.243 6  -7443248.343 7  22793505.225       -2623.191
  -1140491.681 8 -11488016.924 9  21222202.702        -661.283
 93  5  8  4 28 30.0010000  0  7 20 26  3 22 16 23 17                0.001350470
   9048581.770 6   6946531.944 6  23666441.116        3825.773
  -4177916.376 6  -3872424.850 6  23446335.371       -1419.396
 -27037650.633 8 -13268592.954 9  21283514.520        -786.100
  -6022170.385 6  -4694221.949 6  23957057.587       -1477.416
  -2730627.402 6  -2136031.994 5  23851826.396        3451.231
  -9594649.124 6  -7504457.495 7  22778556.895       -2613.513
  -1160192.947 8 -11503368.532 9  21218453.770        -652.162
 93  5  8  4 29  0.0010000  0  7 20 26  3 22 16 23 17                0.001356350
   9163415.134 6   7036012.462 6  23688293.535        3829.827
  -4220314.236 6  -3905462.074 6  23438267.835       -1407.074
 -27061100.179 8 -13286865.309 9  21279052.078        -777.418
  -6066261.716 6  -4728578.791 6  23948666.716       -1461.953
  -2626970.162 6  -2055260.141 5  23871552.449        3459.061
  -9672896.237 6  -7565429.207 7  22763666.731       -2602.987
  -1179614.474 8 -11518502.161 9  21214758.380        -642.633
 93  5  8  4 29 30.0010000  0  7 20 26  3 22 16 23 17                0.001362230
   9278366.500 6   7125584.898 6  23710167.834        3833.661
  -4262339.915 6  -3938209.311 6  23430271.870       -1394.444
 -27084292.492 8 -13304937.224 9  21274639.035        -768.883
  -6109891.701 6  -4762576.172 6  23940364.492       -1446.581
  -2523089.242 6  -1974313.978 5  23891319.833        3466.264
  -9750832.822 6  -7626158.940 7  22748836.078       -2592.747
  -1198759.262 8 -11533420.159 9  21211115.050        -633.592
 93  5  8  4 30  0.0010000  0  7 20 26  3 22 16 23 17                0.001368100
   9393431.852 6   7215246.214 6  23732064.615        3837.452
  -4303975.612 6  -3970652.652 6  23422347.518       -1381.166
 -27107226.464 8 -13322807.811 9  21270274.904        -760.263
  -6153059.066 6  -4796213.031 6  23932149.867       -1431.190
  -2418998.976 6  -1893204.681 5  23911127.886        3473.151
  -9828460.964 6  -7686648.322 7  22734064.136       -2582.387
  -1217633.812 8 -11548127.554 9  21207523.527        -624.745
 93  5  8  4 30 30.0010000  0  7 20 26  3 22 16 23 17                0.001373960
   9508604.888 6   7304991.423 5  23753981.544        3840.776
  -4345225.530 6  -4002795.370 6  23414497.904       -1368.799
 -27129903.756 8 -13340478.409 9  21265959.562        -751.744
  -6195770.577 6  -4829494.685 6  23924022.336       -1416.144
  -2314702.741 6  -1811934.915 5  23930975.331        3479.873
  -9905781.539 6  -7746898.044 7  22719350.491       -2572.344
  -1236252.397 8 -11562635.530 9  21203980.750        -616.567
 93  5  8  4 31  0.0010000  0  7 20 26  3 22 16 23 17                0.001379810
   9623886.503 6   7394821.245 5  23775919.351        3844.558
  -4386096.781 6  -4034643.008 6  23406720.693       -1355.862
 -27152318.095 8 -13357944.099 9  21261694.156        -742.759
  -6238029.156 6  -4862423.392 6  23915979.888       -1401.032
  -2210207.729 6  -1730510.225 5  23950860.114        3486.396
  -9982796.215 6  -7806909.399 7  22704695.039       -2562.055
  -1254636.383 8 -11576960.674 9  21200482.351        -609.027
 93  5  8  4 31 30.0010000  0  7 20 26  3 22 16 23 17                0.001385660
   9739280.045 6   7484738.269 5  23797877.343        3848.126
  -4426576.565 6  -4066185.663 6  23399017.927       -1342.922
 -27174461.806 8 -13375198.911 9  21257480.402        -733.859
  -6279830.310 6  -4894995.677 6  23908025.598       -1385.753
  -2105517.625 6  -1648933.556 5  23970781.645        3493.008
 -10059507.575 6  -7866684.408 7  22690096.743       -2552.050
  -1272790.360 8 -11591106.600 9  21197028.054        -601.314
 93  5  8  4 32  0.0010000  0  7 20 26  3 22 16 23 17                0.001391520
   9854781.312 6   7574739.217 5  23819856.707        3851.832
  -4466665.925 6  -4097424.047 6  23391389.685       -1329.925
 -27196333.975 8 -13392242.143 9  21253318.276        -724.663
  -6321164.268 6  -4927203.918 6  23900160.271       -1369.984
  -2000621.218 6  -1567196.119 5  23990742.753        3499.931
 -10135913.092 6  -7926221.099 7  22675557.636       -2541.837
  -1290709.077 8 -11605069.220 9  21193618.081        -593.447
 93  5  8  4 32 30.0010000  0  7 20 26  3 22 16 23 17                0.001397370
   9970387.330 6   7664821.784 5  23841856.217        3855.319
  -4506370.759 6  -4128362.842 6  23383833.660       -1316.938
 -27217932.894 8 -13409072.442 9  21249207.959        -715.439
  -6362027.478 6  -4959045.348 6  23892384.259       -1353.986
  -1895527.087 6  -1485304.563 5  24010741.040        3506.276
 -10212017.536 6  -7985523.188 7  22661075.265       -2531.720
  -1308397.475 8 -11618852.360 9  21190251.974        -585.570
 93  5  8  4 33  0.0010000  0  7 20 26  3 22 16 23 17                0.001403230
  10086095.521 6   7754984.014 5  23863874.244        3858.601
  -4545674.643 6  -4158989.145 6  23376354.034       -1303.357
 -27239255.709 8 -13425687.596 9  21245150.281        -706.275
  -6402406.187 6  -4990509.260 6  23884700.758       -1337.763
  -1790246.495 6  -1403267.749 5  24030776.132        3512.441
 -10287816.551 6  -8044587.312 7  22646650.837       -2521.581
  -1325844.550 8 -11632447.454 9  21186932.232        -577.349
 93  5  8  4 33 30.0010000  0  7 20 26  3 22 16 23 17                0.001409090
  10201902.138 6   7845222.938 5  23885911.948        3861.972
  -4584571.503 6  -4189298.340 6  23368951.713       -1289.649
 -27260302.122 8 -13442087.380 9  21241145.490        -696.911
  -6442289.383 6  -5021587.043 6  23877111.376       -1320.956
  -1684780.395 6  -1321086.438 5  24050845.409        3518.744
 -10363308.209 6  -8103411.923 7  22632285.255       -2511.027
  -1343028.282 8 -11645837.341 9  21183662.335        -568.171
 93  5  8  4 34  0.0010000  0  7 20 26  3 22 16 23 17                0.001414960
  10317807.573 5   7935538.853 5  23907967.969        3865.097
  -4623060.093 6  -4219289.372 6  23361628.148       -1276.199
 -27281066.608 8 -13458267.467 9  21237193.687        -687.511
  -6481666.929 6  -5052270.814 5  23869618.085       -1304.243
  -1579132.569 6  -1238763.432 5  24070949.261        3524.559
 -10438481.952 6  -8161988.782 7  22617979.740       -2500.481
  -1359941.415 8 -11659016.382 9  21180443.682        -559.336
 93  5  8  4 34 30.0010000  0  7 20 26  3 22 16 23 17                0.001420830
  10433810.941 5   8025931.059 5  23930042.247        3868.306
  -4661143.925 6  -4248965.077 6  23354381.047       -1262.678
 -27301545.240 8 -13474224.831 9  21233296.715        -677.934
  -6520546.065 6  -5082566.247 5  23862219.678       -1287.749
  -1473307.255 6  -1156302.166 5  24091087.883        3530.656
 -10513331.942 6  -8220313.364 7  22603735.710       -2489.398
  -1376583.735 8 -11671984.401 9  21177276.488        -550.083
 93  5  8  4 35  0.0010000  0  7 20 26  3 22 16 23 17                0.001426690
  10549903.446 6   8116392.685 5  23952134.001        3871.091
  -4698829.143 6  -4278330.130 6  23347209.704       -1249.689
 -27321741.464 8 -13489962.118 9  21229453.687        -668.692
  -6558940.408 6  -5112483.888 5  23854912.706       -1271.856
  -1367292.503 6  -1073693.266 5  24111262.121        3536.952
 -10587851.441 6  -8278380.433 7  22589555.516       -2478.672
  -1392960.055 8 -11684745.156 9  21174160.262        -541.673
 93  5  8  4 35 30.0010000  0  7 20 26  3 22 16 23 17                0.001432550
  10666084.268 6   8206923.189 5  23974243.236        3874.197
  -4736116.723 6  -4307385.330 6  23340113.705       -1236.036
 -27341651.677 8 -13505476.543 9  21225665.039        -658.883
  -6596851.289 6  -5142024.803 5  23847698.590       -1255.556
  -1261083.750 6   -990933.223 5  24131473.017        3543.706
 -10662038.982 6  -8336188.827 7  22575438.469       -2467.211
  -1409075.390 8 -11697302.525 9  21171093.656        -532.865
 93  5  8  4 36  0.0010000  0  7 20 26  3 22 16 23 17                0.001438430
  10782357.057 6   8297525.373 5  23996369.092        3877.297
  -4772987.923 6  -4336116.094 6  23333097.233       -1221.948
 -27361266.789 8 -13520761.023 9  21221932.553        -648.979
  -6634272.436 6  -5171184.122 5  23840577.537       -1239.204
  -1154667.737 6   -908011.649 5  24151724.600        3550.793
 -10735890.342 6  -8393735.285 7  22561384.778       -2456.238
  -1424940.651 8 -11709665.043 9  21168074.566        -524.778
 93  5  8  4 36 30.0010000  0  7 20 26  3 22 16 23 17                0.001444320
  10898713.470 6   8388192.711 5  24018510.731        3879.774
  -4809442.509 6  -4364522.219 6  23326159.790       -1208.319
 -27380590.757 8 -13535818.639 9  21218254.957        -639.477
  -6671210.927 6  -5199967.338 5  23833548.203       -1223.235
  -1048046.341 6   -824930.062 5  24172013.129        3557.177
 -10809424.997 6  -8451034.956 7  22547391.315       -2445.995
  -1440571.059 8 -11721844.548 9  21165100.397        -517.294
 93  5  8  4 37  0.0010000  0  7 20 26  3 22 16 23 17                0.001450210
  11015143.563 6   8478917.402 5  24040666.056        3881.968
  -4845487.421 6  -4392609.122 6  23319300.124       -1194.866
 -27399628.541 8 -13550653.253 9  21214632.356        -630.108
  -6707659.169 6  -5228368.559 5  23826612.739       -1206.729
   -941247.521 6   -741710.238 5  24192336.133        3562.315
 -10882654.918 6  -8508097.171 7  22533456.330       -2436.119
  -1455982.400 8 -11733853.371 9  21162167.585        -510.267
 93  5  8  4 37 30.0010000  0  7 20 26  3 22 16 23 17                0.001456110
  11131643.487 6   8569696.568 5  24062835.483        3884.392
  -4881113.883 6  -4420369.942 6  23312520.958       -1180.538
 -27418379.134 8 -13565264.081 9  21211064.334        -620.338
  -6743597.234 6  -5256372.231 5  23819773.684       -1189.399
   -834294.281 6   -658370.057 5  24212688.743        3567.574
 -10955582.897 6  -8564924.111 7  22519578.899       -2425.827
  -1471166.596 8 -11745685.184 9  21159277.875        -502.296
 93  5  8  4 38  0.0010000  0  7 20 26  3 22 16 23 17                0.001462030
  11248215.164 6   8660531.632 5  24085017.959        3886.842
  -4916323.221 6  -4447805.738 6  23305820.673       -1166.979
 -27436835.484 8 -13579645.636 9  21207552.406        -610.410
  -6779016.425 6  -5283971.606 5  23813033.697       -1172.004
   -727176.725 6   -574901.821 5  24233072.931        3573.223
 -11028196.929 7  -8621506.427 7  22505761.046       -2415.048
  -1486113.561 8 -11757332.148 9  21156433.616        -494.173
 93  5  8  4 38 30.0010000  0  7 20 26  3 22 16 23 17                0.001467950
  11364857.423 6   8751421.681 5  24107214.784        3889.178
  -4951128.928 6  -4474927.033 6  23299197.651       -1153.564
 -27454993.955 8 -13593795.064 9  21204096.898        -600.497
  -6813911.281 6  -5311162.386 5  23806393.455       -1154.266
   -619901.806 6   -491310.973 5  24253486.930        3578.197
 -11100474.087 7  -8677826.214 7  22492007.198       -2403.471
  -1500806.040 8 -11768780.807 9  21153637.414        -485.405
 93  5  8  4 39  0.0010000  0  7 20 26  3 22 16 23 17                0.001473870
  11481562.440 6   8842360.648 5  24129423.147        3891.272
  -4985523.965 6  -4501728.309 6  23292652.752       -1139.309
 -27472857.777 8 -13607714.885 9  21200697.494        -590.623
  -6848273.277 6  -5337937.938 5  23799854.397       -1136.664
   -512478.010 6   -407604.106 5  24273928.781        3583.594
 -11172398.677 7  -8733871.262 7  22478320.585       -2391.527
  -1515238.843 8 -11780027.108 9  21150891.162        -476.633
 93  5  8  4 39 30.0010000  0  7 20 26  3 22 16 23 17                0.001479800
  11598327.730 5   8933346.564 5  24151642.520        3893.107
  -5019484.811 6  -4528191.258 6  23286191.439       -1124.707
 -27490424.578 8 -13621403.281 9  21197354.567        -580.663
  -6882122.508 6  -5364313.942 5  23793413.004       -1120.177
   -404879.932 6   -323761.458 5  24294402.564        3589.761
 -11243968.237 7  -8789639.692 7  22464700.961       -2379.718
  -1529400.596 8 -11791062.216 9  21148195.990        -467.588
 93  5  8  4 40  0.0010000  0  7 20 26  3 22 16 23 17                0.001485720
  11715146.435 5   9024374.101 5  24173871.860        3894.845
  -5053013.973 6  -4554317.837 6  23279810.362       -1110.273
 -27507696.062 8 -13634861.562 9  21194067.683        -570.863
  -6915490.617 6  -5390315.049 5  23787063.805       -1104.236
   -297104.503 6   -239780.595 5  24314910.780        3595.202
 -11315183.216 7  -8845131.831 7  22451149.152       -2367.915
  -1543302.640 8 -11801894.951 9  21145550.280        -459.012
 93  5  8  4 40 30.0010000  0  7 20 26  3 22 16 23 17                0.001491640
  11832017.177 5   9115442.188 5  24196111.741        3896.516
  -5086095.332 6  -4580095.504 6  23273514.641       -1095.152
 -27524668.685 8 -13648086.970 9  21190837.796        -560.811
  -6948380.690 6  -5415943.657 5  23780804.631       -1088.335
   -189179.687 6   -155683.367 5  24335448.477        3599.932
 -11386052.978 7  -8900354.963 7  22437663.253       -2356.742
  -1556942.117 8 -11812523.091 9  21142954.726        -450.322
 93  5  8  4 41  0.0010000  0  7 20 26  3 22 16 23 17                0.001497530
  11948937.398 5   9206548.829 5  24218360.275        3898.199
  -5118719.709 6  -4605517.033 6  23267306.197       -1079.721
 -27541340.425 8 -13661077.900 9  21187665.365        -550.721
  -6980810.324 6  -5441213.458 5  23774633.771       -1073.568
    -81107.024 6    -71470.856 5  24356015.260        3604.984
 -11456597.314 7  -8955324.506 8  22424238.753       -2346.114
  -1570328.457 8 -11822953.969 9  21140407.263        -441.857
 93  5  8  4 41 30.0010000  0  7 20 26  3 22 16 23 17                0.001503400
  12065903.093 5   9297690.890 5  24240619.658        3899.590
  -5150893.077 6  -4630587.153 6  23261183.607       -1065.231
 -27557709.795 8 -13673833.250 9  21184550.559        -540.761
  -7012797.572 6  -5466138.572 5  23768546.817       -1058.571
     27104.095 6     12849.480 5  24376607.383        3609.021
 -11526830.604 7  -9010051.693 8  22410874.086       -2336.033
  -1583457.157 8 -11833184.102 9  21137908.900        -433.417
 93  5  8  4 42  0.0010000  0  7 20 26  3 22 16 23 17                0.001509240
  12182914.603 5   9388868.683 5  24262886.879        3901.079
  -5182631.572 6  -4655318.404 6  23255143.690       -1050.728
 -27573772.663 8 -13686349.741 9  21181494.067        -530.472
  -7044307.087 6  -5490691.411 5  23762550.917       -1041.964
    135433.785 6     97262.231 5  24397221.661        3612.746
 -11596752.261 7  -9064536.027 8  22397568.407       -2325.622
  -1596329.607 8 -11843214.547 9  21135459.076        -424.750
 93  5  8  4 42 30.0010000  0  7 20 26  3 22 16 23 17                0.001515070
  12299968.230 5   9480079.301 5  24285160.213        3902.496
  -5213937.194 6  -4679712.334 6  23249186.272       -1036.209
 -27589527.107 8 -13698625.914 9  21178496.132        -520.022
  -7075310.592 6  -5514849.933 5  23756650.995       -1024.900
    243877.732 5    181763.986 5  24417859.765        3617.075
 -11666368.324 7  -9118782.236 8  22384320.919       -2315.357
  -1608941.579 8 -11853042.024 9  21133059.298        -415.971
 93  5  8  4 43  0.0010000  0  7 20 26  3 22 16 23 17                0.001520900
  12417064.139 5   9571322.826 5  24307442.374        3903.794
  -5244801.099 6  -4703762.092 6  23243313.117       -1021.355
 -27604968.427 8 -13710658.076 9  21175557.538        -509.722
  -7105801.943 6  -5538609.389 6  23750848.077       -1007.668
    352458.146 5    266372.138 5  24438521.488        3621.583
 -11735670.386 7  -9172783.757 8  22371133.058       -2304.693
  -1621291.075 8 -11862664.977 9  21130709.395        -407.306
 93  5  8  4 43 30.0010000  0  7 20 26  3 22 16 23 17                0.001526730
  12534192.564 5   9662591.703 5  24329732.086        3904.820
  -5275224.006 6  -4727468.238 6  23237524.449       -1006.839
 -27620101.464 8 -13722450.030 9  21172677.630        -499.375
  -7135756.159 6  -5561950.294 6  23745148.119        -989.159
    461169.659 6    351082.362 5  24459207.378        3625.990
 -11804642.077 7  -9226527.862 8  22358008.025       -2293.250
  -1633380.900 8 -11872085.593 9  21128408.596        -398.767
 93  5  8  4 44  0.0010000  0  7 20 26  3 22 16 23 17                0.001532580
  12651356.502 6   9753888.298 5  24352027.172        3906.146
  -5305211.324 6  -4750834.920 6  23231817.745        -991.998
 -27634918.532 8 -13733995.787 9  21169857.632        -488.656
  -7165152.573 6  -5584856.558 6  23739553.817        -970.768
    570028.443 6    435907.379 5  24479922.731        3631.164
 -11873255.296 7  -9279992.644 8  22344951.491       -2280.973
  -1645219.340 8 -11881310.335 9  21126155.957        -390.370
 93  5  8  4 44 30.0010000  0  7 20 26  3 22 16 23 17                0.001538450
  12768557.227 6   9845213.527 5  24374330.015        3907.231
  -5334743.241 6  -4773846.774 6  23226198.395        -976.813
 -27649413.847 8 -13745290.810 9  21167099.232        -477.965
  -7194016.783 6  -5607348.108 6  23734060.601        -953.574
    679039.662 5    520851.201 5  24500665.693        3636.275
 -11941497.955 7  -9333168.680 8  22331965.293       -2268.491
  -1656802.453 8 -11890336.105 9  21123951.794        -381.966
 93  5  8  4 45  0.0010000  0  7 20 26  3 22 16 23 17                0.001544310
  12885781.465 6   9936557.075 5  24396635.925        3907.783
  -5363827.150 6  -4796509.521 6  23220664.240        -962.129
 -27663595.167 8 -13756341.179 9  21164400.091        -467.617
  -7222374.253 6  -5629444.787 6  23728664.627        -936.834
    788198.498 5    605910.039 5  24521437.113        3641.121
 -12009363.955 7  -9386051.227 8  22319050.805       -2255.707
  -1668147.324 8 -11899176.237 9  21121792.876        -374.322
 93  5  8  4 45 30.0010000  0  7 20 26  3 22 16 23 17                0.001550180
  13003023.427 6  10027914.432 5  24418946.564        3908.271
  -5392477.974 6  -4818834.808 6  23215212.724        -947.943
 -27677463.571 8 -13767147.694 9  21161761.297        -457.238
  -7250233.077 6  -5651152.928 6  23723363.569        -920.633
    897503.127 5    691082.442 5  24542238.062        3645.717
 -12076849.118 7  -9438637.005 8  22306208.760       -2243.490
  -1679263.944 8 -11907838.510 9  21119677.499        -366.904
 93  5  8  4 46  0.0010000  0  7 20 26  3 22 16 23 17                0.001556040
  13120279.592 5  10119282.852 5  24441260.398        3908.716
  -5420695.206 6  -4840822.201 6  23209842.498        -933.056
 -27691017.999 8 -13777709.568 9  21159182.073        -446.679
  -7277618.980 6  -5672492.557 6  23718152.212        -905.177
   1006943.872 5    776360.944 5  24563063.268        3650.105
 -12143976.568 7  -9490944.052 8  22293434.786       -2231.846
  -1690157.191 8 -11916326.733 9  21117604.454        -359.261
 93  5  8  4 46 30.0010000  0  7 20 26  3 22 16 23 17                0.001561880
  13237549.866 5  10210662.273 5  24463576.576        3909.299
  -5448465.234 6  -4862461.165 6  23204557.726        -918.380
 -27704253.661 8 -13788023.048 9  21156663.507        -435.901
  -7304538.331 6  -5693468.632 6  23713029.774        -889.170
   1116513.918 5    861740.185 5  24583912.146        3654.748
 -12210757.467 7  -9542981.072 8  22280726.564       -2220.073
  -1700815.374 8 -11924631.791 9  21115576.351        -351.392
 93  5  8  4 47  0.0010000  0  7 20 26  3 22 16 23 17                0.001567720
  13354831.782 5  10302050.806 5  24485894.386        3909.557
  -5475802.295 6  -4883762.732 6  23199355.477        -904.046
 -27717168.464 8 -13798086.508 9  21154205.930        -425.238
  -7330966.770 6  -5714062.164 6  23708000.438        -872.622
   1226221.565 5    947226.646 5  24604788.152        3659.088
 -12277188.227 7  -9594745.242 8  22268085.269       -2208.611
  -1711245.526 8 -11932759.161 9  21113591.565        -343.749
 93  5  8  4 47 30.0010000  0  7 20 26  3 22 16 23 17                0.001573560
  13472125.978 5  10393448.870 5  24508216.652        3909.929
  -5502707.528 6  -4904727.785 6  23194234.734        -889.582
 -27729756.259 8 -13807895.154 9  21151810.477        -414.244
  -7356895.861 6  -5734266.627 6  23703066.482        -855.862
   1336057.069 6   1032812.767 5  24625690.729        3663.152
 -12343278.787 7  -9646244.309 8  22255508.541       -2197.428
  -1721429.698 8 -11940694.855 9  21111653.496        -335.293
 93  5  8  4 48  0.0010000  0  7 20 26  3 22 16 23 17                0.001579390
  13589427.842 5  10484852.870 5  24530537.873        3910.165
  -5529176.328 6  -4925352.763 6  23189198.244        -874.978
 -27742017.177 8 -13817449.097 9  21149476.942        -403.355
  -7382317.471 6  -5754075.632 6  23698228.518        -838.792
   1446005.056 6   1118486.547 5  24646614.614        3666.872
 -12409030.144 7  -9697479.085 8  22242996.353       -2185.746
  -1731367.400 8 -11948438.489 9  21109762.615        -327.086
 93  5  8  4 48 30.0010000  0  7 20 26  3 22 16 23 17                0.001585230
  13706738.956 5  10576264.102 5  24552860.315        3910.613
  -5555203.713 6  -4945633.812 6  23184245.667        -860.121
 -27753944.942 8 -13826743.444 9  21147207.421        -392.005
  -7407212.292 6  -5773474.134 6  23693490.996        -820.850
   1556079.418 5   1204258.752 5  24667561.840        3671.405
 -12474421.274 7  -9748433.144 8  22230552.979       -2173.565
  -1741051.475 8 -11955984.489 9  21107919.602        -318.461
 93  5  8  4 49  0.0010000  0  7 20 26  3 22 16 23 17                0.001591070
  13824052.942 5  10667677.601 5  24575184.476        3910.539
  -5580784.218 6  -4965566.594 6  23179377.530        -844.903
 -27765541.133 8 -13835779.413 9  21145000.510        -381.026
  -7431573.384 6  -5792456.747 6  23688855.694        -803.146
   1666272.253 5   1290123.295 5  24688529.875        3674.996
 -12539454.612 7  -9799108.422 8  22218177.565       -2161.802
  -1750480.235 8 -11963331.552 9  21106125.244        -309.909
 93  5  8  4 49 30.0010000  0  7 20 26  3 22 16 23 17                0.001596900
  13941366.593 5  10759090.824 5  24597506.795        3910.402
  -5605897.855 6  -4985135.634 6  23174598.916        -829.179
 -27776804.708 8 -13844556.212 9  21142857.255        -370.097
  -7455407.411 6  -5811028.707 6  23684320.541        -785.528
   1776569.654 6   1376069.337 5  24709519.335        3678.300
 -12604130.174 7  -9849504.901 8  22205869.936       -2149.837
  -1759657.900 8 -11970482.924 9  21104378.833        -302.143
 93  5  8  4 50  0.0010000  0  7 20 26  3 22 16 23 17                0.001602750
  14058679.282 5  10850503.267 5  24619832.463        3910.773
  -5630526.996 6  -5004327.148 6  23169911.702        -812.480
 -27787731.126 8 -13853070.291 9  21140778.303        -358.277
  -7478698.109 6  -5829177.269 6  23679888.040        -766.889
   1886979.403 5   1462102.879 5  24730529.035        3682.584
 -12668432.550 7  -9899610.599 8  22193634.009       -2136.774
  -1768601.499 8 -11977451.941 9  21102677.161        -293.671
 93  5  8  4 50 30.0010000  0  7 20 26  3 22 16 23 17                0.001608600
  14175993.320 5  10941916.804 5  24642157.197        3910.319
  -5654665.765 6  -5023136.478 6  23165317.232        -796.579
 -27798313.282 8 -13861316.101 9  21138764.809        -347.238
  -7501441.948 6  -5846899.688 6  23675559.612        -749.302
   1997499.995 6   1548222.836 5  24751559.729        3685.386
 -12732363.184 7  -9949426.614 8  22181468.101       -2125.198
  -1777300.609 8 -11984230.434 9  21101021.935        -286.142
 93  5  8  4 51  0.0010000  0  7 20 26  3 22 16 23 17                0.001614450
  14293297.234 5  11033322.425 5  24664479.165        3909.978
  -5678318.242 6  -5041566.919 6  23160816.626        -780.235
 -27808557.878 8 -13869298.874 9  21136815.257        -335.964
  -7523662.707 6  -5864214.514 6  23671330.931        -732.056
   2108101.862 6   1634406.175 5  24772607.207        3688.204
 -12795941.490 7  -9998968.084 8  22169368.956       -2113.272
  -1785772.046 8 -11990831.523 9  21099409.701        -278.790
 93  5  8  4 51 30.0010000  0  7 20 26  3 22 16 23 17                0.001620300
  14410589.557 5  11124719.050 5  24686798.760        3909.488
  -5701480.974 6  -5059615.793 6  23156409.021        -764.030
 -27818461.222 8 -13877015.763 9  21134930.473        -324.534
  -7545364.366 6  -5881124.859 6  23667201.244        -714.768
   2218794.428 5   1720660.110 5  24793671.270        3691.358
 -12859160.651 7 -10048229.723 8  22157338.925       -2101.402
  -1794031.185 8 -11997267.200 9  21097837.941        -271.792
 93  5  8  4 52  0.0010000  0  7 20 26  3 22 16 23 17                0.001626150
  14527868.102 5  11216104.938 5  24709116.460        3908.990
  -5724157.656 6  -5077285.880 6  23152094.879        -747.814
 -27828021.209 8 -13884465.088 9  21133111.451        -313.119
  -7566549.694 6  -5897632.884 6  23663170.204        -697.878
   2329583.719 5   1806989.421 5  24814753.573        3694.385
 -12922024.951 7 -10097214.842 8  22145376.355       -2089.689
  -1802066.900 8 -12003528.764 9  21096308.937        -263.954
 93  5  8  4 52 30.0010000  0  7 20 26  3 22 16 23 17                0.001631970
  14645126.233 5  11307474.900 5  24731428.844        3908.484
  -5746346.071 6  -5094575.501 6  23147871.877        -731.081
 -27837239.598 8 -13891648.241 9  21131357.056        -301.405
  -7587239.423 6  -5913754.723 6  23659233.191        -681.134
   2440456.958 5   1893384.171 5  24835851.064        3697.555
 -12984545.257 7 -10145931.913 8  22133479.292       -2078.000
  -1809874.231 8 -12009612.367 9  21094823.437        -256.266
 93  5  8  4 53  0.0010000  0  7 20 26  3 22 16 23 17                0.001637810
  14762364.774 5  11398829.602 5  24753738.122        3907.417
  -5768035.211 6  -5111476.086 6  23143745.203        -715.026
 -27846111.221 8 -13898561.175 9  21129668.934        -290.251
  -7607423.742 6  -5929482.712 6  23655392.282        -664.350
   2551433.655 5   1979859.551 5  24856970.098        3700.989
 -13046703.771 7 -10194367.070 8  22121650.491       -2065.907
  -1817454.708 8 -12015519.212 9  21093380.694        -249.132
 93  5  8  4 53 30.0010000  0  7 20 26  3 22 16 23 17                0.001643630
  14879570.935 5  11490159.075 5  24776042.276        3906.647
  -5789244.253 6  -5128002.547 6  23139709.193        -698.674
 -27854643.951 8 -13905210.031 9  21128045.340        -278.532
  -7627096.317 6  -5944811.975 6  23651648.629        -646.809
   2662514.803 5   2066416.288 5  24878107.152        3704.643
 -13108496.210 7 -10242516.967 8  22109892.210       -2053.228
  -1824814.600 8 -12021254.172 9  21091980.046        -241.171
 93  5  8  4 54  0.0010000  0  7 20 26  3 22 16 23 17                0.001649470
  14996757.449 5  11581473.244 5  24798342.520        3905.943
  -5809965.004 6  -5144148.559 6  23135765.236        -682.582
 -27862820.525 8 -13911581.360 9  21126489.036        -266.617
  -7646243.016 6  -5959731.456 6  23648005.341        -629.481
   2773699.993 5   2153054.099 5  24899265.270        3707.642
 -13169901.181 7 -10290364.936 8  22098206.749       -2040.376
  -1831928.401 8 -12026797.376 9  21090626.782        -232.979
 93  5  8  4 54 30.0010000  0  8 20 26  3 21 22 16 23 17             0.001655270
  15113920.792 5  11672769.340 5  24820638.988        3904.851
  -5830211.182 6  -5159924.750 6  23131912.772        -667.346
 -27870639.701 8 -13917674.193 9  21125000.999        -254.931
  -2974838.35615   -162517.06311  25110942.491       -3114.937
  -7664870.291 6  -5974246.196 6  23644460.659        -612.316
   2884977.260 5   2239763.656 5  24920441.908        3710.646
 -13230922.659 7 -10337914.078 8  22086595.188       -2027.799
  -1838802.360 8 -12032153.694 9  21089318.598        -225.414
 93  5  8  4 55  0.0010000  0  8 20 26  3 21 22 16 23 17             0.001661100
  15231053.899 5  11764041.868 5  24842928.111        3904.145
  -5850003.700 6  -5175347.430 6  23128146.818        -651.953
 -27878103.352 8 -13923489.990 9  21123580.658        -242.852
  -3068213.742 5   -235277.389 1  25093173.649       -3110.148
  -7682979.077 6  -5988356.893 6  23641014.752        -594.971
   2996342.214 5   2326541.622 5  24941634.203        3713.517
 -13291556.554 7 -10385161.209 8  22075056.617       -2014.503
  -1845442.509 8 -12037327.788 9  21088054.956        -217.211
 93  5  8  4 55 30.0010000  0  8 20 26  3 21 22 16 23 17             0.001666930
  15348151.054 5  11855286.401 5  24865212.289        3902.614
  -5869333.996 6  -5190409.989 6  23124468.511        -636.435
 -27885213.269 8 -13929030.174 9  21122227.578        -231.171
  -3161463.008 5   -307938.995 3  25075428.395       -3106.348
  -7700584.490 6  -6002075.390 6  23637664.215        -578.464
   3107774.735 5   2413372.059 5  24962839.826        3715.325
 -13351807.647 7 -10432110.079 8  22063591.224       -2002.048
  -1851840.695 8 -12042313.367 9  21086837.287        -209.118
 93  5  8  4 56  0.0010000  0  8 20 26  3 21 22 16 23 17             0.001672740
  15465211.422 5  11946502.262 5  24887486.125        3901.339
  -5888186.656 6  -5205100.320 6  23120880.763        -620.394
 -27891964.949 8 -13934291.201 9  21120942.533        -219.200
  -3254602.105 5   -380514.785 4  25057706.139       -3102.925
  -7717682.856 6  -6015398.755 6  23634410.570        -561.518
   3219264.794 5   2500247.484 5  24984055.658        3717.162
 -13411679.372 7 -10478763.306 8  22052198.351       -1989.541
  -1857987.660 8 -12047103.181 9  21085667.837        -200.660
 93  5  8  4 56 30.0010000  0  8 20 26  3 21 22 16 23 17             0.001678520
  15582231.884 5  12037687.038 5  24909754.362        3899.966
  -5906550.195 6  -5219409.520 6  23117385.584        -603.740
 -27898357.212 8 -13939272.160 9  21119726.919        -207.196
  -3347642.197 5   -453013.426 5  25039998.811       -3099.731
  -7734268.231 6  -6028322.437 6  23631254.256        -544.076
   3330812.004 5   2587167.439 5  25005282.628        3719.394
 -13471173.269 7 -10525122.131 9  22040876.409       -1976.635
  -1863876.593 8 -12051691.924 9  21084546.472        -192.061
 93  5  8  4 57  0.0010000  0  8 20 26  3 21 22 16 23 17             0.001684300
  15699205.915 5  12128835.586 5  24932014.118        3898.248
  -5924406.789 6  -5233323.681 6  23113987.203        -586.806
 -27904391.915 8 -13943974.517 9  21118578.091        -195.405
  -3440593.775 5   -525443.062 5  25022311.819       -3097.107
  -7750328.088 6  -6040836.564 6  23628198.070        -526.571
   3442421.195 5   2674135.595 5  25026520.522        3721.313
 -13530278.020 7 -10571177.740 9  22029628.818       -1963.795
  -1869510.174 8 -12056081.697 9  21083474.864        -183.532
 93  5  8  4 57 30.0010000  0  8 20 26  3 21 22 16 23 17             0.001690060
  15816137.254 5  12219950.898 5  24954264.063        3896.783
  -5941748.201 6  -5246836.433 6  23110686.747        -569.877
 -27910060.830 8 -13948391.838 9  21117499.060        -183.106
  -3533460.600 5   -597806.658 5  25004639.367       -3094.195
  -7765844.994 6  -6052927.649 5  23625245.316        -508.157
   3554109.416 5   2761165.403 5  25047772.751        3724.087
 -13588996.071 7 -10616931.998 9  22018455.499       -1951.169
  -1874877.133 8 -12060263.716 9  21082453.971        -174.726
 93  5  8  4 58  0.0010000  0  8 20 26  3 21 22 16 23 17             0.001695820
  15933023.163 5  12311030.837 5  24976506.925        3895.278
  -5958597.846 6  -5259965.981 6  23107481.369        -553.595
 -27915361.823 8 -13952522.470 9  21116490.538        -170.745
  -3626234.541 5   -670097.945 5  24986984.942       -3090.807
  -7780805.639 6  -6064585.262 5  23622398.040        -489.572
   3665875.545 5   2848255.937 5  25069040.565        3726.637
 -13647340.334 7 -10662395.025 9  22007352.727       -1938.749
  -1879988.910 8 -12064246.890 9  21081480.975        -166.360
 93  5  8  4 58 30.0010000  0  8 20 26  3 21 22 16 23 17             0.001701580
  16049857.019 5  12402070.184 5  24998740.611        3893.310
  -5974962.294 6  -5272717.471 6  23104367.745        -537.820
 -27920297.486 8 -13956368.462 9  21115551.686        -158.875
  -3718905.982 5   -742309.316 5  24969349.089       -3087.453
  -7795219.079 6  -6075816.474 6  23619655.590        -471.622
   3777718.995 5   2935406.689 5  25090323.650        3729.195
 -13705323.877 7 -10707576.948 9  21996319.015       -1927.103
  -1884860.757 8 -12068043.072 9  21080553.596        -158.923
 93  5  8  4 59  0.0010000  0  8 20 26  3 21 22 16 23 17             0.001707360
  16166629.154 5  12493061.440 5  25020960.632        3891.729
  -5990851.385 6  -5285098.539 6  23101344.337        -521.502
 -27924872.364 8 -13959933.250 9  21114681.269        -146.283
  -3811462.635 5   -814431.237 5  24951736.243       -3082.779
  -7809091.853 6  -6086626.389 6  23617015.583        -453.202
   3889637.939 5   3022616.240 5  25111622.234        3732.063
 -13762959.411 7 -10752487.716 9  21985351.279       -1915.203
  -1889507.910 8 -12071664.242 9  21079669.448        -150.732
 93  5  8  4 59 30.0010000  0  8 20 26  3 21 22 16 23 17             0.001713140
  16283347.043 5  12584010.412 5  25043171.577        3889.504
  -6006256.446 6  -5297102.413 6  23098412.684        -505.338
 -27929074.541 8 -13963207.656 9  21113881.495        -134.070
  -3903876.240 5   -886441.701 5  24934150.107       -3077.917
  -7822420.414 6  -6097012.255 6  23614479.088        -435.393
   4001625.763 5   3109879.530 5  25132932.164        3733.745
 -13820244.424 7 -10797125.339 9  21974450.583       -1903.740
  -1893920.644 8 -12075102.699 9  21078830.050        -143.508
 93  5  8  5  0  0.0010000  0  8 20 26  3 21 22 16 23 17             0.001718920
  16400004.775 5  12674912.524 5  25065371.137        3887.702
  -6021159.257 6  -5308714.951 6  23095576.804        -488.005
 -27932905.162 8 -13966192.554 9  21113152.160        -121.462
  -3996135.947 5   -958332.275 5  24916593.670       -3072.655
  -7835215.575 6  -6106982.505 6  23612044.901        -417.689
   4113661.040 5   3197179.773 5  25154251.594        3735.405
 -13877169.973 7 -10841482.862 9  21963617.355       -1891.183
  -1898113.647 8 -12078369.958 9  21078032.292        -135.985
 93  5  8  5  0 30.0010000  0  8 20 26  3 21 22 16 23 17             0.001724710
  16516606.500 5  12765771.002 5  25087559.112        3885.707
  -6035535.908 6  -5319917.505 6  23092840.389        -470.576
 -27936355.655 8 -13968881.227 9  21112495.752        -108.818
  -4088236.265 5  -1030098.642 5  24899067.682       -3067.641
  -7847479.611 6  -6116538.872 6  23609710.799        -399.973
   4225754.321 5   3284525.196 5  25175583.423        3737.482
 -13933711.752 7 -10885541.339 9  21952858.222       -1878.196
  -1902083.012 8 -12081462.945 9  21077276.857        -128.644
 93  5  8  5  1  0.0010000  0  8 20 26  3 21 22 16 23 17             0.001730500
  16633147.200 5  12856581.871 5  25109737.651        3883.639
  -6049390.598 6  -5330713.331 6  23090204.323        -453.104
 -27939426.337 8 -13971273.954 9  21111911.680         -96.096
  -4180193.095 5  -1101753.228 5  24881569.635       -3063.101
  -7859213.127 6  -6125681.836 6  23607477.935        -382.314
   4337904.340 5   3371914.839 5  25196925.446        3739.198
 -13989859.803 7 -10929293.019 9  21942173.559       -1864.953
  -1905832.879 8 -12084384.905 9  21076563.170        -121.296
 93  5  8  5  1 30.0010000  0  8 20 26  3 21 22 16 23 17             0.001736280
  16749623.501 5  12947342.610 5  25131902.940        3881.454
  -6062729.213 6  -5341106.995 6  23087666.243        -436.070
 -27942116.368 8 -13973370.066 9  21111399.379         -83.443
  -4272023.547 5  -1173309.329 5  24864094.728       -3058.880
  -7870423.588 6  -6134417.234 6  23605344.119        -365.074
   4450108.183 5   3459346.441 5  25218277.022        3741.230
 -14045613.213 7 -10972737.182 9  21931563.624       -1851.944
  -1909373.465 8 -12087143.772 9  21075889.266        -114.695
 93  5  8  5  2  0.0010000  0  8 20 26  3 21 22 16 23 17             0.001742060
  16866034.248 5  13038052.265 5  25154053.234        3879.156
  -6075558.866 6  -5351104.067 6  23085224.144        -419.485
 -27944422.206 8 -13975166.804 9  21110960.669         -70.665
  -4363728.411 5  -1244767.557 5  24846643.438       -3054.917
  -7881117.278 6  -6142749.941 6  23603309.758        -347.876
   4562384.079 5   3546834.158 5  25239642.469        3743.698
 -14100972.534 7 -11015874.269 9  21921028.946       -1838.838
  -1912704.742 8 -12089739.564 9  21075255.382        -107.372
 93  5  8  5  2 30.0010000  0  7 20 26  3 21 22 23 17                0.001747900
  16982374.166 5  13128706.692 5  25176192.576        3876.812
  -6087899.723 6  -5360720.266 6  23082875.550        -403.209
 -27946344.606 8 -13976664.758 9  21110595.230         -57.708
  -4455320.678 5  -1316138.045 5  24829213.936       -3051.135
  -7891293.128 6  -6150679.162 6  23601373.718        -330.522
 -14155946.014 7 -11058710.687 9  21910568.159       -1826.082
  -1915808.254 8 -12092157.857 9  21074664.560         -99.487
 93  5  8  5  3  0.0010000  0  7 20 26  3 21 22 23 17                0.001753680
  17098638.998 5  13219302.703 5  25198318.467        3874.207
  -6099755.907 6  -5369958.830 6  23080618.680        -387.078
 -27947883.663 8 -13977864.019 9  21110302.291         -45.016
  -4546791.435 5  -1387413.897 5  24811806.630       -3046.875
  -7900956.825 6  -6158209.274 6  23599534.479        -313.591
 -14210544.069 7 -11101254.593 9  21900178.112       -1813.633
  -1918673.469 8 -12094390.476 9  21074119.381         -91.396
 93  5  8  5  3 30.0010000  0  7 20 26  3 21 22 23 17                0.001759450
  17214823.073 5  13309835.690 5  25220426.519        3871.292
  -6111126.045 6  -5378818.635 6  23078455.312        -370.880
 -27949039.834 8 -13978764.921 9  21110082.203         -32.351
  -4638131.591 5  -1458587.937 5  24794426.289       -3042.553
  -7910103.722 6  -6165336.708 6  23597793.805        -296.195
 -14264762.057 7 -11143502.311 9  21889860.964       -1800.896
  -1921292.021 8 -12096430.893 9  21073620.956         -83.107
 93  5  8  5  4  0.0010000  0  7 20 26  3 21 22 23 17                0.001765210
  17330926.729 5  13400306.029 5  25242520.482        3868.874
  -6121996.452 6  -5387289.032 6  23076386.402        -353.895
 -27949809.122 8 -13979364.350 9  21109935.825         -19.194
  -4729341.209 5  -1529660.248 5  24777070.431       -3038.105
  -7918712.724 6  -6172044.996 6  23596155.838        -277.715
 -14318583.390 7 -11185440.980 9  21879618.906       -1787.185
  -1923637.785 8 -12098258.730 9  21073174.765         -73.321
 93  5  8  5  4 30.0010000  0  7 20 26  3 21 22 23 17                0.001770950
  17446946.285 5  13490710.851 5  25264597.181        3865.869
  -6132363.606 6  -5395367.306 6  23074414.013        -336.993
 -27950190.366 8 -13979661.401 9  21109862.977          -6.250
  -4820425.697 5  -1600635.097 5  24759737.247       -3033.901
  -7926774.759 6  -6178327.074 6  23594621.757        -259.644
 -14371998.966 7 -11227063.441 9  21869454.042       -1773.601
  -1925705.511 8 -12099869.923 9  21072780.845         -64.506
 93  5  8  5  5  0.0010000  0  7 20 26  3 21 22 23 17                0.001776680
  17562877.714 5  13581046.986 5  25286659.602        3862.850
  -6142216.999 6  -5403045.256 6  23072537.980        -319.813
 -27950183.249 8 -13979655.860 9  21109864.316           6.598
  -4911376.241 5  -1671505.522 5  24742428.170       -3029.460
  -7934295.080 6  -6184187.063 6  23593190.880        -241.552
 -14425002.564 7 -11268364.877 9  21859367.844       -1759.924
  -1927519.448 8 -12101283.367 9  21072435.874         -56.344
 93  5  8  5  5 30.0010000  0  7 20 26  3 21 22 23 17                0.001782420
  17678723.183 5  13671316.144 5  25308702.087        3859.820
  -6151540.263 6  -5410310.081 6  23070765.317        -301.979
 -27949780.973 8 -13979342.386 9  21109940.721          19.775
  -5002196.537 5  -1742274.523 5  24725145.050       -3025.208
  -7941264.404 6  -6189617.680 6  23591864.832        -223.363
 -14477591.883 7 -11309343.546 9  21849360.601       -1746.266
  -1929088.501 8 -12102505.985 9  21072137.364         -48.405
 93  5  8  5  6  0.0010000  0  6 26  3 21 22 23 17                   0.001788120
  -6160331.328 6  -5417160.208 6  23069092.029        -284.181
 -27948982.411 8 -13978720.118 9  21110092.796          33.185
  -5092882.481 5  -1812938.806 5  24707887.931       -3020.381
  -7947698.401 6  -6194631.178 6  23590640.190        -205.671
 -14529780.798 7 -11350010.190 9  21839429.357       -1733.093
  -1930417.813 8 -12103541.799 9  21071884.208         -40.419
 93  5  8  5  6 30.0010000  0  6 26  3 21 22 23 17                   0.001793840
  -6168583.288 6  -5423590.277 6  23067521.209        -266.078
 -27947783.751 8 -13977786.088 9  21110320.699          46.365
  -5183412.797 5  -1883481.850 5  24690661.003       -3015.216
  -7953610.959 6  -6199238.343 6  23589514.910        -188.466
 -14581578.810 7 -11390372.230 9  21829572.491       -1720.357
  -1931523.331 8 -12104403.227 9  21071673.984         -33.487
 93  5  8  5  7  0.0010000  0  6 26  3 21 22 23 17                   0.001799590
  -6176288.856 6  -5429594.578 6  23066055.506        -247.663
 -27946189.083 8 -13976543.475 9  21110624.040          59.688
  -5273787.666 5  -1953903.730 5  24673463.546       -3009.848
  -7959003.262 6  -6203440.129 6  23588488.548        -170.843
 -14633003.077 7 -11430443.057 9  21819786.807       -1707.998
  -1932418.273 8 -12105100.568 9  21071503.284         -26.071
 93  5  8  5  7 30.0010000  0  6 26  3 21 22 23 17                   0.001805370
  -6183447.846 6  -5435172.963 6  23064693.728        -229.771
 -27944192.236 8 -13974987.477 9  21111004.057          73.077
  -5364001.339 5  -2024200.026 5  24656295.766       -3004.407
  -7963863.481 6  -6207227.291 6  23587563.750        -153.249
 -14684050.692 7 -11470220.362 9  21810072.791       -1695.142
  -1933086.721 8 -12105621.417 1  21071375.989         -18.532
 93  5  8  5  8  0.0010000  0  6 26  3 21 22 23 17                   0.001811160
  -6190079.222 6  -5440340.224 6  23063431.466        -212.076
 -27941796.716 8 -13973120.844 9  21111460.031          86.632
  -5454051.406 5  -2094368.833 5  24639159.848       -2998.808
  -7968198.687 6  -6210605.363 6  23586738.954        -135.466
 -14734712.123 7 -11509696.761 9  21800431.905       -1682.048
  -1933527.176 8 -12105964.617 1  21071292.437         -10.738
 93  5  8  5  8 30.0010000  0  6 26  3 21 22 23 17                   0.001816960
  -6196175.663 6  -5445090.664 6  23062271.562        -194.438
 -27938991.114 8 -13970934.634 9  21111993.991         100.186
  -5543933.304 5  -2164406.584 5  24622055.977       -2993.539
  -7971993.163 6  -6213562.085 6  23586016.537        -117.540
 -14784967.787 7 -11548856.969 9  21790868.847       -1668.326
  -1933732.951 8 -12106124.944 2  21071253.345          -3.104
 93  5  8  5  9  0.0010000  0  6 26  3 21 22 23 17                   0.001822750
  -6201751.171 6  -5449435.163 6  23061210.064        -177.375
 -27935779.234 8 -13968431.850 9  21112605.287         113.592
  -5633657.288 5  -2234321.351 5  24604982.196       -2988.278
  -7975253.422 6  -6216102.530 6  23585396.187         -99.996
 -14834813.118 7 -11587697.441 9  21781383.850       -1654.704
  -1933708.968 8 -12106106.239 2  21071257.603           4.634
 93  5  8  5  9 30.0010000  0  6 26  3 21 22 23 17                   0.001828530
  -6206812.564 6  -5453379.074 6  23060246.506        -160.067
 -27932158.856 8 -13965610.762 9  21113294.101         127.512
  -5723219.282 5  -2304109.831 5  24587940.153       -2982.570
  -7977992.094 6  -6218236.563 6  23584875.143         -82.699
 -14884237.241 7 -11626209.694 9  21771978.804       -1640.376
  -1933455.492 8 -12105908.710 2  21071306.050          12.177
 93  5  8  5 10  0.0010000  0  6 26  3 21 22 23 17                   0.001834290
  -6211356.918 6  -5456920.113 6  23059382.170        -142.824
 -27928127.814 8 -13962469.693 9  21114061.270         140.966
  -5812614.809 5  -2373768.613 5  24570929.373       -2977.273
  -7980217.402 6  -6219970.557 6  23584451.259         -65.778
 -14933246.608 7 -11664398.775 9  21762652.058       -1627.089
  -1932981.702 8 -12105539.512 2  21071395.786          19.277
 93  5  8  5 10 30.0010000  0  6 26  3 21 22 23 17                   0.001840050
  -6215372.784 6  -5460049.315 6  23058617.663        -124.932
 -27923683.661 8 -13959006.695 9  21114906.743         155.000
  -5901840.091 5  -2443294.725 5  24553951.048       -2971.291
  -7981926.936 6  -6221302.630 6  23584126.410         -48.267
 -14981850.462 7 -11702271.841 9  21753402.832       -1613.290
  -1932291.252 8 -12105001.472 3  21071527.615          26.693
 93  5  8  5 11  0.0010000  0  6 26  3 21 22 23 17                   0.001845810
  -6218856.683 6  -5462764.017 6  23057954.644        -107.316
 -27918823.889 8 -13955219.844 9  21115831.356         168.785
  -5990893.078 5  -2512686.641 5  24537003.928       -2965.688
  -7983118.172 6  -6222230.846 6  23583900.012         -31.003
 -15030058.727 7 -11739836.687 9  21744229.343       -1600.490
  -1931379.696 8 -12104291.152 3  21071700.893          34.280
 93  5  8  5 11 30.0010000  0  6 26  3 21 22 23 17                   0.001851580
  -6221809.543 6  -5465064.896 6  23057392.093         -89.606
 -27913544.440 8 -13951105.979 9  21116835.827         182.887
  -6079784.601 5  -2581952.655 5  24520088.702       -2960.436
  -7983786.813 6  -6222751.860 6  23583773.056         -13.563
 -15077876.982 7 -11777097.635 9  21735129.732       -1587.281
  -1930238.802 8 -12103402.139 3  21071918.014          41.839
 93  5  8  5 12  0.0010000  0  6 26  3 21 22 23 17                   0.001857320
  -6224244.005 6  -5466961.844 6  23056929.074         -72.615
 -27907847.014 8 -13946666.413 9  21117920.250         196.809
  -6168524.284 5  -2651100.420 5  24503200.291       -2955.581
  -7983925.453 6  -6222859.863 6  23583746.467           4.326
 -15125297.595 7 -11814048.713 9  21726105.921       -1573.921
  -1928866.170 8 -12102332.545 2  21072179.373          49.838
 93  5  8  5 12 30.0010000  0  6 26  3 21 22 23 17                   0.001863050
  -6226170.532 6  -5468462.981 6  23056563.001         -55.785
 -27901731.401 8 -13941900.983 9  21119083.982         210.731
  -6257124.302 5  -2720139.332 5  24486340.208       -2951.116
  -7983526.016 6  -6222548.592 6  23583822.748          22.475
 -15172313.229 7 -11850684.229 9  21717158.995       -1560.318
  -1927248.475 8 -12101071.986 3  21072487.321          58.143
 93  5  8  5 13  0.0010000  0  6 26  3 21 22 23 17                   0.001868750
  -6227593.691 6  -5469571.936 6  23056291.868         -39.182
 -27895196.037 8 -13936808.489 9  21120327.464         224.673
  -6345593.155 5  -2789076.069 5  24469504.320       -2946.849
  -7982576.166 6  -6221808.434 6  23584003.958          40.841
 -15218919.621 7 -11887000.867 9  21708289.842       -1546.667
  -1925377.232 8 -12099613.862 2  21072843.275          66.539
 93  5  8  5 13 30.0010000  0  6 26  3 21 22 23 17                   0.001874420
  -6228510.373 6  -5470286.191 6  23056117.441         -21.934
 -27888240.506 8 -13931388.571 9  21121651.065         238.755
  -6433926.468 5  -2857907.156 5  24452695.502       -2941.916
  -7981078.357 6  -6220641.293 6  23584288.016          59.041
 -15265107.423 7 -11922991.295 9  21699500.691       -1532.570
  -1923261.289 8 -12097965.036 3  21073245.737          74.404
 93  5  8  5 14  0.0010000  0  6 26  3 21 22 23 17                   0.001880080
  -6228906.848 6  -5470595.109 6  23056042.643          -4.191
 -27880864.751 8 -13925641.219 9  21123054.835         252.889
  -6522103.176 5  -2926616.187 5  24435917.478       -2936.474
  -7979025.854 6  -6219041.915 6  23584678.598          77.896
 -15310879.557 7 -11958657.850 9  21690790.579       -1518.894
  -1920906.053 8 -12096129.765 3  21073693.804          82.741
 93  5  8  5 14 30.0010000  0  6 26  3 21 22 23 17                   0.001885760
  -6228753.123 6  -5470475.287 6  23056071.455          14.515
 -27873060.191 8 -13919559.739 9  21124539.978         267.100
  -6610113.096 5  -2995195.357 5  24419168.515       -2930.859
  -7976412.534 6  -6217005.553 6  23585175.984          96.302
 -15356247.221 7 -11994009.219 9  21682157.395       -1505.673
  -1918302.818 8 -12094101.250 4  21074189.200          90.617
 93  5  8  5 15  0.0010000  0  6 26  3 21 22 23 17                   0.001891450
  -6228039.089 6  -5469918.870 6  23056207.180          33.026
 -27864830.736 8 -13913147.157 9  21126105.780         281.281
  -6697956.606 5  -3063644.757 5  24402451.334       -2925.233
  -7973253.435 6  -6214543.900 6  23585777.165         114.192
 -15401217.768 7 -12029051.166 9  21673599.688       -1492.307
  -1915472.637 8 -12091895.900 3  21074727.569          97.953
 93  5  8  5 15 30.0010000  0  6 26  3 21 22 23 17                   0.001897170
  -6226764.902 6  -5468925.964 6  23056450.252          51.866
 -27856169.398 8 -13906398.055 9  21127754.188         295.874
  -6785622.568 5  -3131955.799 5  24385769.144       -2919.094
  -7969559.677 6  -6211665.620 6  23586479.481         132.073
 -15445778.548 7 -12063773.807 9  21665120.010       -1478.473
  -1912423.535 8 -12089519.932 3  21075307.988         105.302
 93  5  8  5 16  0.0010000  0  6 26  3 21 22 23 17                   0.001902890
  -6224943.179 6  -5467506.445 6  23056795.703          69.778
 -27847075.696 8 -13899312.037 9  21129484.873         310.258
  -6873115.156 5  -3200131.835 5  24369119.865       -2913.678
  -7965330.618 6  -6208370.233 6  23587284.292         149.815
 -15489929.139 7 -12098176.822 9  21656718.235       -1464.789
  -1909150.973 8 -12086969.861 2  21075931.015         112.922
 93  5  8  5 16 30.0010000  0  6 26  3 21 22 23 17                   0.001908610
  -6222585.797 6  -5465669.475 6  23057244.937          87.300
 -27837551.289 8 -13891890.401 9  21131297.447         324.523
  -6960445.440 5  -3268181.378 5  24352500.771       -2908.170
  -7960583.896 6  -6204671.495 6  23588187.541         166.755
 -15533667.273 7 -12132258.435 9  21648394.839       -1450.929
  -1905652.842 8 -12084244.026 3  21076596.804         120.383
 93  5  8  5 17  0.0010000  0  6 26  3 21 22 23 17                   0.001914300
  -6219700.871 6  -5463421.474 6  23057794.152         105.073
 -27827590.821 8 -13884128.977 9  21133192.745         339.342
  -7047593.975 5  -3336089.258 5  24335917.676       -2901.598
  -7955318.332 6  -6200568.436 6  23589189.861         184.390
 -15576975.171 7 -12166004.805 9  21640153.504       -1436.318
  -1901922.858 8 -12081337.521 2  21077306.513         128.414
 93  5  8  5 17 30.0010000  0  6 26  3 21 22 23 17                   0.001919990
  -6216278.474 6  -5460754.616 6  23058445.286         123.198
 -27817191.677 8 -13876025.735 9  21135171.665         353.693
  -7134542.259 5  -3403841.072 5  24319372.809       -2895.009
  -7949527.627 6  -6196056.194 6  23590291.590         201.652
 -15619858.971 7 -12199420.694 9  21631993.020       -1422.662
  -1897948.204 8 -12078240.365 2  21078062.609         136.683
 93  5  8  5 18  0.0010000  0  6 26  3 21 22 23 17                   0.001925680
  -6212306.389 6  -5457659.509 6  23059200.895         141.717
 -27806357.334 8 -13867583.382 9  21137233.288         368.282
  -7221285.879 5  -3471433.484 5  24302865.761       -2887.957
  -7943211.797 6  -6191134.767 6  23591493.658         219.296
 -15662332.867 7 -12232517.207 9  21623910.319       -1409.106
  -1893712.636 8 -12074939.926 2  21078868.835         145.597
 93  5  8  5 18 30.0010000  0  6 26  3 21 22 23 17                   0.001931380
  -6207774.308 6  -5454127.979 6  23060062.566         160.282
 -27795087.562 8 -13858801.725 9  21139377.822         382.733
  -7307818.618 5  -3538861.521 5  24286399.974       -2880.924
  -7936373.338 6  -6185806.096 6  23592795.041         236.657
 -15704401.461 7 -12265297.856 9  21615905.131       -1395.497
  -1889215.298 8 -12071435.471 3  21079724.659         154.132
 93  5  8  5 19  0.0010000  0  6 26  3 21 22 23 17                   0.001937110
  -6202673.849 6  -5450153.576 6  23061032.170         179.439
 -27783374.713 8 -13849674.816 9  21141606.789         397.692
  -7394131.716 5  -3606118.471 5  24269973.743       -2873.707
  -7929000.277 6  -6180060.833 6  23594198.766         254.602
 -15746054.387 7 -12297754.637 9  21607979.285       -1381.692
  -1884462.435 8 -12067731.930 2  21080629.083         162.509
 93  5  8  5 19 30.0010000  0  6 26  3 21 22 23 17                   0.001942860
  -6197016.721 6  -5445745.399 6  23062110.755         197.635
 -27771216.812 8 -13840201.115 9  21143920.439         412.688
  -7480242.445 5  -3673217.692 5  24253587.979       -2867.081
  -7921101.480 6  -6173905.912 6  23595700.664         272.001
 -15787296.633 7 -12329891.401 9  21600131.302       -1367.568
  -1879466.239 8 -12063838.759 2  21081579.616         170.518
 93  5  8  5 20  0.0010000  0  6 26  3 21 22 23 17                   0.001948590
  -6190824.377 6  -5440920.195 6  23063289.557         215.045
 -27758613.663 8 -13830380.457 9  21146318.708         427.279
  -7566164.384 5  -3740169.834 5  24237236.925       -2861.167
  -7912689.026 6  -6167350.742 6  23597301.837         288.729
 -15828107.142 7 -12361691.744 9  21592365.058       -1353.171
  -1874246.873 8 -12059771.717 2  21082572.996         177.207
 93  5  8  5 20 30.0010000  0  6 26  3 21 22 23 17                   0.001954290
  -6184112.953 6  -5435690.491 6  23064567.317         232.291
 -27745566.255 8 -13820213.632 9  21148801.570         442.269
  -7651907.730 5  -3806982.799 5  24220920.558       -2855.080
  -7903773.427 6  -6160403.521 6  23598998.123         305.584
 -15868489.232 7 -12393158.252 9  21584680.977       -1338.958
  -1868834.567 8 -12055554.298 2  21083602.715         183.453
 93  5  8  5 21  0.0010000  0  6 26  3 21 22 23 17                   0.001959950
  -6176886.141 6  -5430059.182 6  23065941.880         249.543
 -27732070.548 8 -13809697.484 9  21151369.674         457.240
  -7737474.958 5  -3873658.521 5  24204637.252       -2849.409
  -7894354.997 6  -6153064.469 6  23600790.084         322.313
 -15908447.170 7 -12424294.251 9  21577077.022       -1324.887
  -1863239.458 8 -12051194.472 2  21084667.278         189.726
 93  5  8  5 21 30.0010000  0  6 26  3 21 22 23 17                   0.001965590
  -6169143.911 6  -5424026.282 6  23067414.728         266.773
 -27718123.317 8 -13798829.506 9  21154023.344         472.252
  -7822868.268 5  -3940198.728 5  24188387.236       -2843.382
  -7884434.586 6  -6145334.249 6  23602677.725         339.143
 -15947981.697 7 -12455100.341 9  21569553.540       -1310.841
  -1857445.357 8 -12046679.571 2  21085769.414         196.436
 93  5  8  5 22  0.0010000  0  6 26  3 21 22 23 17                   0.001971220
  -6160867.091 6  -5417576.783 6  23068990.987         284.855
 -27703726.161 8 -13787610.930 9  21156762.921         487.160
  -7908077.803 5  -4006595.740 5  24172173.651       -2837.364
  -7873999.700 6  -6137203.189 6  23604663.255         356.528
 -15987107.295 7 -12485587.773 9  21562107.954       -1297.864
  -1851446.762 8 -12042005.328 2  21086910.845         203.374
 93  5  8  5 22 30.0010000  0  6 26  3 21 22 23 17                   0.001976860
  -6152042.314 6  -5410700.319 6  23070670.552         303.490
 -27688877.258 8 -13776040.354 9  21159588.582         502.471
  -7993096.940 5  -4072844.357 5  24155994.491       -2830.729
  -7863029.635 6  -6128655.064 6  23606751.563         374.797
 -16025848.302 7 -12515775.518 9  21554735.947       -1284.880
  -1845226.700 8 -12037158.509 2  21088094.834         211.331
 93  5  8  5 23  0.0010000  0  6 26  3 21 22 23 17                   0.001982540
  -6142649.197 6  -5403380.976 6  23072458.130         322.861
 -27673573.142 8 -13764115.035 9  21162501.137         517.726
  -8077924.981 5  -4138944.129 5  24139852.675       -2824.259
  -7851509.173 6  -6119678.061 6  23608943.800         393.388
 -16064195.998 7 -12545656.794 9  21547438.407       -1271.505
  -1838760.329 8 -12032119.758 1  21089325.262         219.972
 93  5  8  5 23 30.0010000  0  6 26  3 21 22 23 17                   0.001988260
  -6132674.622 6  -5395608.577 6  23074354.933         342.131
 -27657810.927 8 -13751832.784 9  21165500.228         532.819
  -8162553.973 5  -4204888.728 5  24123748.142       -2817.649
  -7839433.541 6  -6110268.441 6  23611241.627         411.715
 -16102146.591 7 -12575228.636 9  21540216.749       -1258.466
  -1832036.033 8 -12026880.024 1  21090604.719         228.258
 93  5  8  5 24  0.0010000  0  6 26  3 21 22 23 17                   0.001994010
  -6122116.996 6  -5387381.850 6  23076363.794         361.464
 -27641592.510 8 -13739195.048 9  21168586.421         548.145
  -8246989.693 5  -4270682.747 5  24107679.923       -2811.315
  -7826804.667 6  -6100427.768 6  23613644.524         429.944
 -16139693.597 7 -12604486.007 9  21533071.664       -1244.709
  -1825055.381 8 -12021440.550 9  21091933.018         237.057
 93  5  8  5 24 30.0010000  0  6 26  3 21 22 23 17                   0.001999770
  -6110985.661 6  -5378708.053 6  23078481.820         380.451
 -27624910.453 8 -13726196.029 9  21171760.907         563.613
  -8331233.946 5  -4336327.573 5  24091649.451       -2805.093
  -7813635.768 6  -6090166.279 6  23616150.130         447.718
 -16176816.272 7 -12633412.722 9  21526007.466       -1230.166
  -1817810.535 8 -12015795.200 9  21093311.831         245.727
 93  5  8  5 25  0.0020000  0  6 26  3 21 22 23 17                   0.002005520
  -6099292.968 6  -5369596.859 6  23080707.115         398.889
 -27607769.593 8 -13712839.512 9  21175022.858         578.824
  -8415297.578 5  -4401831.666 5  24075651.366       -2798.948
  -7799944.182 6  -6079497.495 6  23618755.561         464.921
 -16213504.248 7 -12662000.710 9  21519026.019       -1215.640
  -1810312.880 8 -12009952.856 9  21094738.866         253.972
 93  5  8  5 25 30.0020000  0  6 26  3 21 22 23 17                   0.002011250
  -6087050.435 6  -5360057.188 6  23083035.255         417.150
 -27590165.069 8 -13699121.687 9  21178373.185         594.510
  -8499166.477 5  -4467184.037 5  24059692.724       -2792.388
  -7785731.738 6  -6068422.832 6  23621459.844         482.581
 -16249745.774 7 -12690240.826 9  21512129.483       -1200.469
  -1802566.613 8 -12003916.784 9  21096213.007         262.346
 93  5  8  5 26  0.0020000  0  6 26  3 21 22 23 17                   0.002016950
  -6074276.804 6  -5350103.711 6  23085465.422         434.700
 -27572098.367 8 -13685043.719 9  21181811.307         609.911
  -8582841.336 5  -4532385.173 5  24043770.802       -2785.742
  -7770994.089 6  -6056938.956 6  23624264.028         500.127
 -16285532.851 7 -12718126.796 9  21505319.318       -1185.352
  -1794583.593 8 -11997696.231 9  21097732.213         269.990
 93  5  8  5 26 30.0020000  0  6 26  3 21 22 23 17                   0.002022630
  -6060977.263 6  -5339740.398 6  23087997.351         452.152
 -27553571.858 8 -13670607.458 9  21185336.595         625.127
  -8666321.170 5  -4597434.338 5  24027884.258       -2779.492
  -7755724.159 6  -6045040.298 6  23627170.498         518.109
 -16320878.669 7 -12745668.947 9  21498593.353       -1170.931
  -1786384.400 8 -11991307.240 9  21099292.372         276.799
 93  5  8  5 27  0.0020000  0  6 26  3 21 22 23 17                   0.002028310
  -6047139.694 6  -5328957.870 6  23090630.857         470.332
 -27534577.888 8 -13655806.967 9  21188951.034         640.895
  -8749599.651 5  -4662326.653 5  24012036.851       -2772.456
  -7739903.020 6  -6032712.113 6  23630179.977         536.528
 -16355787.267 7 -12772870.421 9  21491950.491       -1156.453
  -1777965.532 8 -11984747.072 9  21100894.404         284.371
 93  5  8  5 27 30.0020000  0  6 26  3 21 22 23 17                   0.002034000
  -6032766.745 6  -5317758.148 6  23093366.272         487.757
 -27515114.684 8 -13640640.826 9  21192654.410         656.311
  -8832672.280 5  -4727058.532 5  23996229.459       -2765.739
  -7723535.967 6  -6019958.559 6  23633296.309         554.459
 -16390276.992 7 -12799745.496 9  21485387.295       -1143.029
  -1769330.532 8 -11978018.487 9  21102537.269         291.255
 93  5  8  5 28  0.0020000  0  6 26  3 21 22 23 17                   0.002039680
  -6017865.999 6  -5306147.169 6  23096202.452         505.659
 -27495185.443 8 -13625111.532 9  21196446.974         671.865
  -8915539.402 5  -4791630.238 5  23980460.145       -2759.097
  -7706640.633 6  -6006793.363 6  23636511.193         571.665
 -16424369.533 7 -12826311.074 9  21478899.829       -1129.982
  -1760488.218 8 -11971128.346 9  21104219.894         298.190
 93  5  8  5 28 30.0020000  0  6 26  3 21 22 23 17                   0.002045380
  -6002413.395 6  -5294106.160 6  23099143.732         524.524
 -27474784.859 8 -13609214.952 9  21200328.985         687.887
  -8998208.026 5  -4856047.292 5  23964728.596       -2752.174
  -7689233.530 6  -5993229.357 6  23639823.721         588.644
 -16458065.184 7 -12852567.383 9  21472487.786       -1116.320
  -1751421.337 8 -11964063.227 9  21105945.318         306.260
 93  5  8  5 29  0.0020000  0  6 26  3 21 22 23 17                   0.002051060
  -5986398.652 6  -5281627.110 6  23102190.778         543.012
 -27453911.448 8 -13592949.951 9  21204301.118         703.423
  -9080667.759 5  -4920301.611 5  23949037.379       -2745.102
  -7671337.704 6  -5979284.565 6  23643228.352         604.361
 -16491352.539 7 -12878505.548 9  21466153.011       -1102.798
  -1742114.836 8 -11956811.397 9  21107716.091         314.042
 93  5  8  5 29 30.0020000  0  6 26  3 21 22 23 17                   0.002056750
  -5969824.365 6  -5268712.070 6  23105345.110         561.763
 -27432564.936 8 -13576316.307 9  21208363.315         719.263
  -9162905.333 5  -4984382.783 5  23933387.706       -2737.508
  -7652964.695 6  -5964967.944 6  23646725.663         620.401
 -16524217.893 7 -12904114.896 9  21459898.832       -1088.220
  -1732570.868 8 -11949374.523 9  21109532.327         322.187
 93  5  8  5 30  0.0020000  0  6 26  3 21 22 23 17                   0.002062410
  -5952680.737 6  -5255353.383 6  23108607.211         581.282
 -27410745.600 8 -13559314.208 9  21212515.551         735.190
  -9244920.704 6  -5048290.783 5  23917780.385       -2730.181
  -7634116.189 6  -5950280.805 6  23650311.292         636.336
 -16556637.778 7 -12929377.100 9  21453729.249       -1072.853
  -1722777.427 8 -11941743.261 9  21111395.725         330.743
 93  5  8  5 30 30.0020000  0  6 26  3 21 22 23 17                   0.002068060
  -5934952.621 6  -5241539.266 6  23111979.847         600.241
 -27388447.543 8 -13541939.101 9  21216758.444         750.985
  -9326705.554 6  -5112019.231 5  23902217.290       -2722.202
  -7614778.356 6  -5935212.346 6  23653991.212         652.760
 -16588593.641 7 -12954277.763 9  21447648.331       -1057.779
  -1712723.687 8 -11933909.168 9  21113308.869         339.224
 93  5  8  5 31  0.0020000  0  6 26  3 21 22 23 17                   0.002073710
  -5916670.190 6  -5227293.173 6  23115459.142         618.328
 -27365670.720 8 -13524190.919 9  21221092.621         767.095
  -9408241.457 6  -5175553.641 5  23886701.443       -2713.665
  -7594939.749 6  -5919753.666 6  23657766.219         669.856
 -16620101.478 7 -12978829.274 9  21441652.943       -1042.975
  -1702424.641 8 -11925883.917 9  21115268.723         347.292
 93  5  8  5 31 30.0020000  0  6 26  3 21 22 23 17                   0.002079360
  -5897852.536 6  -5212630.053 6  23119039.929         636.129
 -27342408.345 8 -13506064.376 9  21225519.607         783.409
  -9489526.286 6  -5238892.400 5  23871233.089       -2705.453
  -7574584.108 6  -5903892.135 6  23661640.336         687.116
 -16651174.308 7 -13003041.852 9  21435739.505       -1028.671
  -1691883.033 8 -11917669.668 9  21117274.497         355.431
 93  5  8  5 32  0.0020000  0  6 26  3 21 22 23 17                   0.002085000
  -5878497.580 6  -5197548.266 6  23122722.861         654.079
 -27318658.176 8 -13487557.758 9  21230039.071         799.656
  -9570570.007 5  -5302043.302 5  23855811.147       -2697.574
  -7553712.688 6  -5887628.671 6  23665612.109         704.305
 -16681826.941 7 -13026926.991 9  21429906.465       -1015.067
  -1681099.921 8 -11909267.224 9  21119326.452         363.244
 93  5  8  5 32 30.0020000  0  7 26  3 21 22 28 23 17                0.002090660
  -5858618.314 6  -5182057.895 6  23126505.517         671.278
 -27294423.626 8 -13468673.688 9  21234650.646         815.800
  -9651378.824 6  -5365011.156 5  23840434.229       -2689.758
  -7532322.363 6  -5870960.876 6  23669682.420         721.600
   -718540.97815   -529441.57615  25310503.521       -3300.780
 -16712083.752 7 -13050503.702 9  21424148.740       -1002.109
  -1670092.988 8 -11900690.381 9  21121421.005         370.591
 93  5  8  5 33  0.0020000  0  7 26  3 21 22 28 23 17                0.002096350
  -5838214.848 6  -5166159.066 6  23130388.006         689.370
 -27269705.712 8 -13449412.966 9  21239354.109         832.025
  -9731965.052 6  -5427805.560 5  23825099.108       -2682.601
  -7510419.485 6  -5853893.689 6  23673850.462         738.679
   -817532.622 6   -606577.777 5  25291665.956       -3298.718
 -16741951.138 7 -13073776.938 9  21418465.393        -988.739
  -1658870.677 8 -11891945.697 9  21123556.347         377.876
 93  5  8  5 33 30.0020000  0  7 26  3 21 22 28 23 17                0.002102040
  -5817242.708 6  -5149817.127 6  23134378.531         708.936
 -27244496.122 8 -13429769.119 9  21244151.509         848.374
  -9812341.011 6  -5490436.127 5  23809803.634       -2675.694
  -7488007.601 6  -5836429.915 6  23678115.063         755.501
   -916471.333 5   -683672.753 5  25272837.521       -3297.154
 -16771401.109 7 -13096724.948 9  21412861.606        -974.499
  -1647414.613 8 -11883018.883 9  21125736.578         385.905
 93  5  8  5 34  0.0020000  0  7 26  3 21 22 28 23 17                0.002107740
  -5795672.811 6  -5133009.385 6  23138482.561         728.939
 -27218798.049 8 -13409744.651 9  21249041.862         864.497
  -9892511.206 6  -5552906.332 5  23794547.057       -2669.138
  -7465084.783 6  -5818567.993 6  23682477.343         772.668
  -1015366.389 5   -760733.745 5  25254016.609       -3295.844
 -16800420.002 7 -13119337.052 9  21407339.247        -960.167
  -1635717.239 8 -11873904.036 9  21127962.708         393.829
 93  5  8  5 34 30.0020000  0  7 26  3 21 22 28 23 17                0.002113450
  -5773496.548 6  -5115729.147 6  23142703.659         749.388
 -27192611.968 8 -13389339.897 9  21254024.764         880.817
  -9972482.881 6  -5615221.873 5  23779329.576       -2662.568
  -7441638.325 6  -5800298.038 6  23686939.490         790.079
  -1114214.738 5   -837758.343 5  25235205.323       -3294.233
 -16828996.692 7 -13141604.575 9  21401901.072        -945.141
  -1623780.813 8 -11864602.914 9  21130234.233         401.813
 93  5  8  5 35  0.0020000  0  7 26  3 21 22 28 23 17                0.002119170
  -5750705.676 6  -5097970.009 6  23147040.444         769.805
 -27165936.026 8 -13368553.445 9  21259100.992         897.375
 -10052256.664 6  -5677383.181 5  23764149.741       -2655.769
  -7417674.701 6  -5781625.082 6  23691500.205         807.471
  -1213014.265 5   -914744.941 5  25216401.441       -3292.431
 -16857123.090 7 -13163521.229 9  21396548.549        -930.062
  -1611599.593 8 -11855111.034 9  21132552.108         410.185
 93  5  8  5 35 30.0020000  0  7 26  3 21 22 28 23 17                0.002124900
  -5727318.760 6  -5079746.408 6  23151489.008         789.123
 -27138775.918 8 -13347389.703 9  21264269.323         913.128
 -10131832.091 6  -5739389.954 5  23749006.615       -2649.196
  -7393196.878 6  -5762551.463 6  23696157.704         824.467
  -1311768.343 5   -991695.968 5  25197610.895       -3290.712
 -16884810.652 7 -13185095.928 9  21391279.796        -915.840
  -1599177.339 8 -11845431.349 9  21134915.594         417.927
 93  5  8  5 36  0.0020000  0  7 26  3 21 22 28 23 17                0.002130640
  -5703362.724 6  -5061079.342 6  23156047.730         807.629
 -27111131.867 8 -13325848.891 9  21269529.870         929.479
 -10211199.607 6  -5801234.710 5  23733903.550       -2642.049
  -7368199.419 6  -5743072.942 6  23700914.559         841.814
  -1410442.644 5  -1068584.897 5  25178835.314       -3287.638
 -16912072.419 7 -13206338.849 9  21386091.997        -901.804
  -1586521.379 8 -11835569.534 9  21137324.076         425.594
 93  5  8  5 36 30.0020000  0  7 26  3 21 22 28 23 17                0.002136380
  -5678868.026 6  -5041992.552 6  23160711.184         825.156
 -27082998.308 7 -13303926.641 9  21274883.336         945.782
 -10290344.792 6  -5862906.227 5  23718842.276       -2634.292
  -7342692.857 6  -5723197.707 6  23705768.387         858.449
  -1509027.806 5  -1145404.390 5  25160075.949       -3284.920
 -16938918.140 7 -13227257.579 9  21380983.474        -888.093
  -1573640.104 8 -11825532.178 9  21139775.269         433.023
 93  5  8  5 37  0.0020000  0  7 26  3 21 22 28 23 17                0.002142120
  -5653854.055 6  -5022501.130 6  23165471.201         842.264
 -27054374.369 8 -13281622.260 9  21280330.083         962.101
 -10369246.371 6  -5924387.903 5  23703827.538       -2625.953
  -7316691.925 6  -5702937.241 6  23710715.424         874.854
  -1607539.465 5  -1222166.615 5  25141330.383       -3282.609
 -16965359.430 7 -13247861.164 9  21375951.885        -874.773
  -1560533.858 8 -11815319.492 9  21142269.184         440.583
 93  5  8  5 37 30.0020000  0  7 26  3 21 22 28 23 17                0.002147850
  -5628328.088 6  -5002610.743 6  23170328.703         859.353
 -27025263.469 8 -13258938.439 9  21285869.698         978.247
 -10447896.757 6  -5985673.884 5  23688860.039       -2617.514
  -7290200.144 6  -5682294.314 6  23715758.246         891.143
  -1705980.874 5  -1298874.119 5  25122597.056       -3280.308
 -16991399.510 7 -13268152.114 9  21370996.708        -861.362
  -1547204.088 8 -11804932.652 9  21144805.697         447.981
 93  5  8  5 38  0.0020000  0  7 26  3 21 22 28 23 17                0.002153590
  -5602280.350 6  -4982313.786 6  23175285.274         877.077
 -26995658.943 8 -13235869.962 9  21291503.348         995.018
 -10526291.561 6  -6046760.661 5  23673943.300       -2608.958
  -7263211.022 6  -5661263.826 6  23720891.827         908.022
  -1804348.827 5  -1375524.357 5  25103879.250       -3277.905
 -17017029.484 8 -13288123.487 9  21366119.513        -847.403
  -1533646.825 8 -11794368.538 9  21147385.319         455.665
 93  5  8  5 38 30.0020000  0  7 26  3 21 22 28 23 17                0.002159320
  -5575698.107 6  -4961600.314 6  23180342.528         895.105
 -26965556.944 8 -13212413.848 9  21297231.530        1011.494
 -10604431.276 6  -6107648.706 5  23659073.874       -2600.567
  -7235714.691 6  -5639838.124 6  23726124.898         925.039
  -1902665.225 6  -1452134.437 5  25085170.583       -3276.537
 -17042240.638 8 -13307768.514 9  21361322.014        -833.341
  -1519857.782 8 -11783623.815 9  21150009.423         463.578
 93  5  8  5 39  0.0020000  0  7 26  3 21 22 28 23 17                0.002165050
  -5548570.098 6  -4940461.585 6  23185505.266         913.616
 -26934964.766 8 -13188575.786 9  21303053.352        1028.019
 -10682335.834 6  -6168353.499 5  23644248.789       -2592.870
  -7207708.703 6  -5618015.289 6  23731454.442         942.250
  -2000941.677 5  -1528713.390 5  25066469.517       -3274.840
 -17067029.130 7 -13327084.186 9  21356605.080        -819.012
  -1505833.065 8 -11772695.447 9  21152678.215         471.660
 93  5  8  5 39 30.0020000  0  7 26  3 21 22 28 23 17                0.002170770
  -5520880.359 6  -4918885.148 6  23190773.521         932.411
 -26903874.205 7 -13164349.359 9  21308969.647        1044.502
 -10760007.591 6  -6228876.882 5  23629468.170       -2585.282
  -7179183.628 6  -5595787.989 6  23736882.496         959.445
  -2099159.179 5  -1605246.372 5  25047778.377       -3272.959
 -17091384.598 7 -13346062.453 9  21351970.411        -804.641
  -1491566.536 8 -11761578.662 9  21155393.484         479.508
 93  5  8  5 40  0.0020000  0  7 26  3 21 22 28 23 17                0.002176490
  -5492626.571 6  -4896869.181 6  23196151.376         951.113
 -26872285.150 8 -13139734.502 9  21314980.727        1061.122
 -10837457.049 6  -6289227.088 6  23614730.040       -2578.080
  -7150142.827 6  -5573158.790 6  23742407.855         976.345
  -2197311.656 6  -1681728.702 5  25029100.120       -3270.704
 -17115300.435 7 -13364698.135 9  21347419.160        -789.749
  -1477059.597 8 -11750274.536 9  21158154.196         487.567
 93  5  8  5 40 30.0020000  0  7 26  3 21 22 28 23 17                0.002182190
  -5463820.856 6  -4874423.165 6  23201632.315         969.348
 -26840201.084 8 -13114733.925 9  21321086.319        1077.613
 -10914684.255 6  -6349404.059 5  23600034.093       -2570.424
  -7120614.629 6  -5550149.815 6  23748027.951         992.171
  -2295402.609 5  -1758163.121 5  25010434.478       -3268.575
 -17138771.183 8 -13382987.038 9  21342952.890        -774.890
  -1462313.519 8 -11738784.074 9  21160960.154         495.501
 93  5  8  5 41  0.0020000  0  7 26  3 21 22 28 23 17                0.002187870
  -5434463.247 6  -4851547.069 6  23207219.339         987.626
 -26807615.992 8 -13089342.944 9  21327286.927        1094.267
 -10991678.580 6  -6409399.615 6  23585382.362       -2562.666
  -7090617.569 6  -5526775.483 6  23753735.402        1007.525
  -2393414.462 6  -1834535.876 5  24991783.609       -3265.811
 -17161786.699 7 -13400921.168 9  21338572.844        -759.779
  -1447330.894 8 -11727109.296 9  21163811.300         503.017
 93  5  8  5 41 30.0020000  0  7 26  3 21 22 28 23 17                0.002193550
  -5404554.191 6  -4828241.292 6  23212910.149        1006.117
 -26774529.884 8 -13063561.544 9  21333582.818        1111.042
 -11068436.032 6  -6469210.530 6  23570775.621       -2554.743
  -7060158.205 6  -5503040.905 6  23759531.905        1022.967
  -2491340.537 5  -1910841.799 5  24973148.705       -3262.876
 -17184345.716 7 -13418499.609 9  21334279.896        -744.337
  -1432118.778 8 -11715255.678 9  21166706.132         510.960
 93  5  8  5 42  0.0020000  0  7 26  3 21 22 28 23 17                0.002199210
  -5374096.840 6  -4804508.255 6  23218706.430        1024.383
 -26740939.749 8 -13037387.408 9  21339974.992        1128.104
 -11144957.631 6  -6528837.680 6  23556214.663       -2546.505
  -7029240.752 6  -5478949.384 5  23765415.131        1038.193
  -2589178.702 6  -1987079.191 5  24954531.277       -3259.708
 -17206440.321 8 -13435716.152 9  21330075.366        -728.685
  -1416666.432 8 -11703214.866 9  21169646.650         519.140
 93  5  8  5 42 30.0020000  0  7 26  3 21 22 28 23 17                0.002204850
  -5343095.804 6  -4780351.597 6  23224605.494        1042.202
 -26706839.959 8 -13010816.134 8  21346463.992        1144.818
 -11221223.552 6  -6588265.654 6  23541701.197       -2538.087
  -6997864.515 6  -5454500.398 5  23771386.878        1053.760
  -2686924.635 6  -2063244.754 5  24935930.367       -3256.683
 -17228080.860 7 -13452578.896 9  21325957.245        -714.161
  -1400975.038 8 -11690987.799 9  21172632.921         526.811
 93  5  8  5 43  0.0020000  0  7 26  3 21 22 28 23 17                0.002210500
  -5311553.777 6  -4755773.391 6  23230607.901        1060.604
 -26672240.588 7 -12983855.568 8  21353047.742        1161.599
 -11297237.628 6  -6647497.348 6  23527235.724       -2529.457
  -6966010.578 6  -5429679.151 6  23777448.254        1070.013
  -2784570.618 6  -2139332.430 5  24917348.009       -3253.099
 -17249291.631 8 -13469106.738 9  21321920.782        -700.092
  -1385054.476 8 -11678582.155 9  21175662.396         534.791
 93  5  8  5 43 30.0020000  0  7 26  3 21 22 28 23 17                0.002216150
  -5279466.021 6  -4730769.927 6  23236714.119        1078.593
 -26637138.438 8 -12956503.251 8  21359727.498        1178.364
 -11372990.046 6  -6706525.164 6  23512820.596       -2520.602
  -6933660.940 6  -5404471.658 6  23783604.981        1086.535
  -2882111.945 5  -2215338.516 5  24898787.007       -3249.519
 -17270092.986 8 -13485315.582 9  21317962.813        -686.642
  -1368883.378 8 -11665981.296 9  21178739.525         543.292
 93  5  8  5 44  0.0020000  0  7 26  3 21 22 28 23 17                0.002221820
  -5246841.818 6  -4705348.450 6  23242922.146        1096.395
 -26601533.001 7 -12928758.751 8  21366503.249        1195.185
 -11448470.944 6  -6765341.427 6  23498456.949       -2511.335
  -6900821.332 6  -5378882.390 6  23789853.598        1102.794
  -2979536.036 6  -2291253.262 5  24880247.304       -3245.433
 -17290494.135 8 -13501212.562 9  21314080.907        -673.409
  -1352465.575 8 -11653188.190 9  21181863.793         551.236
 93  5  8  5 44 30.0020000  0  7 26  3 21 22 28 23 17                0.002227510
  -5213679.389 6  -4679507.586 6  23249232.679        1114.229
 -26565423.376 7 -12900621.375 8  21373374.401        1211.772
 -11523675.569 6  -6823942.394 6  23484146.844       -2502.524
  -6867483.872 6  -5352905.149 5  23796197.855        1119.579
  -3076837.406 5  -2367072.493 5  24861732.671       -3241.527
 -17310498.291 8 -13516800.177 9  21310274.494        -660.239
  -1335815.140 8 -11640213.804 9  21185032.638         558.675
 93  5  8  5 45  0.0020000  0  7 26  3 21 22 28 23 17                0.002233220
  -5179976.822 6  -4653245.839 6  23255645.754        1132.533
 -26528808.503 8 -12872090.302 8  21380341.997        1228.818
 -11598617.298 6  -6882338.507 6  23469885.485       -2493.745
  -6833646.670 6  -5326538.496 6  23802636.576        1136.040
  -3174023.621 5  -2442801.886 5  24843237.940       -3237.777
 -17330097.455 8 -13532072.239 9  21306544.737        -646.487
  -1318934.012 8 -11627059.664 9  21188245.013         566.645
 93  5  8  5 45 30.0020000  0  7 26  3 21 22 28 23 17                0.002238940
  -5145725.030 6  -4626556.121 6  23262163.993        1150.746
 -26491679.280 8 -12843158.443 8  21387407.696        1246.004
 -11673301.865 6  -6940534.221 6  23455673.213       -2485.391
  -6799332.562 6  -5299800.236 5  23809165.951        1151.500
  -3271105.657 5  -2518450.139 5  24824765.173       -3234.502
 -17349279.286 7 -13547019.115 9  21302894.572        -632.249
  -1301820.886 8 -11613724.749 9  21191501.029         573.879
 93  5  8  5 46  0.0020000  0  7 26  3 21 22 28 23 17                0.002244670
  -5110933.391 6  -4599445.730 6  23268784.725        1168.599
 -26454043.495 8 -12813831.852 8  21394569.299        1262.677
 -11747746.818 6  -6998543.239 6  23441506.833       -2477.724
  -6764563.469 6  -5272707.441 5  23815782.946        1166.466
  -3368097.755 6  -2594028.240 5  24806308.783       -3231.847
 -17368039.870 7 -13561637.721 9  21299324.456        -618.476
  -1284504.511 8 -11600231.464 9  21194795.916         580.614
 93  5  8  5 46 30.0020000  0  7 26  3 21 22 28 23 17                0.002250390
  -5075596.886 6  -4571910.797 6  23275509.139        1187.048
 -26415900.975 7 -12784110.399 8  21401827.392        1279.775
 -11821960.659 6  -7056372.137 6  23427385.365       -2469.978
  -6729337.834 6  -5245258.867 5  23822485.029        1181.678
  -3465007.482 5  -2669542.204 5  24787867.052       -3228.936
 -17386382.516 7 -13575930.666 9  21295833.772        -604.558
  -1266967.769 8 -11586566.448 9  21198133.257         588.345
 93  5  8  5 47  0.0020000  0  7 26  3 21 22 28 23 17                0.002256090
  -5039701.290 6  -4543940.175 6  23282339.543        1206.103
 -26377246.357 7 -12753989.905 8  21409183.311        1296.921
 -11895938.304 6  -7114016.991 6  23413307.319       -2461.868
  -6693665.396 6  -5217462.173 5  23829274.056        1196.566
  -3561831.296 5  -2744989.243 5  24769440.407       -3225.753
 -17404312.033 8 -13589901.693 9  21292421.543        -590.866
  -1249190.068 8 -11572713.687 9  21201516.536         596.828
 93  5  8  5 47 30.0020000  0  7 26  3 21 22 28 23 17                0.002261810
  -5003236.251 6  -4515525.843 6  23289278.539        1224.973
 -26338084.334 7 -12723474.034 8  21416635.562        1313.730
 -11969672.033 6  -7171471.805 6  23399276.190       -2453.660
  -6657544.900 6  -5189316.350 5  23836145.970        1211.707
  -3658557.491 6  -2820360.195 5  24751032.754       -3222.283
 -17421838.367 8 -13603558.552 9  21289086.402        -577.369
  -1231164.549 8 -11558667.803 9  21204946.652         605.024
 93  5  8  5 48  0.0020000  0  7 26  3 21 22 28 23 17                0.002267540
  -4966212.049 6  -4486675.793 6  23296324.395        1243.354
 -26298417.674 7 -12692564.941 8  21424183.736        1330.593
 -12043155.543 6  -7228731.647 6  23385292.315       -2445.122
  -6620954.785 6  -5160804.596 5  23843109.915        1227.822
  -3755160.094 6  -2895634.839 5  24732649.363       -3217.709
 -17438956.453 7 -13616897.299 9  21285829.068        -563.609
  -1212886.496 8 -11544425.153 9  21208424.804         613.601
 93  5  8  5 48 30.0020000  0  7 26  3 21 22 28 23 17                0.002273280
  -4928634.440 6  -4457394.537 6  23303475.305        1261.937
 -26258245.105 7 -12661261.669 8  21431828.442        1347.557
 -12116382.586 6  -7285791.596 6  23371357.898       -2436.529
  -6583882.311 6  -5131916.946 6  23850165.307        1243.899
  -3851617.650 5  -2970796.474 5  24714294.185       -3212.676
 -17455658.488 8 -13629911.853 9  21282650.968        -549.599
  -1194355.600 8 -11529985.492 9  21211950.953         621.766
 93  5  8  5 49  0.0020000  0  7 26  3 21 22 28 23 17                0.002279030
  -4890508.628 6  -4427686.105 6  23310729.438        1279.789
 -26217565.870 7 -12629563.553 8  21439569.773        1364.326
 -12189353.315 6  -7342651.849 6  23357471.705       -2428.041
  -6546328.826 6  -5102654.515 5  23857310.655        1259.828
  -3947927.632 6  -3045843.092 5  24695966.616       -3207.873
 -17471940.211 8 -13642598.895 9  21279552.581        -535.629
  -1175587.962 8 -11515361.344 9  21215522.279         629.496
 93  5  8  5 49 30.0020000  0  7 26  3 21 22 28 23 17                0.002284770
  -4851852.664 6  -4397564.554 6  23318085.472        1297.098
 -26176377.144 7 -12597468.441 8  21447407.479        1381.331
 -12262070.194 6  -7399314.289 6  23343634.438       -2419.948
  -6508289.815 6  -5073013.719 5  23864549.567        1275.893
  -4044083.348 6  -3120769.500 5  24677668.843       -3202.674
 -17487787.276 7 -13654947.235 9  21276536.910        -520.790
  -1156586.522 8 -11500555.002 9  21219138.356         637.178
 93  5  8  5 50  0.0020000  0  7 26  3 21 22 28 23 17                0.002290500
  -4812685.389 6  -4367044.588 6  23325538.984        1314.113
 -26134676.295 7 -12564974.268 8  21455343.024        1398.467
 -12334544.733 6  -7455787.920 6  23329842.675       -2411.833
  -6469776.236 6  -5043003.171 5  23871878.512        1291.534
  -4140091.320 6  -3195580.788 5  24659399.853       -3198.197
 -17503189.251 7 -13666948.757 9  21273605.859        -506.167
  -1137357.251 8 -11485571.154 9  21222797.064         644.774
 93  5  8  5 50 30.0020000  0  7 26  3 21 22 28 23 17                0.002296200
  -4773001.149 6  -4336121.776 6  23333090.595        1331.586
 -26092466.723 7 -12532083.694 8  21463375.134        1415.371
 -12406788.548 6  -7512081.733 6  23316095.144       -2404.428
  -6430808.692 6  -5012638.837 5  23879293.531        1306.348
  -4235989.823 6  -3270306.817 5  24641151.357       -3195.091
 -17518168.416 8 -13678620.807 9  21270755.412        -492.360
  -1117899.154 8 -11470408.980 9  21226500.020         652.677
 93  5  8  5 51  0.0020000  0  7 26  3 21 22 28 23 17                0.002301860
  -4732794.160 6  -4304791.654 6  23340742.199        1348.963
 -26049745.670 7 -12498794.559 8  21471504.506        1432.519
 -12478806.636 6  -7568199.655 6  23302390.692       -2396.703
  -6391395.496 6  -4981927.268 5  23886794.426        1321.265
  -4331790.544 6  -3344956.609 5  24622920.596       -3191.660
 -17532725.694 8 -13689964.119 9  21267985.251        -478.114
  -1098187.495 8 -11455049.243 9  21230250.902         661.465
 93  5  8  5 51 30.0020000  0  7 26  3 21 22 28 23 17                0.002307480
  -4692062.895 6  -4273052.987 6  23348492.923        1366.650
 -26006515.780 7 -12465108.929 8  21479731.141        1449.317
 -12550595.792 6  -7624139.238 6  23288729.789       -2389.161
  -6351535.050 6  -4950867.210 5  23894378.885        1336.271
  -4427493.585 6  -3419530.314 5  24604709.111       -3188.486
 -17546861.071 8 -13700978.671 9  21265295.262        -464.233
  -1078218.326 8 -11439488.830 9  21234050.635         669.832
 93  5  8  5 52  0.0020000  0  7 26  3 21 22 28 23 17                0.002313090
  -4650794.656 6  -4240895.906 6  23356346.229        1384.491
 -25962776.848 7 -12431026.653 8  21488054.393        1466.303
 -12622142.496 6  -7679889.874 6  23275114.813       -2380.646
  -6311215.913 6  -4919449.693 5  23902051.212        1351.610
  -4523099.702 6  -3494028.472 5  24586515.362       -3185.338
 -17560587.799 8 -13711674.800 9  21262683.011        -450.967
  -1057999.801 8 -11423734.132 9  21237898.009         678.047
 93  5  8  5 52 30.0020000  0  7 26  3 21 22 28 23 17                0.002318690
  -4608993.611 6  -4208323.634 6  23364300.376        1402.135
 -25918530.593 7 -12396549.048 8  21496473.951        1483.198
 -12693438.590 6  -7735445.220 6  23261548.215       -2372.390
  -6270442.093 6  -4887677.896 5  23909810.261        1366.716
  -4618603.111 5  -3568446.610 5  24568340.951       -3181.463
 -17573914.062 8 -13722058.870 9  21260147.225        -437.515
  -1037536.043 8 -11407788.326 9  21241792.285         685.974
 93  5  8  5 53  0.0020000  0  7 26  3 21 22 28 23 17                0.002324300
  -4566668.148 6  -4175342.762 6  23372354.803        1419.646
 -25873775.758 7 -12361675.135 8  21504990.516        1500.257
 -12764474.762 6  -7790798.066 6  23248030.041       -2363.213
  -6229212.480 6  -4855550.961 5  23917656.103        1382.026
  -4713975.885 6  -3642762.930 5  24550192.982       -3176.809
 -17586835.265 7 -13732127.323 9  21257688.428        -423.978
  -1016846.822 8 -11391666.846 9  21245729.147         693.144
 93  5  8  5 53 30.0020000  0  7 26  3 21 22 28 23 17                0.002329940
  -4523809.040 6  -4141946.033 6  23380510.520        1437.584
 -25828508.462 7 -12326401.930 8  21513604.541        1517.418
 -12835232.134 6  -7845933.667 6  23234564.993       -2353.819
  -6187520.623 6  -4823063.796 5  23925589.041        1397.449
  -4809210.074 6  -3716971.318 5  24532070.072       -3172.083
 -17599349.611 7 -13741878.742 9  21255306.878        -410.325
   -995953.133 8 -11375386.034 9  21249704.718         699.727
 93  5  8  5 54  0.0020000  0  7 26  3 21 22 28 23 17                0.002335610
  -4480418.669 6  -4108135.349 6  23388767.985        1455.042
 -25782723.457 7 -12290725.311 8  21522317.510        1534.590
 -12905705.069 6  -7900847.586 6  23221154.298       -2344.466
  -6145380.060 6  -4790227.031 5  23933608.854        1411.796
  -4904298.480 6  -3791066.071 5  24513974.718       -3167.139
 -17611451.802 8 -13751308.983 9  21253003.981        -396.511
   -974861.421 8 -11358950.927 9  21253718.645         706.437
 93  5  8  5 54 30.0020000  0  7 26  3 21 22 28 23 17                0.002341300
  -4436491.143 6  -4073906.102 6  23397126.922        1473.327
 -25736420.109 7 -12254644.770 8  21531128.392        1551.920
 -12975898.867 6  -7955544.009 6  23207797.367       -2335.077
  -6102808.771 6  -4757054.627 5  23941710.076        1426.284
  -4999231.173 6  -3865039.493 5  24495909.624       -3161.862
 -17623135.999 8 -13760413.542 9  21250780.630        -382.553
   -953560.485 8 -11342352.779 9  21257772.041         713.432
 93  5  8  5 55  0.0020000  0  7 26  3 21 22 28 23 17                0.002347020
  -4392015.826 6  -4039250.002 6  23405590.271        1491.755
 -25689601.667 7 -12218162.863 8  21540037.641        1569.104
 -13045805.936 6  -8010016.994 6  23194494.243       -2325.430
  -6059805.459 6  -4723545.564 5  23949892.954        1440.502
  -5094010.129 6  -3938893.115 5  24477874.400       -3156.750
 -17634407.689 8 -13769196.645 9  21248636.156        -368.713
   -932053.860 8 -11325594.371 9  21261864.887         720.516
 93  5  8  5 55 30.0020000  0  7 26  3 21 22 28 23 17                0.002352770
  -4346981.438 6  -4004158.262 6  23414159.496        1510.497
 -25642261.693 7 -12181274.570 8  21549046.166        1586.690
 -13115421.821 6  -8064263.105 6  23181246.716       -2315.784
  -6016368.657 6  -4689698.697 5  23958158.683        1455.082
  -5188629.081 6  -4012622.093 5  24459868.469       -3151.120
 -17645250.388 8 -13777645.480 9  21246572.863        -354.212
   -910317.046 8 -11308656.582 9  21266001.382         728.629
 93  5  8  5 56  0.0020000  0  7 26  3 21 22 28 23 17                0.002358530
  -4301397.158 6  -3968638.008 6  23422834.460        1528.769
 -25594405.881 7 -12143984.318 8  21558153.070        1603.731
 -13184770.199 6  -8118300.742 6  23168049.723       -2307.187
  -5972512.223 6  -4655524.841 5  23966504.824        1468.921
  -5283089.503 6  -4086227.509 5  24441893.397       -3146.032
 -17655676.943 8 -13785770.047 9  21244588.849        -340.451
   -888339.797 8 -11291531.441 9  21270183.599         736.871
 93  5  8  5 56 30.0020000  0  7 26  3 21 22 28 23 17                0.002364290
  -4255261.461 6  -3932688.110 6  23431613.200        1546.893
 -25546029.669 7 -12106288.579 8  21567358.889        1621.203
 -13253855.178 6  -8172133.155 6  23154903.361       -2298.428
  -5928227.183 6  -4621017.052 5  23974931.189        1483.423
  -5377387.337 6  -4159706.268 5  24423949.552       -3140.447
 -17665681.220 7 -13793565.572 9  21242684.867        -326.336
   -866106.104 8 -11274206.489 9  21274414.251         745.334
 93  5  8  5 57  0.0020000  0  7 26  3 21 22 28 23 17                0.002370030
  -4208597.901 6  -3896326.871 6  23440493.512        1564.242
 -25497135.749 7 -12068189.400 8  21576663.148        1638.466
 -13322686.906 6  -8225768.233 6  23141805.291       -2290.147
  -5883516.997 6  -4586177.948 5  23983440.163        1497.422
  -5471523.863 6  -4233059.329 5  24406036.481       -3134.949
 -17675262.106 8 -13801031.180 9  21240861.479        -311.998
   -843622.296 8 -11256686.621 9  21278692.986         753.937
 93  5  8  5 57 30.0020000  0  7 26  3 21 22 28 23 17                0.002375740
  -4161416.377 6  -3859562.037 6  23449471.140        1581.038
 -25447716.225 7 -12029680.678 8  21586067.045        1655.942
 -13391268.950 6  -8279208.735 6  23128754.377       -2281.998
  -5838382.312 6  -4551008.088 5  23992028.783        1511.565
  -5565491.397 6  -4306280.673 5  24388154.293       -3129.543
 -17684401.811 8 -13808153.000 9  21239122.351        -297.407
   -820873.962 8 -11238960.630 9  21283021.891         762.495
 93  5  8  5 58  0.0020000  0  7 26  3 21 22 28 23 17                0.002381400
  -4113735.561 6  -3822408.132 6  23458545.446        1597.378
 -25397769.040 7 -11990760.806 8  21595571.819        1673.514
 -13459598.710 6  -8332452.627 6  23115751.588       -2273.280
  -5792822.236 6  -4515506.725 5  24000697.641        1525.724
  -5659289.847 6  -4379370.300 5  24370305.147       -3123.785
 -17693101.427 8 -13814931.900 9  21237466.588        -282.551
   -797868.962 8 -11221034.647 9  21287399.957         770.958
 93  5  8  5 58 30.0020000  0  7 26  3 21 22 28 23 17                0.002387030
  -4065575.882 6  -3784881.113 6  23467709.436        1613.451
 -25347298.074 7 -11951432.772 8  21605175.797        1691.053
 -13527659.655 6  -8385487.026 6  23102800.005       -2263.977
  -5746836.097 6  -4479673.410 5  24009450.205        1540.170
  -5752914.933 6  -4452324.829 5  24352488.328       -3117.825
 -17701359.512 8 -13821366.762 9  21235895.067        -268.102
   -774621.927 8 -11202920.062 9  21291823.606         778.856
 93  5  8  5 59  0.0020000  0  7 26  3 21 22 28 23 17                0.002392650
  -4016923.857 6  -3746970.429 6  23476967.444        1630.254
 -25296301.728 7 -11911695.349 8  21614880.458        1708.679
 -13595438.038 6  -8438301.285 6  23089902.390       -2254.303
  -5700420.669 6  -4443505.530 6  24018282.595        1554.423
  -5846367.189 6  -4525144.715 5  24334705.044       -3112.021
 -17709192.299 8 -13827470.210 9  21234404.558        -253.907
   -751138.298 8 -11184621.128 9  21296292.574         786.877
 93  5  8  5 59 30.0020000  0  7 26  3 21 22 28 23 17                0.002398260
  -3967775.637 6  -3708673.095 6  23486320.506        1646.578
 -25244785.071 7 -11871552.502 8  21624683.822        1725.682
 -13662928.623 6  -8490891.249 6  23077059.497       -2244.977
  -5653584.196 6  -4407009.593 5  24027194.180        1568.169
  -5939651.116 6  -4597833.407 5  24316954.727       -3106.772
 -17716611.771 8 -13833251.597 9  21232992.397        -240.780
   -727428.258 8 -11166145.759 9  21300804.432         793.861
 93  5  8  6  0  0.0020000  0  7 26  3 21 22 28 23 17                0.002403880
  -3918121.945 6  -3669981.902 6  23495769.151        1663.982
 -25192756.030 7 -11831010.384 8  21634584.528        1742.888
 -13730131.872 6  -8543257.347 6  23064270.747       -2234.961
  -5606333.249 6  -4370190.700 5  24036185.929        1582.038
  -6032768.906 6  -4670392.643 5  24299234.590       -3100.955
 -17723648.858 8 -13838735.016 9  21231653.283        -228.190
   -703504.446 8 -11147503.823 9  21305356.670         801.350
 93  5  8  6  0 30.0020000  0  7 26  3 21 22 28 23 17                0.002409530
  -3867939.027 6  -3630878.332 6  23505318.393        1681.674
 -25140212.398 7 -11790067.302 8  21644583.386        1759.816
 -13797042.566 6  -8595395.470 6  23051538.022       -2225.713
  -5558669.249 6  -4333049.937 5  24045256.275        1595.639
  -6125714.677 6  -4742817.865 5  24281547.601       -3095.301
 -17730317.255 8 -13843931.169 9  21230384.119        -216.468
   -679356.833 8 -11128687.499 9  21309951.876         808.660
 93  5  8  6  1  0.0020000  0  7 26  3 21 22 28 23 17                0.002415220
  -3817220.488 6  -3591357.373 6  23514970.100        1699.424
 -25087157.884 7 -11748726.094 8  21654679.098        1776.900
 -13863671.518 6  -8647314.056 6  23038858.593       -2216.257
  -5510597.441 6  -4295591.340 5  24054404.043        1609.289
  -6218481.817 6  -4815103.882 5  24263893.916       -3088.998
 -17736622.846 8 -13848844.591 9  21229184.322        -203.750
   -654980.383 8 -11109692.859 9  21314590.097         816.507
 93  5  8  6  1 30.0020000  0  7 26  3 21 22 28 23 17                0.002420930
  -3765974.754 6  -3551425.651 6  23524720.591        1717.105
 -25033591.052 7 -11706985.716 8  21664872.331        1794.138
 -13930023.282 6  -8699016.656 6  23026232.610       -2207.109
  -5462111.672 6  -4257810.278 5  24063630.396        1623.340
  -6311051.893 6  -4887236.310 5  24246278.339       -3082.243
 -17742539.867 8 -13853455.221 9  21228058.631        -190.704
   -630361.112 8 -11090509.006 9  21319274.885         824.960
 93  5  8  6  2  0.0020000  0  7 26  3 21 22 28 23 17                0.002426660
  -3714191.917 6  -3511075.349 6  23534576.007        1734.730
 -24979502.082 7 -11664838.451 8  21675164.944        1811.397
 -13996092.612 6  -8750499.152 6  23013660.366       -2197.804
  -5413193.964 6  -4219692.597 5  24072939.501        1637.529
  -6403413.320 6  -4959206.190 5  24228702.648       -3075.404
 -17748055.440 8 -13857753.076 9  21227009.130        -176.978
   -605477.674 8 -11071119.291 9  21324010.097         833.715
 93  5  8  6  2 30.0020000  0  7 26  3 21 22 28 23 17                0.002432370
  -3661895.869 6  -3470325.164 6  23544526.935        1751.587
 -24924899.608 7 -11622291.055 8  21685555.639        1828.446
 -14061893.837 6  -8801772.760 6  23001138.702       -2188.898
  -5363858.417 6  -4181249.298 5  24082328.520        1651.406
  -6495577.584 6  -5031022.468 5  24211164.291       -3068.838
 -17753153.859 8 -13861725.832 9  21226038.880        -162.940
   -580341.843 8 -11051532.934 9  21328793.013         841.964
 93  5  8  6  3  0.0020000  0  7 26  3 21 22 28 23 17                0.002438070
  -3609090.057 6  -3429177.794 6  23554575.413        1768.695
 -24869780.135 7 -11579340.832 8  21696044.292        1845.816
 -14127418.212 6  -8852830.627 6  22988669.315       -2179.675
  -5314108.520 6  -4142483.173 5  24091795.250        1664.998
  -6587541.401 6  -5102682.520 5  24193664.037       -3062.430
 -17757820.300 8 -13865362.007 9  21225150.781        -148.398
   -554948.630 8 -11031746.002 9  21333625.260         850.728
 93  5  8  6  3 30.0020000  0  7 26  3 21 22 28 23 17                0.002443740
  -3555771.646 6  -3387630.971 6  23564721.538        1785.788
 -24814143.938 7 -11535987.957 8  21706631.632        1863.064
 -14192674.063 6  -8903679.299 6  22976251.990       -2170.681
  -5263960.077 6  -4103406.494 5  24101338.001        1678.007
  -6679325.273 6  -5174202.332 5  24176197.964       -3056.562
 -17762063.229 8 -13868668.144 9  21224343.302        -134.688
   -529303.819 8 -11011763.022 9  21338505.171         858.733
 93  5  8  6  4  0.0020000  0  7 26  3 21 22 28 23 17                0.002449410
  -3501948.430 6  -3345690.796 6  23574963.566        1802.229
 -24757992.543 7 -11492233.599 8  21717316.455        1880.150
 -14257658.300 6  -8954316.341 6  22963885.676       -2161.688
  -5213427.580 6  -4064030.538 5  24110954.992        1690.734
  -6770935.607 6  -5245586.961 5  24158764.826       -3050.801
 -17765906.284 8 -13871662.723 9  21223612.158        -121.481
   -503433.436 8 -10991604.271 9  21343428.301         865.803
 93  5  8  6  4 30.0020000  0  7 26  3 21 22 28 23 17                0.002455070
  -3447632.512 6  -3303366.694 6  23585300.085        1818.735
 -24701328.143 7 -11448079.544 8  21728099.400        1897.223
 -14322377.482 6  -9004746.837 6  22951569.777       -2152.997
  -5162512.770 6  -4024356.690 5  24120643.521        1703.597
  -6862370.822 6  -5316835.138 5  24141365.144       -3044.894
 -17769354.949 8 -13874349.989 9  21222955.753        -108.638
   -477348.345 8 -10971278.231 9  21348392.215         873.184
 93  5  8  6  5  0.0020000  0  7 26  3 21 22 28 23 17                0.002460730
  -3392820.377 6  -3260655.938 6  23595730.346        1835.497
 -24644151.775 7 -11403526.525 8  21738979.739        1914.396
 -14386838.230 6  -9054975.918 6  22939303.484       -2144.478
  -5111207.388 6  -3984378.461 5  24130406.304        1716.906
  -6953624.413 6  -5387941.749 5  24124000.486       -3038.595
 -17772421.281 8 -13876739.322 9  21222372.377         -95.566
   -451038.987 8 -10950777.414 9  21353398.550         880.779
 93  5  8  6  5 30.0020000  0  7 26  3 21 22 28 23 17                0.002466390
  -3337512.655 6  -3217558.995 6  23606254.767        1851.678
 -24586458.859 7 -11358570.989 8  21749958.568        1931.647
 -14451044.070 6  -9105006.398 6  22927084.958       -2135.730
  -5059493.252 6  -3944081.709 5  24140247.737        1730.736
  -7044676.494 6  -5458891.360 5  24106673.756       -3031.449
 -17775083.470 8 -13878813.722 9  21221865.770         -81.885
   -424506.240 8 -10930102.543 9  21358447.564         888.143
 93  5  8  6  6  0.0020000  0  7 26  3 21 22 28 23 17                0.002472040
  -3281727.056 6  -3174089.694 6  23616871.139        1867.638
 -24528253.156 7 -11313215.911 8  21761034.798        1948.734
 -14514981.732 6  -9154827.898 6  22914918.022       -2126.584
  -5007363.815 6  -3903461.379 5  24150165.560        1744.684
  -7135511.122 6  -5529671.530 5  24089388.924       -3023.958
 -17777335.159 8 -13880568.254 9  21221437.246         -67.989
   -397744.345 8 -10909249.108 9  21363540.530         896.250
 93  5  8  6  6 30.0020000  0  7 26  3 21 22 28 23 17                0.002477680
  -3225453.129 6  -3130239.882 6  23627579.217        1884.135
 -24469534.205 7 -11267460.888 8  21772208.964        1965.755
 -14578645.273 6  -9204435.829 6  22902803.304       -2117.402
  -4954826.620 6  -3862523.288 5  24160163.095        1757.761
  -7226119.824 6  -5600275.649 5  24072146.746       -3016.449
 -17779168.321 8 -13881996.695 9  21221088.495         -54.176
   -370732.326 8 -10888200.772 9  21368680.851         904.715
 93  5  8  6  7  0.0020000  0  7 26  3 21 22 28 23 17                0.002483300
  -3168676.608 6  -3085998.427 6  23638383.399        1900.912
 -24410299.613 7 -11221304.055 8  21783480.940        1983.068
 -14642017.346 6  -9253816.614 7  22890744.028       -2107.454
  -4901902.625 6  -3821283.835 5  24170234.952        1770.576
  -7316493.168 6  -5670696.395 5  24054949.089       -3008.435
 -17780582.163 8 -13883098.361 9  21220819.633         -40.149
   -343461.236 8 -10866950.557 9  21373870.386         913.243
 93  5  8  6  7 30.0020000  0  7 26  3 21 22 28 23 17                0.002488920
  -3111409.502 6  -3041374.703 6  23649280.794        1916.900
 -24350545.485 7 -11174742.411 8  21794851.659        2000.187
 -14705086.966 6  -9302961.714 7  22878742.187       -2097.398
  -4848605.427 6  -3779753.542 5  24180377.413        1782.433
  -7406630.378 6  -5740933.109 5  24037796.306       -3001.024
 -17781592.827 8 -13883885.862 9  21220627.164         -27.586
   -315940.622 8 -10845505.918 9  21379107.332         921.347
 93  5  8  6  8  0.0020000  0  7 26  3 21 22 28 23 17                0.002494530
  -3053649.732 6  -2996367.086 6  23660272.432        1933.633
 -24290275.720 7 -11127778.969 7  21806320.701        2017.492
 -14767858.697 6  -9351874.710 7  22866797.205       -2087.574
  -4794955.364 6  -3737948.293 5  24190586.870        1794.092
  -7496549.587 6  -5810999.963 5  24020684.196       -2993.806
 -17782234.746 8 -13884386.044 9  21220505.161         -15.270
   -288170.633 8 -10823866.967 9  21384391.483         929.767
 93  5  8  6  8 30.0020000  0  7 26  3 21 22 28 23 17                0.002500150
  -2995385.597 6  -2950966.459 6  23671359.460        1950.462
 -24229490.802 7 -11080414.090 7  21817887.810        2034.643
 -14830344.386 6  -9400564.822 7  22854906.268       -2078.223
  -4740960.565 6  -3695874.439 5  24200861.750        1805.643
  -7586263.306 6  -5880906.708 5  24003612.793       -2987.163
 -17782504.104 8 -13884595.908 9  21220453.876          -2.717
   -260154.065 8 -10802035.861 9  21389723.304         937.970
 93  5  8  6  9  0.0020000  0  7 26  3 21 22 28 23 17                0.002505750
  -2936628.572 6  -2905181.751 6  23682539.987        1966.648
 -24168192.243 7 -11032648.986 7  21829552.395        2051.845
 -14892553.956 6  -9449039.785 7  22843068.284       -2069.007
  -4686608.792 6  -3653522.391 5  24211203.476        1817.996
  -7675785.231 6  -5950664.025 5  23986577.775       -2980.780
 -17782398.602 8 -13884513.687 9  21220474.031           9.920
   -231896.604 8 -10780017.060 9  21395100.599         945.855
 93  5  8  6  9 30.0020000  0  7 26  3 21 22 28 23 17                0.002511370
  -2877386.373 6  -2859018.989 6  23693813.892        1983.070
 -24106379.280 7 -10984483.045 7  21841314.860        2068.888
 -14954490.578 6  -9497302.040 7  22831282.304       -2059.931
  -4631886.514 6  -3610881.664 5  24221617.248        1830.184
  -7765117.422 6  -6020273.467 5  23969578.468       -2974.629
 -17781910.766 8 -13884133.546 9  21220566.778          22.923
   -203409.047 8 -10757818.956 9  21400521.427         953.558
 93  5  8  6 10  0.0020000  0  7 26  3 21 22 28 23 17                0.002516970
  -2817636.760 6  -2812460.853 6  23705184.611        1999.989
 -24044048.174 7 -10935913.347 7  21853176.014        2086.126
 -15016142.318 6  -9545342.348 7  22819550.353       -2050.271
  -4576787.787 6  -3567947.586 5  24232102.335        1842.908
  -7854254.651 6  -6089730.986 5  23952615.405       -2967.958
 -17781007.435 8 -13883429.630 9  21220738.809          37.142
   -174675.595 8 -10735429.252 9  21405988.883         961.859
 93  5  8  6 10 30.0020000  0  7 26  3 21 22 28 23 17                0.002522570
  -2757387.209 6  -2765513.139 6  23716649.003        2016.543
 -23981200.659 7 -10886941.281 7  21865135.641        2103.478
 -15077506.042 6  -9593158.201 7  22807873.538       -2040.613
  -4521308.135 6  -3524716.706 5  24242659.876        1855.888
  -7943186.928 6  -6159028.815 5  23935692.661       -2960.660
 -17779684.238 8 -13882398.546 9  21220990.665          50.898
   -145699.902 8 -10712850.772 9  21411502.975         969.921
 93  5  8  6 11  0.0020000  0  7 26  3 21 22 28 23 17                0.002528180
  -2696648.774 6  -2718184.476 6  23728207.534        2032.697
 -23917836.091 7 -10837566.288 7  21877193.804        2120.665
 -15138579.912 6  -9640748.230 7  22796251.573       -2030.968
  -4465438.843 6  -3481182.180 5  24253291.044        1868.734
  -8031887.950 6  -6228146.448 6  23918813.553       -2952.673
 -17777963.623 8 -13881057.800 9  21221317.875          63.728
   -116485.980 8 -10690086.678 9  21417061.827         977.664
 93  5  8  6 11 30.0020000  0  7 26  3 21 22 28 23 17                0.002533800
  -2635428.218 6  -2670480.129 6  23739857.197        2048.827
 -23853957.056 7 -10787790.433 7  21889349.527        2137.851
 -15199365.090 7  -9688113.243 7  22784684.281       -2021.284
  -4409187.623 6  -3437350.109 5  24263995.646        1881.516
  -8120341.662 6  -6297071.374 6  23901981.156       -2944.142
 -17775857.707 7 -13879416.831 9  21221718.521          76.778
    -87038.653 8 -10667140.705 9  21422665.617         985.817
 93  5  8  6 12  0.0020000  0  7 26  3 21 22 28 23 17                0.002539430
  -2573729.464 6  -2622403.197 6  23751598.021        2064.316
 -23789562.055 7 -10737612.502 7  21901603.384        2154.850
 -15259864.761 6  -9735255.807 7  22773171.551       -2012.075
  -4352547.605 6  -3393215.015 5  24274774.710        1894.454
  -8208534.033 6  -6365792.655 6  23885198.817       -2935.331
 -17773369.736 8 -13877478.128 9  21222192.104          88.926
    -57338.893 8 -10643998.039 9  21428317.274         993.930
 93  5  8  6 12 30.0020000  0  7 26  3 21 22 28 23 17                0.002545080
  -2511572.410 6  -2573969.124 6  23763426.621        2079.451
 -23724653.670 7 -10687034.551 7  21913955.085        2172.070
 -15320089.228 6  -9782183.919 7  22761710.968       -2002.761
  -4295515.593 6  -3348774.488 5  24285627.667        1907.492
  -8296455.282 6  -6434302.674 6  23868468.054       -2926.074
 -17770517.854 8 -13875255.885 9  21222734.666         101.235
    -27401.397 8 -10620670.114 9  21434014.319        1001.869
 93  5  8  6 13  0.0020000  0  7 26  3 21 22 28 23 17                0.002550740
  -2448962.697 6  -2525182.347 6  23775340.696        2094.574
 -23659228.072 7 -10636053.560 7  21926405.066        2189.337
 -15380025.225 6  -9828887.265 7  22750305.430       -1992.984
  -4238102.138 6  -3304036.762 5  24296553.420        1920.016
  -8384103.287 6  -6502599.779 6  23851789.310       -2917.225
 -17767288.352 8 -13872739.365 9  21223349.072         114.329
      2774.256 8 -10597156.606 9  21439756.475        1009.767
 93  5  8  6 13 30.0020000  0  7 26  3 21 22 28 23 17                0.002556390
  -2385903.758 6  -2476045.494 6  23787341.259        2109.664
 -23593292.222 7 -10584674.990 7  21938952.062        2206.294
 -15439673.207 6  -9875366.198 7  22738954.730       -1983.240
  -4180327.879 6  -3259017.911 5  24307547.705        1931.738
  -8471497.781 6  -6570699.333 6  23835159.031       -2908.922
 -17763663.831 8 -13869915.063 9  21224038.504         127.479
     33177.560 8 -10573465.724 9  21445541.808        1017.317
 93  5  8  6 14  0.0020000  0  7 26  3 21 22 28 23 17                0.002562020
  -2322380.539 6  -2426546.886 6  23799428.676        2125.229
 -23526840.531 7 -10532894.435 7  21951597.424        2223.481
 -15499016.088 6  -9921607.374 7  22727662.157       -1972.941
  -4122205.376 6  -3213727.646 5  24318607.577        1942.938
  -8558639.227 6  -6638601.727 6  23818576.890       -2900.523
 -17759645.122 8 -13866783.592 9  21224803.136         140.294
     63812.969 8 -10549593.969 9  21451372.013        1024.822
 93  5  8  6 14 30.0020000  0  7 26  3 21 22 28 23 17                0.002567640
  -2258392.846 6  -2376686.336 6  23811604.143        2140.789
 -23459878.817 7 -10480716.489 7  21964340.015        2240.477
 -15558050.056 6  -9967607.863 7  22716427.803       -1962.627
  -4063759.522 6  -3168185.436 5  24329728.830        1953.539
  -8645532.293 6  -6706310.555 6  23802041.459       -2892.180
 -17755247.277 8 -13863356.684 9  21225640.196         153.033
     94664.675 8 -10525553.665 9  21457242.769        1032.202
 93  5  8  6 15  0.0020000  0  7 26  3 21 22 28 23 17                0.002573260
  -2193929.933 6  -2326455.495 6  23823871.372        2157.003
 -23392405.996 7 -10428140.275 7  21977179.694        2257.610
 -15616777.650 6 -10013369.607 7  22705252.871       -1952.582
  -4004996.976 6  -3122396.485 5  24340910.278        1964.289
  -8732170.344 6  -6773820.676 6  23785554.783       -2883.525
 -17750467.093 8 -13859631.858 9  21226549.827         165.795
    125744.413 8 -10501335.692 9  21463157.163        1039.944
 93  5  8  6 15 30.0020000  0  7 26  3 21 22 28 23 17                0.002578880
  -2128973.439 6  -2275840.041 6  23836232.701        2173.474
 -23324417.346 7 -10375162.126 7  21990117.547        2274.827
 -15675205.587 6 -10058897.834 7  22694134.210       -1942.451
  -3945903.746 6  -3076349.811 5  24352155.042        1975.401
  -8818541.452 6  -6841122.800 6  23769118.331       -2874.457
 -17745307.747 8 -13855611.579 9  21227531.636         178.165
    157066.063 8 -10476929.209 9  21469117.637        1048.314
 93  5  8  6 16  0.0020000  0  7 26  3 21 22 28 23 17                0.002584520
  -2063532.329 6  -2224846.979 6  23848685.468        2189.182
 -23255914.091 7 -10321782.975 7  22003153.134        2291.773
 -15733339.640 7 -10104197.075 7  22683071.548       -1933.431
  -3886475.829 6  -3030042.383 5  24363464.457        1986.604
  -8904638.470 6  -6908211.342 6  23752734.162       -2865.287
 -17739779.061 8 -13851303.517 9  21228583.639         190.552
    188642.755 8 -10452324.011 9  21475126.848        1056.698
 93  5  8  6 16 30.0020000  0  7 26  3 21 22 28 23 17                0.002590150
  -1997622.337 6  -2173488.577 6  23861227.667        2204.745
 -23186900.436 7 -10268006.103 7  22016285.943        2308.898
 -15791210.181 6 -10149290.957 7  22672059.361       -1924.678
  -3826697.748 6  -2983462.086 5  24374840.444        1998.646
  -8990456.667 6  -6975082.623 6  23736403.503       -2856.067
 -17733864.005 8 -13846694.356 9  21229709.268         203.890
    220477.199 8 -10427517.938 9  21481184.394        1065.613
 93  5  8  6 17  0.0020000  0  7 26  3 21 22 28 23 17                0.002595770
  -1931250.012 6  -2121769.867 6  23873857.853        2220.185
 -23117380.631 7 -10213834.841 7  22029514.885        2325.708
 -15848830.981 7 -10194190.270 7  22661094.271       -1916.346
  -3766567.717 6  -2936607.559 5  24386282.892        2010.321
  -9076010.010 6  -7041747.538 6  23720123.012       -2847.481
 -17727554.690 8 -13841778.025 9  21230909.488         216.990
    252568.097 8 -10402512.050 9  21487291.138        1074.058
 93  5  8  6 17 30.0020000  0  7 26  3 21 22 28 23 17                0.002601390
  -1864417.308 6  -2069692.442 6  23886576.013        2235.210
 -23047350.690 7 -10159266.063 7  22042841.009        2342.746
 -15906182.814 7 -10238879.958 7  22650180.374       -1907.015
  -3706077.951 5  -2889472.714 5  24397793.082        2022.255
  -9161305.487 6  -7108211.513 6  23703892.264       -2838.791
 -17720847.988 8 -13836551.999 9  21232185.484         230.154
    284924.662 8 -10377299.131 9  21493448.316        1083.053
 93  5  8  6 18  0.0020000  0  7 26  3 21 22 28 23 17                0.002607000
  -1797137.717 6  -2017266.778 6  23899379.011        2250.250
 -22976814.018 7 -10104302.426 7  22056264.167        2359.539
 -15963266.727 7 -10283360.917 7  22639318.325       -1898.381
  -3645239.516 5  -2842066.208 5  24409371.126        2033.778
  -9246347.524 6  -7174477.983 6  23687709.428       -2830.533
 -17713753.192 8 -13831023.577 9  21233536.001         242.933
    317538.580 8 -10351885.672 9  21499654.258        1091.290
 93  5  8  6 18 30.0020000  0  7 26  3 21 22 28 23 17                0.002612600
  -1729398.742 6  -1964483.179 6  23912269.621        2265.512
 -22905771.323 7 -10048944.508 7  22069783.316        2376.297
 -16020072.162 7 -10327624.870 7  22628508.700       -1888.494
  -3584065.132 5  -2794397.915 5  24421012.317        2044.372
  -9331142.442 6  -7240551.934 6  23671572.961       -2822.579
 -17706277.479 8 -13825198.344 9  21234958.603         255.152
    350401.396 8 -10326278.288 9  21505908.151        1099.368
 93  5  8  6 19  0.0020000  0  7 26  3 21 22 28 23 17                0.002618210
  -1661198.640 6  -1911340.230 6  23925247.074        2280.668
 -22834221.987 7  -9993191.768 7  22083398.692        2393.077
 -16076564.718 7 -10371645.007 7  22617758.072       -1877.914
  -3522576.317 6  -2746484.572 5  24432713.611        2054.587
  -9415696.337 6  -7306438.033 6  23655482.581       -2814.566
 -17698438.814 8 -13819090.272 9  21236450.372         267.060
    383503.798 8 -10300484.207 9  21512207.440        1107.086
 93  5  8  6 19 30.0020000  0  7 26  3 21 22 28 23 17                0.002623810
  -1592546.681 6  -1857845.221 6  23938311.307        2296.036
 -22762165.786 7  -9937044.075 7  22097110.598        2410.320
 -16132730.136 7 -10415410.231 7  22607070.191       -1866.764
  -3460779.932 5  -2698331.558 5  24444472.322        2065.035
  -9499994.653 6  -7372124.999 6  23639441.076       -2805.250
 -17690241.356 8 -13812702.639 9  21238010.402         279.286
    416844.995 8 -10274504.038 9  21518551.886        1115.429
 93  5  8  6 20  0.0020000  0  7 26  3 21 22 28 23 17                0.002629410
  -1523441.120 6  -1803996.727 6  23951462.010        2311.249
 -22689601.717 7  -9880500.678 7  22110919.079        2427.146
 -16188580.571 7 -10458930.047 7  22596442.617       -1856.397
  -3398682.289 6  -2649943.822 5  24456289.390        2074.972
  -9584013.815 6  -7437594.458 6  23623453.434       -2795.728
 -17681685.391 8 -13806035.644 9  21239638.574         291.195
    450416.344 8 -10248344.564 9  21524940.005        1122.839
 93  5  8  6 20 30.0020000  0  7 26  3 21 22 28 23 17                0.002635010
  -1453882.238 6  -1749795.033 6  23964698.369        2325.901
 -22616532.499 7  -9823563.651 7  22124823.336        2443.927
 -16244110.401 7 -10502200.036 7  22585875.475       -1845.706
  -3336285.064 5  -2601322.643 5  24468164.440        2084.852
  -9667737.788 6  -7502833.895 6  23607520.847       -2785.807
 -17672770.015 8 -13799088.600 9  21241335.359         303.103
    484216.459 8 -10222006.808 9  21531371.952        1130.537
 93  5  8  6 21  0.0020000  0  7 26  3 21 22 28 23 17                0.002640610
  -1383883.835 6  -1695250.798 6  23978018.454        2340.646
 -22542956.584 7  -9766231.770 7  22138824.262        2460.960
 -16299326.623 7 -10545225.637 7  22575368.176       -1835.433
  -3273578.729 5  -2552460.639 5  24480096.574        2095.639
  -9751149.818 6  -7567830.241 6  23591648.021       -2774.923
 -17663489.578 8 -13791857.067 9  21243101.287         315.630
    518253.525 8 -10195484.414 9  21537848.897        1138.829
 93  5  8  6 21 30.0020000  0  7 26  3 21 22 28 23 17                0.002646200
  -1313452.264 6  -1640369.060 6  23991420.624        2354.971
 -22468881.828 7  -9708511.181 7  22152920.423        2477.239
 -16354249.535 7 -10588022.680 7  22564916.414       -1826.173
  -3210553.865 5  -2503350.363 5  24492087.984        2106.036
  -9834240.170 6  -7632575.935 6  23575836.830       -2764.418
 -17653851.189 8 -13784346.636 9  21244935.376         326.938
    552537.463 8 -10168769.660 9  21544372.902        1146.863
 93  5  8  6 22  0.0020000  0  7 26  3 21 22 28 23 17                0.002651810
  -1242575.748 6  -1585140.617 6  24004908.647        2370.059
 -22394306.775 7  -9650400.777 7  22167111.746        2494.125
 -16408883.762 7 -10630594.785 7  22554519.491       -1816.159
  -3147197.524 5  -2453981.836 5  24504143.846        2117.404
  -9917012.382 6  -7697073.755 6  23560085.553       -2753.919
 -17643855.664 8 -13776557.906 9  21246837.409         339.408
    587074.226 8 -10141857.899 9  21550945.100        1155.532
 93  5  8  6 22 30.0020000  0  7 26  3 21 22 28 23 17                0.002657420
  -1171258.936 6  -1529569.108 6  24018479.942        2384.583
 -22319226.317 7  -9591896.537 7  22181399.095        2511.188
 -16463222.220 7 -10672936.399 7  22544179.599       -1806.309
  -3083516.214 5  -2404360.101 5  24516261.943        2128.263
  -9999482.220 6  -7761335.952 6  23544392.104       -2743.982
 -17633484.690 8 -13768476.617 9  21248810.735         352.287
    621877.958 8 -10114738.111 9  21557568.166        1164.845
 93  5  8  6 23  0.0020000  0  7 26  3 21 22 28 23 17                0.002663020
  -1099508.148 6  -1473659.406 6  24032133.737        2398.827
 -22243639.504 7  -9532997.723 7  22195782.550        2527.735
 -16517273.989 7 -10715054.633 7  22533893.968       -1797.119
  -3019508.986 5  -2354484.354 5  24528442.739        2138.847
 -10081657.928 6  -7825368.931 6  23528755.094       -2734.369
 -17622719.920 8 -13760088.468 9  21250859.308         365.382
    656949.913 8 -10087409.302 9  21564242.386        1173.323
 93  5  8  6 23 30.0020000  0  7 26  3 21 22 28 23 17                0.002668610
  -1027325.444 6  -1417413.133 6  24045869.300        2413.497
 -22167555.341 7  -9473711.358 7  22210261.165        2544.447
 -16571047.758 7 -10756956.258 7  22523661.285       -1787.655
  -2955191.282 5  -2304366.671 5  24540682.741        2149.127
 -10163544.430 6  -7889176.569 6  23513172.305       -2724.608
 -17611563.323 8 -13751395.012 9  21252982.648         378.672
    692274.426 8 -10059883.711 9  21570964.230        1181.746
 93  5  8  6 24  0.0020000  0  7 26  3 21 22 28 23 17                0.002674170
   -954709.060 6  -1360828.967 6  24059688.318        2427.494
 -22090970.076 7  -9414034.546 7  22224834.948        2560.887
 -16624538.093 7 -10798637.017 7  22513482.162       -1778.433
  -2890576.552 5  -2254017.569 5  24552978.134        2158.363
 -10245135.630 6  -7952754.128 6  23497645.807       -2714.791
 -17599993.141 8 -13742379.288 9  21255184.212         392.561
    727843.606 8 -10032167.466 9  21577732.819        1189.445
 93  5  8  6 24 30.0020000  0  7 26  3 21 22 28 23 17                0.002679690
   -881672.943 6  -1303917.719 6  24073586.634        2441.803
 -22013893.297 7  -9353974.745 7  22239501.734        2577.437
 -16677750.951 7 -10840101.567 7  22503356.209       -1768.845
  -2825684.675 5  -2203452.520 5  24565326.830        2168.120
 -10326427.765 6  -8016098.608 6  23482176.192       -2704.425
 -17588017.343 8 -13733047.487 9  21257463.185         405.879
    763645.552 8 -10004269.851 9  21584545.580        1197.514
 93  5  8  6 25  0.0020000  0  7 26  3 21 22 28 23 17                0.002685210
   -808191.981 6  -1246659.832 6  24087569.225        2456.776
 -21936315.369 7  -9293524.398 7  22254264.515        2594.051
 -16730660.527 7 -10881329.801 7  22493288.140       -1758.496
  -2760487.203 5  -2152649.332 5  24577734.046        2178.176
 -10407391.241 6  -8079187.033 6  23466769.173       -2693.227
 -17575647.641 8 -13723408.763 9  21259816.814         418.467
    799688.826 8  -9976184.172 9  21591404.761        1205.394
 93  5  8  6 25 30.0020000  0  7 26  3 21 22 28 23 17                0.002690750
   -734260.186 6  -1189050.651 6  24101637.530        2471.910
 -21858237.848 7  -9232684.781 7  22269122.326        2610.825
 -16783252.821 7 -10922310.779 7  22483279.888       -1747.700
  -2694989.999 5  -2101612.579 5  24590198.258        2188.374
 -10488020.662 6  -8142015.144 6  23451426.056       -2682.168
 -17562914.814 8 -13713487.062 9  21262239.997         430.385
    835979.328 8  -9947905.859 9  21598310.588        1213.922
 93  5  8  6 26  0.0020000  0  7 26  3 21 22 28 23 17                0.002696300
   -659879.662 6  -1131091.792 6  24115792.117        2486.789
 -21779661.286 7  -9171456.294 7  22284074.785        2627.401
 -16835525.773 7 -10963042.933 7  22473332.556       -1737.254
  -2629187.402 5  -2050337.820 5  24602719.644        2198.492
 -10568323.826 7  -8204588.993 6  23436144.821       -2671.411
 -17549828.210 8 -13703289.705 9  21264730.064         441.906
    872524.616 8  -9919429.004 9  21605264.756        1222.485
 93  5  8  6 26 30.0020000  0  7 26  3 21 22 28 23 17                0.002701880
   -585053.812 6  -1072785.975 6  24130031.189        2501.654
 -21700591.034 7  -9109843.129 6  22299121.480        2643.820
 -16887490.312 7 -11003534.784 7  22463443.911       -1726.973
  -2563084.260 5  -1998828.881 5  24615298.839        2208.553
 -10648310.167 6  -8266915.986 6  23420923.831       -2660.766
 -17536416.359 8 -13692838.908 9  21267282.207         452.348
    909328.848 8  -9890750.394 9  21612268.276        1231.266
 93  5  8  6 27  0.0020000  0  7 26  3 21 22 28 23 17                0.002707490
   -509786.162 6  -1014135.862 6  24144353.902        2516.032
 -21621027.788 7  -9047845.785 6  22314262.268        2660.230
 -16939150.948 7 -11043789.805 7  22453613.036       -1717.134
  -2496681.377 5  -1947086.385 5  24627934.493        2218.220
 -10727972.751 6  -8328990.718 6  23405764.467       -2650.055
 -17522686.670 8 -13682140.445 9  21269894.579         462.999
    946395.179 8  -9861867.551 9  21619321.424        1239.913
 93  5  8  6 27 30.0020000  0  7 26  3 21 22 28 23 17                0.002713110
   -434099.975 6   -955159.614 6  24158756.712        2529.940
 -21540974.236 7  -8985466.395 6  22329495.784        2676.697
 -16990528.152 7 -11083823.957 7  22443836.507       -1707.667
  -2429997.710 5  -1895125.129 5  24640623.900        2227.727
 -10807324.725 6  -8390823.402 6  23390664.114       -2639.769
 -17508635.799 8 -13671191.708 9  21272568.477         474.226
    983725.847 8  -9832778.705 9  21626425.177        1248.989
 93  5  8  6 28  0.0020000  0  7 26  3 21 22 28 23 17                0.002718730
   -357997.084 6   -895858.663 6  24173238.749        2543.770
 -21460425.267 7  -8922700.975 6  22344823.741        2693.170
 -17041619.633 7 -11123635.478 7  22434113.647       -1698.290
  -2363032.445 5  -1842944.414 5  24653367.038        2236.684
 -10886359.361 6  -8452408.822 6  23375624.306       -2628.957
 -17494238.334 8 -13659972.904 9  21275308.009         485.590
   1021325.630 8  -9803480.178 9  21633580.204        1257.723
 93  5  8  6 28 30.0020000  0  7 26  3 21 22 28 23 17                0.002724340
   -281482.903 6   -836237.243 6  24187798.350        2557.096
 -21379383.473 7  -8859551.533 6  22360245.264        2709.360
 -17092424.935 7 -11163223.988 7  22424446.139       -1688.653
  -2295798.631 5  -1790554.421 5  24666160.438        2245.537
 -10965063.144 6  -8513736.413 6  23360647.131       -2617.971
 -17479505.036 8 -13648492.403 9  21278111.889         496.657
   1059180.920 8  -9773982.549 9  21640783.758        1265.953
 93  5  8  6 29  0.0020000  0  7 26  3 21 22 28 23 17                0.002729960
   -204565.948 6   -776301.958 6  24202435.706        2570.576
 -21297849.008 7  -8796018.192 6  22375760.525        2725.851
 -17142936.786 7 -11202583.870 8  22414833.842       -1678.862
  -2228296.786 5  -1737955.596 5  24679005.992        2254.408
 -11043439.042 6  -8574808.532 6  23345733.101       -2607.359
 -17464427.194 8 -13636743.430 9  21280981.233         508.423
   1097284.279 8  -9744291.619 9  21648034.738        1274.020
 93  5  8  6 29 30.0020000  0  7 26  3 21 22 28 23 17                0.002735550
   -127251.996 6   -716057.343 6  24217147.474        2583.829
 -21215824.832 7  -8732103.236 6  22391369.587        2742.215
 -17193151.016 7 -11241711.804 8  22405278.620       -1668.557
  -2160536.383 5  -1685155.275 5  24691900.587        2263.014
 -11121497.160 6  -8635632.995 6  23330879.187       -2596.433
 -17448993.587 8 -13624717.221 9  21283918.301         520.546
   1135623.389 8  -9714416.966 9  21655330.105        1281.903
 93  5  8  6 30  0.0020000  0  7 26  3 21 22 28 23 17                0.002741140
    -49531.865 6   -655496.233 6  24231937.252        2597.548
 -21133307.216 7  -8667803.814 6  22407072.097        2758.792
 -17243045.313 7 -11280590.499 8  22395784.212       -1657.740
  -2092517.238 5  -1632153.411 5  24704844.877        2271.734
 -11199214.254 6  -8696191.774 6  23316090.336       -2584.666
 -17433198.124 8 -13612409.067 9  21286924.140         532.443
   1174198.655 8  -9684358.334 9  21662670.713        1289.862
 93  5  8  6 30 30.0020000  0  7 26  3 21 22 28 23 17                0.002746720
     28586.969 6   -594624.405 5  24246802.980        2610.351
 -21050296.791 7  -8603120.378 6  22422868.693        2774.977
 -17292617.874 7 -11319218.434 8  22386350.732       -1647.099
  -2024242.375 5  -1578952.202 5  24717836.360        2279.958
 -11276586.618 6  -8756481.917 6  23301366.677       -2573.589
 -17417049.470 8 -13599825.710 9  21289997.201         544.237
   1213015.164 8  -9654111.718 9  21670057.451        1297.948
 93  5  8  6 31  0.0020000  0  7 26  3 21 22 28 23 17                0.002752270
    107097.197 6   -533447.608 6  24261742.942        2623.519
 -20966795.647 7  -8538054.556 6  22438758.231        2791.381
 -17341860.813 7 -11357589.545 8  22376979.959       -1635.961
  -1955710.710 5  -1525550.874 5  24730877.938        2288.659
 -11353617.349 7  -8816505.827 6  23286708.214       -2561.801
 -17400530.076 8 -13586953.439 9  21293140.554         556.875
   1252088.687 8  -9623664.828 9  21677493.224        1306.863
 93  5  8  6 31 30.0020000  0  7 26  3 21 22 28 23 17                0.002757800
    185995.264 6   -471968.613 6  24276756.431        2636.613
 -20882808.366 7  -8472609.928 6  22454740.386        2807.609
 -17390773.888 7 -11395703.617 8  22367672.184       -1624.910
  -1886919.609 5  -1471947.417 5  24743967.536        2297.456
 -11430286.159 7  -8876247.759 6  23272118.758       -2549.328
 -17383637.076 8 -13573790.060 9  21296354.720         569.346
   1291436.768 8  -9593003.984 9  21684980.930        1316.437
 93  5  8  6 32  0.0020000  0  7 26  3 21 22 28 23 17                0.002763320
    265301.056 6   -410171.907 5  24291847.341        2650.440
 -20798332.198 7  -8406784.351 6  22470815.519        2823.736
 -17439360.694 7 -11433563.449 8  22358426.314       -1614.669
  -1817864.621 5  -1418138.364 5  24757109.015        2306.050
 -11506577.705 7  -8935695.698 6  23257600.836       -2536.931
 -17366372.679 8 -13560337.280 9  21299640.047         581.520
   1331066.192 8  -9562123.921 9  21692522.347        1325.201
 93  5  8  6 32 30.0020000  0  7 26  3 21 22 28 23 17                0.002768840
    345021.346 6   -348052.232 5  24307018.010        2664.347
 -20713370.056 7  -8340580.117 6  22486983.434        2840.051
 -17487649.915 7 -11471191.379 8  22349236.997       -1604.739
  -1748547.485 5  -1364124.996 5  24770299.805        2314.992
 -11582494.391 6  -8994851.536 6  23243154.314       -2524.214
 -17348732.520 8 -13546591.699 9  21302997.083         594.476
   1370955.665 8  -9531041.218 9  21700113.564        1333.884
 93  5  8  6 33  0.0020000  0  7 26  3 21 22 28 23 17                0.002774370
    425166.732 6   -285601.271 5  24322268.701        2678.667
 -20627921.189 7  -8273996.594 6  22503243.739        2856.340
 -17535654.900 7 -11508597.852 8  22340102.209       -1595.628
  -1678966.415 5  -1309905.958 5  24783541.038        2323.765
 -11658024.623 7  -9053706.260 6  23228781.506       -2511.083
 -17330711.337 8 -13532549.208 9  21306426.658         606.953
   1411093.749 8  -9499764.795 9  21707751.306        1342.006
 93  5  8  6 33 30.0020000  0  7 26  3 21 22 28 23 17                0.002779920
    505744.809 6   -222813.203 5  24337603.332        2693.247
 -20541984.903 7  -8207033.254 6  22519596.789        2872.563
 -17583391.070 7 -11545794.836 8  22331017.887       -1586.730
  -1609123.350 5  -1255482.846 5  24796832.231        2332.255
 -11733164.806 7  -9112257.024 6  23214482.685       -2498.295
 -17312318.990 8 -13518217.510 9  21309926.644         619.186
   1451465.447 8  -9468306.336 9  21715433.819        1349.310
 93  5  8  6 34  0.0020000  0  7 26  3 21 22 28 23 17                0.002785490
    586750.740 6   -159691.690 5  24353018.325        2707.052
 -20455562.215 7  -8139690.915 6  22536042.223        2888.786
 -17630854.250 7 -11582779.098 8  22321986.062       -1577.343
  -1539025.089 5  -1200860.846 5  24810171.543        2340.982
 -11807925.795 7  -9170512.328 6  23200256.382       -2485.744
 -17293569.229 8 -13503607.295 9  21313494.595         630.956
   1492047.092 8  -9436684.270 9  21723156.313        1356.324
 93  5  8  6 34 30.0020000  0  7 26  3 21 22 28 23 17                0.002791080
    668154.201 6    -96260.458 5  24368508.520        2719.988
 -20368655.236 7  -8071971.205 6  22552580.662        2904.966
 -17678021.012 7 -11619532.395 8  22313010.414       -1566.775
  -1468664.438 5  -1146034.369 5  24823559.705        2349.888
 -11882309.771 7  -9228473.863 6  23186101.275       -2473.081
 -17274468.273 8 -13488723.436 9  21317129.620         642.455
   1532856.093 8  -9404885.060 9  21730921.535        1364.587
 93  5  8  6 35  0.0020000  0  7 26  3 21 22 28 23 17                0.002796670
    749944.417 6    -32527.822 5  24384072.189        2732.826
 -20281267.884 7  -8003877.173 6  22569209.702        2920.803
 -17724865.288 7 -11656034.430 8  22304096.555       -1555.865
  -1398034.965 5  -1090998.363 5  24837000.106        2358.855
 -11956321.718 7  -9286145.500 6  23172017.106       -2460.959
 -17255035.402 8 -13473580.948 9  21320827.548         653.242
   1573921.178 8  -9372886.306 9  21738735.606        1373.302
 93  5  8  6 35 30.0020000  0  7 26  3 21 22 28 23 17                0.002802280
    832116.785 6     31502.606 5  24399709.337        2745.306
 -20193402.830 7  -7935410.917 6  22585929.596        2936.726
 -17771368.142 7 -11692270.384 8  22295247.292       -1544.238
  -1327138.674 5  -1035754.545 5  24850490.571        2367.575
 -12029974.304 7  -9343537.099 6  23158001.359       -2449.095
 -17235275.506 8 -13458183.607 9  21324587.456         664.125
   1615253.803 8  -9340679.067 9  21746601.039        1382.391
 93  5  8  6 36  0.0020000  0  7 26  3 21 22 28 23 17                0.002807890
    914656.120 6     95818.927 5  24415415.462        2757.215
 -20105059.501 7  -7866571.952 6  22602741.058        2952.606
 -17817522.820 7 -11728235.050 8  22286464.591       -1532.966
  -1255984.424 5   -980309.736 5  24864031.726        2376.080
 -12103265.305 7  -9400646.977 6  23144054.863       -2436.954
 -17215193.256 8 -13442535.109 9  21328408.991         674.726
   1656871.903 8  -9308249.366 9  21754521.158        1392.159
 93  5  8  6 36 30.0020000  0  7 26  3 21 22 28 23 17                0.002813490
    997554.775 6    160415.311 5  24431191.868        2769.275
 -20016242.585 7  -7797363.982 6  22619642.638        2968.140
 -17863354.714 7 -11763948.195 8  22277742.960       -1522.792
  -1184587.509 5   -924675.767 5  24877618.169        2383.606
 -12176191.898 7  -9457472.856 6  23130177.263       -2424.944
 -17194791.314 8 -13426637.482 9  21332291.101         685.246
   1698781.501 8  -9275592.555 9  21762496.287        1401.508
 93  5  8  6 37  0.0020000  0  7 26  3 21 22 28 23 17                0.002819080
   1080815.430 6    225293.698 5  24447035.722        2781.303
 -19926958.688 7  -7727792.123 6  22636633.205        2983.793
 -17908891.363 7 -11799431.266 8  22269077.750       -1513.095
  -1112968.952 5   -868869.105 5  24891246.923        2390.848
 -12248759.989 7  -9514019.416 6  23116367.919       -2412.880
 -17174066.650 8 -13410488.394 9  21336234.891         696.380
   1740964.627 8  -9242722.587 9  21770523.641        1410.478
 93  5  8  6 37 30.0020000  0  7 26  3 21 22 28 23 17                0.002824650
   1164434.290 6    290451.245 5  24462947.766        2793.381
 -19837200.839 7  -7657850.969 6  22653713.460        2999.876
 -17954134.752 7 -11834685.841 8  22260468.078       -1503.148
  -1041136.476 5   -812895.796 5  24904915.963        2398.192
 -12320950.921 7  -9570272.089 6  23102630.512       -2399.779
 -17153001.023 8 -13394073.611 9  21340243.598         708.006
   1783413.367 8  -9209645.649 9  21778601.630        1419.490
 93  5  8  6 38  0.0020000  0  7 26  3 21 22 28 23 17                0.002830200
   1248410.009 6    355886.822 5  24478928.020        2805.298
 -19746973.271 7  -7587543.783 6  22670883.395        3015.162
 -17999090.104 7 -11869715.974 8  22251913.193       -1493.745
   -969099.733 5   -756763.298 5  24918624.072        2404.455
 -12392754.052 7  -9626222.575 6  23088966.912       -2387.033
 -17131600.252 8 -13377397.701 9  21344316.066         718.825
   1826116.825 8  -9176370.238 9  21786727.685        1427.427
 93  5  8  6 38 30.0020000  0  7 26  3 21 22 28 23 17                0.002835740
   1332765.540 6    421618.405 5  24494980.467        2818.362
 -19656280.042 7  -7516873.723 6  22688141.444        3030.786
 -18043745.045 7 -11904512.006 8  22243415.275       -1483.171
   -896867.468 5   -700478.456 5  24932369.208        2411.104
 -12464167.246 7  -9681869.193 6  23075377.221       -2373.941
 -17109861.646 8 -13360458.519 9  21348452.996         730.383
   1869063.796 8  -9142905.073 9  21794899.755        1435.660
 93  5  8  6 39  0.0020000  0  7 26  3 21 22 28 23 17                0.002841280
   1417510.448 6    487653.420 5  24511106.079        2831.201
 -19565123.133 7  -7445842.407 6  22705487.987        3046.016
 -18088079.481 7 -11939058.286 8  22234978.716       -1472.554
   -824430.395 5   -644033.977 5  24946153.590        2417.884
 -12535193.865 7  -9737214.614 6  23061861.556       -2361.114
 -17087784.883 8 -13343255.852 9  21352653.926         741.180
   1912253.518 8  -9109250.750 9  21803118.885        1443.544
 93  5  8  6 39 30.0020000  0  7 26  3 21 22 28 23 17                0.002846820
   1502647.705 6    553994.137 5  24527307.358        2844.759
 -19473506.843 7  -7374453.088 6  22722921.761        3061.519
 -18132091.558 7 -11973353.393 8  22226603.693       -1461.508
   -751796.198 5   -587435.919 5  24959974.798        2424.448
 -12605829.216 7  -9792255.129 7  23048420.339       -2348.004
 -17065387.664 8 -13325803.463 9  21356916.234         751.985
   1955683.687 8  -9075409.066 9  21811383.124        1451.856
 93  5  8  6 40  0.0020000  0  7 26  3 21 22 28 23 17                0.002852370
   1588188.914 6    620649.605 5  24543585.650        2857.961
 -19381430.159 7  -7302705.039 6  22740443.127        3076.774
 -18175778.481 7 -12007395.141 8  22218290.408       -1450.910
   -678968.111 5   -530686.740 5  24973834.037        2430.904
 -12676079.796 7  -9846995.831 7  23035051.873       -2335.189
 -17042671.133 8 -13308102.264 9  21361239.152         762.533
   1999363.363 8  -9041372.955 9  21819695.266        1460.273
 93  5  8  6 40 30.0020000  0  7 26  3 21 22 28 23 17                0.002857920
   1674115.785 6    687605.588 5  24559937.073        2870.385
 -19288896.013 6  -7230600.515 6  22758051.619        3091.992
 -18219148.455 7 -12041189.919 8  22210037.139       -1440.505
   -605931.269 5   -473774.878 5  24987732.832        2438.340
 -12745938.620 7  -9901431.281 7  23021757.928       -2322.030
 -17019634.269 8 -13290151.472 9  21365622.478         773.252
   2043298.505 8  -9007137.783 9  21828055.373        1468.750
 93  5  8  6 41  0.0020000  0  7 26  3 21 22 28 23 17                0.002863480
   1760398.390 6    754838.782 5  24576355.920        2881.950
 -19195910.464 6  -7158144.268 6  22775746.409        3106.946
 -18262224.054 7 -12074755.309 8  22201840.494       -1431.106
   -532680.613 5   -416696.455 5  25001670.707        2445.084
 -12815404.751 7  -9955560.719 7  23008539.160       -2308.734
 -16996287.246 8 -13271958.979 9  21370065.071         783.508
   2087484.832 8  -8972706.894 9  21836463.872        1477.254
 93  5  8  6 41 30.0020000  0  7 26  3 21 22 28 23 17                0.002869030
   1847027.593 6    822342.030 5  24592840.889        2893.535
 -19102470.940 6  -7085334.240 6  22793527.647        3122.207
 -18305017.109 7 -12108100.538 8  22193697.263       -1421.518
   -459229.163 5   -359461.574 5  25015649.146        2451.985
 -12884463.889 7 -10009373.027 7  22995397.785       -2295.121
 -16972621.367 8 -13253518.042 9  21374568.864         794.410
   2131933.806 8  -8938071.324 9  21844922.494        1486.229
 93  5  8  6 42  0.0020000  0  7 26  3 21 22 28 23 17                0.002874590
   1934006.011 6    890117.425 5  24609392.620        2905.193
 -19008576.974 6  -7012170.139 6  22811395.191        3137.414
 -18347521.701 7 -12141220.969 8  22185608.742       -1411.987
   -385554.026 5   -302052.417 5  25029668.739        2460.003
 -12953107.522 7 -10062861.568 7  22982335.231       -2280.813
 -16948627.777 8 -13234821.726 9  21379134.872         805.332
   2176653.285 8  -8903225.000 9  21853432.163        1495.334
 93  5  8  6 42 30.0020000  0  7 26  3 21 22 28 23 17                0.002880160
   2021334.888 6    958165.885 5  24626010.929        2916.787
 -18914227.408 6  -6938650.982 6  22829348.251        3152.361
 -18389741.830 7 -12174119.755 8  22177574.736       -1402.589
   -311647.855 5   -244463.135 5  25043732.057        2467.029
 -13021323.804 7 -10116017.093 7  22969354.136       -2267.055
 -16924310.832 8 -13215873.458 9  21383762.158         815.867
   2221642.123 8  -8868168.752 9  21861993.525        1503.953
 93  5  8  6 43  0.0020000  0  7 26  3 21 22 28 23 17                0.002885740
   2109020.322 6   1026492.174 5  24642696.565        2928.921
 -18819426.474 6  -6864780.159 6  22847389.481        3167.532
 -18431675.701 7 -12206795.479 8  22169594.751       -1392.799
   -237538.995 5   -186716.033 5  25057834.727        2473.780
 -13089127.670 7 -10168851.264 7  22956451.310       -2253.143
 -16899672.582 8 -13196674.820 9  21388450.395         826.750
   2266899.695 8  -8832903.113 9  21870606.003        1513.191
 93  5  8  6 43 30.0020000  0  7 26  3 21 22 28 23 17                0.002891330
   2197070.152 5   1095102.435 5  24659451.999        2941.231
 -18724173.358 7  -6790556.952 6  22865515.743        3182.555
 -18473305.093 7 -12239233.950 8  22161672.553       -1382.273
   -163216.688 5   -128802.579 5  25071978.295        2481.207
 -13156520.263 7 -10221364.979 7  22943626.939       -2239.519
 -16874710.389 8 -13177223.775 9  21393200.585         837.438
   2312420.571 8  -8797432.313 9  21879267.927        1521.625
 93  5  8  6 44  0.0020000  0  7 26  3 21 22 28 23 17                0.002896940
   2285482.730 6   1163995.338 5  24676276.556        2952.746
 -18628470.790 6  -6715983.529 6  22883726.985        3197.467
 -18514614.126 7 -12271422.784 8  22153811.865       -1371.744
    -88675.590 5    -70718.590 5  25086163.232        2488.098
 -13223499.391 7 -10273556.479 7  22930880.711       -2225.719
 -16849430.563 8 -13157525.207 9  21398010.995         847.887
   2358193.760 8  -8761764.901 9  21887978.358        1529.939
 93  5  8  6 44 30.0020000  0  8 26  3 21 22 28  1 23 17             0.002902510
   2374228.935 6   1233148.189 5  24693164.528        2963.528
 -18532317.404 6  -6641058.830 6  22902024.550        3212.487
 -18555604.806 7 -12303363.555 8  22146011.486       -1360.854
    -13942.986 5    -12485.392 5  25100384.243        2494.117
 -13290063.865 7 -10325424.896 7  22918214.333       -2211.900
 -27458212.61815   -200746.23911  25076503.082       -3441.401
 -16823832.699 8 -13137578.818 9  21402882.153         858.684
   2404217.187 7  -8725902.488 9  21896736.925        1538.225
 93  5  8  6 45  0.0020000  0  8 26  3 21 22 28  1 23 17             0.002908080
   2463289.660 6   1302546.174 5  24710112.175        2973.811
 -18435715.065 6  -6565784.300 6  22920406.844        3227.361
 -18596263.532 7 -12335045.667 8  22138274.273       -1349.817
     60974.967 5     45892.208 5  25114640.299        2500.389
 -13356208.016 7 -10376965.774 7  22905627.564       -2197.685
 -27561420.008 5   -281167.556 4  25056865.901       -3439.279
 -16797908.484 8 -13117378.134 9  21407815.697         869.560
   2450487.476 7  -8689847.725 9  21905541.491        1546.332
 93  5  8  6 45 30.0020000  0  8 26  3 21 22 28  1 23 17             0.002913640
   2552655.346 6   1372181.768 5  24727118.211        2983.915
 -18338667.837 6  -6490163.075 6  22938874.396        3242.266
 -18636593.490 7 -12366471.582 8  22130599.572       -1338.988
    136078.672 5    104414.539 5  25128932.783        2506.199
 -13421920.792 7 -10428170.536 7  22893122.660       -2182.949
 -27664571.882 5   -361545.632 5  25037236.932       -3437.485
 -16771658.125 8 -13096923.305 9  21412811.199         880.567
   2496995.331 8  -8653607.838 9  21914391.545        1554.456
 93  5  8  6 46  0.0020000  0  8 26  3 21 22 28  1 23 17             0.002919160
   2642317.973 6   1442048.715 5  24744180.063        2993.677
 -18241173.957 6  -6414193.830 6  22957426.716        3257.113
 -18676608.295 7 -12397651.935 8  22122984.807       -1328.665
    211333.674 5    163054.784 5  25143253.583        2510.912
 -13487186.030 7 -10479026.575 7  22880703.150       -2168.146
 -27767672.192 5   -441883.501 5  25017615.315       -3435.708
 -16745074.405 8 -13076208.728 9  21417870.106         891.677
   2543762.675 8  -8617165.751 9  21923290.391        1563.300
 93  5  8  6 46 30.0020000  0  8 26  3 21 22 28  1 23 17             0.002924660
   2732282.217 6   1512150.700 5  24761299.158        3004.249
 -18143235.876 6  -6337878.456 6  22976063.623        3272.020
 -18716315.114 7 -12428592.300 8  22115429.097       -1318.179
    286737.270 5    221810.836 5  25157601.943        2516.311
 -13552011.303 7 -10529539.739 7  22868367.267       -2153.327
 -27870716.148 5   -522177.484 5  24998006.440       -3433.714
 -16718154.455 8 -13055232.140 9  21422992.719         903.160
   2590791.915 8  -8580519.597 9  21932239.955        1572.207
 93  5  8  6 47  0.0020000  0  8 26  3 21 22 28  1 23 17             0.002930150
   2822578.629 6   1582511.532 5  24778482.014        3015.576
 -18044855.848 6  -6261218.716 6  22994785.128        3286.469
 -18755710.229 7 -12459289.794 8  22107932.834       -1308.278
    362302.431 5    280692.776 5  25171980.661        2521.343
 -13616393.289 7 -10579707.530 7  22856115.791       -2138.763
 -27973699.192 5   -602424.017 5  24978410.954       -3431.987
 -16690894.064 8 -13033990.296 9  21428180.040         914.137
   2638092.013 8  -8543662.399 9  21941240.743        1581.254
 93  5  8  6 47 30.0020000  0  8 26  3 21 22 28  1 23 17             0.002935640
   2913222.477 6   1653143.105 5  24795731.514        3027.402
 -17946037.625 6  -6184217.504 6  23013589.553        3301.066
 -18794809.795 7 -12489756.958 9  22100492.508       -1298.412
    438019.955 5    339693.396 5  25186388.837        2526.308
 -13680337.137 7 -10629533.887 7  22843947.455       -2124.253
 -28076632.370 5   -682631.669 5  24958822.307       -3430.272
 -16663307.120 8 -13012493.946 9  21433429.425         924.809
   2685672.820 8  -8506586.438 9  21950295.116        1590.765
 93  5  8  6 48  0.0020000  0  8 26  3 21 22 28  1 23 17             0.002941140
   3004222.607 6   1724052.242 5  24813047.966        3039.405
 -17846784.767 6  -6106877.627 6  23032476.528        3315.679
 -18833613.975 7 -12519993.949 9  22093108.160       -1288.327
    513890.349 5    398813.177 5  25200826.809        2531.973
 -13743851.150 7 -10679025.341 7  22831861.025       -2110.053
 -28179509.624 5   -762795.752 5  24939245.524       -3428.250
 -16635410.990 8 -12990756.715 9  21438737.878         934.939
   2733539.655 8  -8469287.626 9  21959403.870        1600.226
 93  5  8  6 48 30.0020000  0  8 26  3 21 22 28  1 23 17             0.002946650
   3095583.826 6   1795242.812 5  24830433.802        3051.265
 -17747096.878 6  -6029198.762 6  23051447.074        3329.964
 -18872117.880 7 -12549996.970 9  22085780.991       -1278.530
    589939.891 5    458072.526 5  25215298.242        2537.931
 -13806938.436 7 -10728184.243 7  22819856.190       -2095.536
 -28282323.231 5   -842910.190 5  24919680.429       -3426.160
 -16607217.919 8 -12968788.088 9  21444103.066         944.494
   2781682.581 8  -8431773.659 9  21968565.392        1609.374
 93  5  8  6 49  0.0020000  0  8 26  3 21 22 28  1 23 17             0.002952180
   3187293.975 6   1866705.247 5  24847885.603        3062.826
 -17646976.884 6  -5951183.202 6  23070499.204        3344.659
 -18910318.789 7 -12579763.912 9  22078511.604       -1268.128
    666166.295 5    517469.653 5  25229804.613        2543.908
 -13869577.216 7 -10776993.687 7  22807936.638       -2080.196
 -28385079.604 5   -922980.095 5  24900123.315       -3424.054
 -16578748.776 8 -12946604.343 9  21449520.326         953.559
   2830104.130 8  -8394042.588 9  21977779.919        1618.788
 93  5  8  6 49 30.0020000  0  8 26  3 21 22 28  1 23 17             0.002957730
   3279337.467 6   1938427.427 5  24865400.953        3073.394
 -17546420.770 6  -5872827.819 6  23089634.429        3358.914
 -18948213.786 7 -12609292.458 9  22071300.618       -1258.131
    742567.018 5    577002.732 5  25244343.018        2549.561
 -13931759.910 7 -10825447.720 7  22796103.443       -2065.151
 -28487774.021 5  -1003001.712 5  24880581.778       -3422.125
 -16550013.282 8 -12924213.057 9  21454988.770         962.213
   2878796.504 8  -8356100.486 9  21987045.855        1627.362
 93  5  8  6 50  0.0020000  0  8 26  3 21 22 28  1 23 17             0.002963290
   3371688.106 6   2010388.940 5  24882974.983        3083.354
 -17445432.739 6  -5794135.850 6  23108852.324        3373.393
 -18985806.180 7 -12638585.213 9  22064146.841       -1247.885
    819143.292 5    636672.568 5  25258913.557        2555.662
 -13993483.164 7 -10873543.756 7  22784358.157       -2049.551
 -28590404.199 5  -1082973.239 5  24861054.132       -3419.867
 -16521012.637 8 -12901615.141 9  21460507.239         971.164
   2927748.375 8  -8317956.162 9  21996361.537        1636.087
 93  5  8  6 50 30.0020000  0  8 26  3 21 22 28  1 23 17             0.002968850
   3464334.649 5   2082581.025 5  24900604.471        3093.320
 -17344011.736 6  -5715106.502 6  23128151.634        3387.892
 -19023086.470 7 -12667634.748 9  22057052.570       -1237.250
    895899.102 5    696482.231 5  25273522.265        2561.487
 -14054732.652 7 -10921270.618 7  22772702.416       -2033.563
 -28692968.127 5  -1162893.187 5  24841533.218       -3417.595
 -16491741.668 8 -12878806.598 9  21466077.174         980.515
   2976960.920 8  -8279608.737 9  22005726.205        1644.938
 93  5  8  6 51  0.0020000  0  8 26  3 21 22 28  1 23 17             0.002974400
   3557272.333 6   2154999.959 5  24918289.999        3102.896
 -17242165.412 6  -5635745.743 6  23147532.708        3401.817
 -19060051.619 7 -12696438.756 9  22050018.260       -1227.058
    972815.159 5    756416.814 5  25288158.603        2566.244
 -14115524.010 7 -10968640.497 7  22761134.414       -2019.037
 -28795473.876 5  -1242767.806 5  24822027.847       -3415.803
 -16462191.550 8 -12855780.537 9  21471700.422         989.850
   3026426.771 8  -8241063.923 9  22015139.397        1653.042
 93  5  8  6 51 30.0020000  0  8 26  3 21 22 28  1 23 17             0.002979950
   3650510.010 6   2227652.701 5  24936032.775        3113.012
 -17139897.646 6  -5556056.592 6  23166993.585        3415.688
 -19096712.126 7 -12725005.351 9  22043042.316       -1217.097
   1049877.464 5    816465.417 5  25302822.356        2571.028
 -14175882.597 7 -11015673.168 7  22749648.707       -2004.865
 -28897910.051 5  -1322588.147 5  24802537.602       -3413.367
 -16432340.560 8 -12832520.034 9  21477381.099        1000.100
   3076139.029 8  -8202327.097 9  22024598.705        1661.141
 93  5  8  6 52  0.0020000  0  8 26  3 21 22 28  1 23 17             0.002985480
   3744061.467 6   2300549.903 5  24953834.820        3123.922
 -17037209.323 6  -5476039.728 6  23186534.143        3429.912
 -19133067.488 7 -12753334.179 9  22036124.078       -1206.544
   1127085.326 5    876627.375 5  25317512.779        2575.974
 -14235809.588 7 -11062369.519 7  22738245.038       -1990.254
 -29000269.290 5  -1402348.594 5  24783059.455       -3410.638
 -16402177.170 8 -12809016.090 9  21483121.507        1010.790
   3126103.559 8  -8163393.688 9  22034106.905        1669.778
 93  5  8  6 52 30.0020000  0  8 26  3 21 22 28  1 23 17             0.002991030
   3837953.485 5   2373712.477 5  24971701.451        3135.603
 -16934097.028 6  -5395692.494 6  23206155.591        3444.136
 -19169106.441 7 -12781416.442 9  22029266.005       -1196.017
   1204431.646 5    936897.235 5  25332232.180        2580.476
 -14295300.367 7 -11108725.972 7  22726924.578       -1975.654
 -29102543.031 5  -1482042.384 5  24763596.468       -3407.454
 -16371684.925 8 -12785255.906 9  21488923.828        1022.284
   3176324.017 7  -8124260.880 9  22043663.242        1678.362
 93  5  8  6 53  0.0020000  0  8 26  3 21 22 28  1 23 17             0.002996580
   3932184.652 5   2447139.369 5  24989633.768        3146.602
 -16830564.363 6  -5315017.701 6  23225857.441        3457.950
 -19204840.471 7 -12809261.113 9  22022466.023       -1186.224
   1281902.894 5    997264.478 5  25346975.359        2584.347
 -14354356.435 7 -11154743.659 7  22715686.268       -1961.166
 -29204723.979 5  -1561663.897 5  24744152.819       -3404.470
 -16340852.625 8 -12761230.734 9  21494790.974        1033.182
   3226792.118 7  -8084935.084 9  22053266.992        1686.421
 93  5  8  6 53 30.0030000  0  8 26  3 21 22 28  1 23 17             0.003002140
   4026750.135 5   2520826.756 5  25007629.006        3157.474
 -16726614.515 6  -5234017.824 6  23245638.850        3471.709
 -19240285.099 7 -12836880.281 9  22015721.184       -1176.447
   1359496.505 5   1057727.048 5  25361740.139        2588.726
 -14412958.877 7 -11200407.917 7  22704534.570       -1945.421
 -29306817.592 5  -1641217.363 5  24724726.099       -3401.496
 -16309695.347 8 -12736952.332 9  21500719.851        1043.894
   3277511.888 7  -8045413.196 9  22062918.427        1695.063
 93  5  8  6 54  0.0030000  0  8 26  3 21 22 28  1 23 17             0.003007690
   4121621.646 5   2594752.545 5  25025682.072        3167.336
 -16622257.230 6  -5152700.512 6  23265496.714        3485.373
 -19275432.922 7 -12864268.180 9  22009032.531       -1166.503
   1437210.133 5   1118283.094 5  25376528.221        2592.413
 -14471082.568 7 -11245699.102 7  22693474.066       -1929.266
 -29408825.109 6  -1720703.767 5  24705314.653       -3398.796
 -16278230.059 8 -12712433.944 9  21506707.388        1053.966
   3328493.780 7  -8005687.058 9  22072620.132        1703.808
 93  5  8  6 54 30.0030000  0  8 26  3 21 22 28  1 23 17             0.003013240
   4216784.044 5   2668905.049 5  25043790.852        3176.512
 -16517488.011 6  -5071062.143 6  23285433.012        3498.860
 -19310273.821 7 -12891416.906 9  22002402.614       -1156.467
   1515046.383 5   1178934.765 5  25391342.942        2596.572
 -14528710.878 7 -11290604.276 7  22682507.568       -1912.708
 -29510742.712 5  -1800120.062 5  24685919.567       -3395.860
 -16246456.989 8 -12687675.702 9  21512753.460        1063.983
   3379740.428 7  -7965754.618 9  22082372.335        1712.533
 93  5  8  6 55  0.0030000  0  8 26  3 21 22 28  1 23 17             0.003018770
   4312215.127 5   2743266.916 5  25061951.640        3185.506
 -16412308.782 6  -4989104.319 6  23305448.171        3512.674
 -19344812.514 7 -12918330.156 9  21995829.934       -1146.345
   1593010.256 5   1239685.803 5  25406176.933        2600.742
 -14585841.276 7 -11335121.468 7  22671636.014       -1896.074
 -29612564.266 5  -1879461.525 5  24666542.737       -3392.404
 -16214397.936 8 -12662694.630 9  21518854.467        1073.003
   3431257.180 7  -7925611.701 9  22092175.449        1721.886
 93  5  8  6 55 30.0030000  0  8 26  3 21 22 28  1 23 17             0.003024300
   4407905.564 5   2817830.849 5  25080160.407        3193.924
 -16306720.932 6  -4906828.076 5  23325541.055        3526.330
 -19379051.021 7 -12945009.488 9  21989314.763       -1136.145
   1671089.712 5   1300527.004 5  25421035.114        2604.576
 -14642474.241 7 -11379251.039 7  22660859.126       -1879.528
 -29714288.229 5  -1958726.940 5  24647185.865       -3389.032
 -16182074.927 8 -12637507.850 9  21525005.000        1081.964
   3483057.285 7  -7885247.969 9  22102032.413        1731.422
 93  5  8  6 56  0.0030000  0  8 26  3 21 22 28  1 23 17             0.003029800
   4503843.476 5   2892587.629 5  25098416.552        3202.065
 -16200726.295 6  -4824234.876 5  23345711.048        3539.708
 -19412979.641 7 -12971447.347 9  21982858.665       -1125.886
   1749277.836 5   1361452.799 5  25435915.004        2607.877
 -14698624.079 7 -11423004.159 7  22650174.099       -1863.786
 -29815907.730 5  -2037910.989 5  24627847.072       -3385.575
 -16149488.123 8 -12612115.550 9  21531205.955        1090.572
   3535130.939 7  -7844671.111 9  22111941.822        1739.883
 93  5  8  6 56 30.0030000  0  8 26  3 21 22 28  1 23 17             0.003035290
   4600036.900 5   2967543.542 5  25116721.287        3211.003
 -16094331.159 6  -4741329.560 5  23365957.805        3553.144
 -19446602.687 7 -12997647.103 9  21976460.283       -1115.645
   1827564.945 5   1422455.772 5  25450812.024        2611.274
 -14754302.715 7 -11466390.105 8  22639578.966       -1848.146
 -29917414.168 5  -2117006.884 5  24608531.041       -3381.566
 -16116639.541 8 -12586519.251 9  21537456.790        1099.397
   3587456.322 7  -7803898.061 9  22121898.847        1748.753
 93  5  8  6 57  0.0030000  0  8 26  3 21 22 28  1 23 17             0.003040770
   4696500.546 5   3042709.959 5  25135077.251        3219.879
 -15987533.299 6  -4658110.480 5  23386280.261        3566.388
 -19479922.151 7 -13023610.297 9  21970119.662       -1105.693
   1905955.600 5   1483539.405 5  25465729.139        2614.659
 -14809513.927 7 -11509411.825 8  22629072.797       -1832.500
 -30018809.464 5  -2196016.180 5  24589235.184       -3378.185
 -16083529.609 8 -12560719.302 9  21543757.646        1108.010
   3640053.334 7  -7762913.395 9  22131908.087        1757.672
 93  5  8  6 57 30.0030000  0  8 26  3 21 22 28  1 23 17             0.003046260
   4793235.843 5   3118088.069 5  25153485.910        3228.949
 -15880334.968 6  -4574579.320 5  23406679.589        3579.572
 -19512936.209 7 -13049335.521 9  21963837.361       -1095.485
   1984459.994 5   1544711.709 5  25480667.485        2618.723
 -14864240.893 7 -11552056.201 8  22618658.848       -1816.375
 -30120099.189 5  -2274943.207 5  24569962.181       -3374.723
 -16050137.180 8 -12534699.227 9  21550112.318        1117.843
   3692919.425 7  -7721719.032 9  22141968.145        1766.389
 93  5  8  6 58  0.0030000  0  8 26  3 21 22 28  1 23 17             0.003051740
   4890256.673 5   3193688.691 5  25171948.429        3238.835
 -15772740.899 6  -4490739.804 5  23427153.891        3592.858
 -19545641.365 7 -13074820.053 9  21957613.462       -1085.233
   2063096.160 5   1605986.658 5  25495632.761        2623.210
 -14918481.413 7 -11594321.543 8  22608336.983       -1799.726
 -30221284.766 5  -2353789.082 5  24550706.605       -3371.198
 -16016453.566 8 -12508452.253 9  21556522.022        1127.471
   3746047.806 7  -7680320.295 9  22152077.855        1775.285
 93  5  8  6 58 30.0030000  0  8 26  3 21 22 28  1 23 17             0.003057240
   4987570.832 6   3269517.872 5  25190466.250        3248.748
 -15664754.838 6  -4406594.840 5  23447702.661        3606.059
 -19578048.918 7 -13100072.654 9  21951446.301       -1075.307
   2141865.447 5   1667365.328 5  25510621.356        2627.979
 -14972217.198 7 -11636193.578 8  22598111.172       -1782.509
 -30322376.515 5  -2432561.896 5  24531470.100       -3368.109
 -15982485.663 8 -12481983.750 9  21562985.746        1137.041
   3799449.334 7  -7638708.714 9  22162239.931        1784.890
 93  5  8  6 59  0.0030000  0  8 26  3 21 22 28  1 23 17             0.003062760
   5085181.154 5   3345577.830 5  25209041.961        3258.443
 -15556370.265 6  -4322139.323 5  23468327.844        3619.231
 -19610157.455 7 -13125092.299 9  21945336.320       -1065.327
   2220776.735 5   1728854.654 5  25525638.182        2632.640
 -15025430.255 7 -11677658.287 8  22587985.183       -1765.080
 -30423367.283 5  -2511255.978 5  24512254.533       -3364.713
 -15948225.268 8 -12455287.357 9  21569504.913        1146.869
   3853138.374 7  -7596873.113 9  22172456.758        1794.137
 93  5  8  6 59 30.0030000  0  8 26  3 21 22 28  1 23 17             0.003068280
   5183089.593 5   3421870.052 5  25227672.657        3268.590
 -15447588.413 6  -4237374.270 5  23489029.323        3632.440
 -19641959.204 7 -13149872.844 9  21939284.649       -1054.895
   2299815.629 5   1790443.466 5  25540678.219        2636.457
 -15078122.464 7 -11718717.154 8  22577958.266       -1747.955
 -30524253.032 5  -2589868.240 5  24493054.187       -3361.098
 -15913667.396 8 -12428359.143 9  21576080.959        1156.655
   3907104.278 7  -7554821.743 9  22182726.068        1803.404
 93  5  8  7  0  0.0030000  0  8 26  3 21 22 28  1 23 17             0.003073820
   5281298.235 5   3498396.287 5  25246360.910        3278.163
 -15338409.809 6  -4152300.030 5  23509804.700        3645.609
 -19673444.648 7 -13174406.938 9  21933293.138       -1044.305
   2378957.613 5   1852112.609 5  25555737.061        2639.454
 -15130299.871 7 -11759374.867 8  22568029.338       -1730.654
 -30625025.571 6  -2668392.263 5  24473877.908       -3357.199
 -15878828.080 8 -12401211.620 9  21582710.890        1165.863
   3961347.326 7  -7512554.429 9  22193048.554        1812.551
 93  5  8  7  0 30.0030000  0  8 26  3 21 22 28  1 23 17             0.003079360
   5379770.468 6   3575127.880 5  25265100.112        3286.756
 -15228845.741 6  -4066925.479 5  23530654.137        3658.402
 -19704619.007 7 -13198698.649 9  21927360.802       -1033.935
   2458186.297 5   1913849.288 5  25570815.523        2642.283
 -15181971.737 7 -11799638.647 8  22558195.816       -1714.287
 -30725677.258 6  -2746822.165 5  24454723.886       -3352.818
 -15843713.777 8 -12373849.820 9  21589392.624        1175.058
   4015856.339 7  -7470079.885 9  22203421.590        1821.288
 93  5  8  7  1  0.0030000  0  8 26  3 21 22 28  1 23 17             0.003084890
   5478511.781 5   3652069.123 5  25283889.868        3296.050
 -15118893.048 6  -3981248.075 5  23551576.811        3671.473
 -19735468.552 7 -13222737.235 9  21921490.088       -1022.678
   2537502.822 5   1975654.317 5  25585909.903        2645.235
 -15233154.750 7 -11839521.532 8  22548456.119       -1697.967
 -30826190.035 6  -2825143.759 5  24435597.290       -3348.013
 -15808321.842 8 -12346271.693 9  21596127.762        1184.318
   4070625.495 7  -7427402.626 9  22213843.256        1829.911
 93  5  8  7  1 30.0030000  0  8 26  3 21 22 28  1 23 17             0.003090420
   5577520.455 5   3729218.686 5  25302731.137        3304.402
 -15008556.359 6  -3895271.425 5  23572573.188        3684.136
 -19765984.571 7 -13246515.939 9  21915682.929       -1011.821
   2616890.794 5   2037515.123 5  25601016.683        2647.421
 -15283848.708 7 -11879023.307 8  22538809.455       -1681.589
 -30926551.670 6  -2903347.663 5  24416499.526       -3342.704
 -15772664.208 8 -12318486.523 9  21602913.155        1192.806
   4125648.063 7  -7384527.895 9  22224313.786        1838.214
 93  5  8  7  2  0.0030000  0  8 26  3 21 22 28  1 23 17             0.003095950
   5676776.050 6   3806560.716 5  25321618.356        3312.721
 -14897837.887 6  -3808997.320 5  23593642.951        3697.012
 -19796172.931 7 -13270039.321 9  21909938.575       -1000.774
   2696357.123 5   2099436.968 5  25616138.040        2650.563
 -15334040.745 7 -11918133.980 8  22529258.390       -1664.493
 -31026744.468 6  -2981419.965 5  24397433.757       -3336.668
 -15736746.705 8 -12290498.852 9  21609748.511        1201.792
   4180927.738 7  -7341452.828 8  22234832.467        1847.194
 93  5  8  7  2 30.0030000  0  8 26  3 21 28  1 31 23 17             0.003101410
   5776281.124 5   3884097.125 5  25340554.319        3321.231
 -14786738.348 6  -3722426.277 5  23614785.620        3709.426
 -19826045.534 7 -13293316.651 9  21904254.231        -990.697
 -15383729.944 7 -11956852.837 8  22519802.925       -1648.095
 -31126766.927 6  -3059359.541 5  24378400.732       -3331.485
   -469368.46415   -378150.58515  25549622.574       -2981.054
 -15700565.916 8 -12262306.045 9  21616633.656        1210.216
   4236468.160 7  -7298174.567 8  22245401.868        1855.565
 93  5  8  7  3  0.0030000  0  8 26  3 21 28  1 31 23 17             0.003106950
   5876053.933 5   3961842.132 5  25359539.838        3329.912
 -14675258.684 6  -3635559.004 5  23635999.884        3722.050
 -19855604.418 7 -13316349.529 9  21898629.204        -980.143
 -15432908.977 7 -11995174.165 8  22510444.594       -1630.632
 -31226628.228 6  -3137173.532 5  24359397.429       -3326.231
   -558689.488 5   -447751.268 5  25532625.521       -2973.857
 -15664126.130 8 -12233911.402 9  21623567.575        1219.052
   4292269.832 7  -7254692.770 8  22256020.347        1864.358
 93  5  8  7  3 30.0030000  0  8 26  3 21 28  1 31 23 17             0.003112490
   5976072.211 5   4039778.383 5  25378572.135        3337.998
 -14563404.486 6  -3548399.900 5  23657283.782        3734.624
 -19884854.022 7 -13339141.398 9  21893063.078        -969.956
 -15481560.121 7 -12033084.137 8  22501186.343       -1612.757
 -31326329.267 6  -3214862.632 5  24340424.415       -3320.819
   -647795.192 6   -517184.269 5  25515669.420       -2966.551
 -15627410.325 8 -12205301.687 9  21630554.039        1228.609
   4348339.275 7  -7211002.287 8  22266690.000        1873.593
 93  5  8  7  4  0.0030000  0  8 26  3 21 28  1 31 23 17             0.003118030
   6076334.944 5   4117905.193 5  25397651.942        3346.453
 -14451178.966 6  -3460951.465 5  23678639.473        3746.924
 -19913809.455 7 -13361704.055 9  21887553.172        -960.324
 -15529684.457 7 -12070583.615 8  22492028.662       -1595.458
 -31425882.057 6  -3292436.243 5  24321480.339       -3316.148
   -736684.458 5   -586448.652 5  25498752.792       -2959.248
 -15590412.032 8 -12176471.841 9  21637594.586        1238.061
   4404680.497 7  -7167100.037 8  22277412.078        1882.540
 93  5  8  7  4 30.0030000  0  8 26  3 21 28  1 31 23 17             0.003123560
   6176855.651 5   4196233.003 5  25416779.906        3354.922
 -14338585.496 6  -3373216.316 5  23700065.507        3759.075
 -19942475.430 7 -13384041.157 9  21882098.427        -950.702
 -15577291.350 7 -12107679.913 8  22482969.243       -1578.387
 -31525305.032 6  -3369908.700 5  24302561.144       -3312.034
   -825355.466 5   -655542.891 5  25481878.566       -2952.074
 -15553131.013 8 -12147421.705 9  21644688.914        1247.461
   4461283.308 7  -7122993.962 8  22288183.142        1891.083
 93  5  8  7  5  0.0030000  0  8 26  3 21 28  1 31 23 17             0.003129090
   6277623.724 5   4274753.512 5  25435954.493        3363.007
 -14225622.818 6  -3285193.488 5  23721561.763        3771.602
 -19970843.886 7 -13406146.430 9  21876700.216        -940.574
 -15624380.854 7 -12144373.024 8  22474008.068       -1560.716
 -31624595.051 6  -3447277.546 5  24283666.291       -3307.132
   -913802.647 5   -724462.785 5  25465048.410       -2944.265
 -15515558.816 8 -12118144.669 9  21651838.734        1257.542
   4518153.798 7  -7078679.297 8  22299005.049        1900.346
 93  5  8  7  5 30.0030000  0  8 26  3 21 28  1 31 23 17             0.003134600
   6378621.578 5   4353453.091 5  25455173.688        3370.513
 -14112292.968 6  -3196884.523 5  23743127.556        3783.803
 -19998931.603 7 -13428032.946 9  21871355.475        -931.695
 -15670948.465 7 -12180659.467 8  22465146.592       -1543.414
 -31723750.838 6  -3524541.782 5  24264797.081       -3303.002
  -1002022.411 5   -793205.393 5  25448259.198       -2936.680
 -15477700.572 8 -12088644.738 9  21659043.035        1266.436
   4575295.985 7  -7034152.929 8  22309878.653        1909.407
 93  5  8  7  6  0.0030000  0  8 26  3 21 28  1 31 23 17             0.003140120
   6479850.454 5   4432332.726 5  25474437.569        3377.995
 -13998597.038 6  -3108290.308 5  23764762.739        3795.773
 -20026746.102 7 -13449706.544 9  21866062.291        -922.368
 -15716994.068 7 -12216539.148 8  22456384.378       -1526.260
 -31822783.205 6  -3601709.892 5  24245951.921       -3299.025
  -1090010.887 5   -861767.737 5  25431517.493       -2929.087
 -15439587.441 8 -12058946.189 9  21666295.607        1274.569
   4632710.353 7  -6989414.462 8  22320804.198        1918.348
 93  5  8  7  6 30.0030000  0  8 26  3 21 28  1 31 23 17             0.003145620
   6581296.099 5   4511381.289 5  25493742.757        3385.283
 -13884540.320 6  -3019414.988 5  23786467.001        3807.921
 -20054272.653 7 -13471155.796 9  21860824.397        -912.642
 -15762522.225 7 -12252015.640 8  22447720.927       -1508.659
 -31921684.904 6  -3678776.126 5  24227131.771       -3294.144
  -1177769.347 5   -930150.906 5  25414815.756       -2921.213
 -15401231.138 8 -12029058.173 9  21673594.691        1282.730
   4690400.314 7  -6944461.255 8  22331782.418        1927.835
 93  5  8  7  7  0.0030000  0  8 26  3 21 28  1 31 23 17             0.003151130
   6682963.346 5   4590602.451 5  25513089.215        3392.741
 -13770119.151 6  -2930255.647 5  23808241.785        3819.982
 -20081504.067 7 -13492375.062 9  21855642.164        -902.659
 -15807507.374 7 -12287069.003 8  22439160.642       -1490.136
 -32020430.234 6  -3755720.563 5  24208341.804       -3288.746
  -1265288.624 5   -998347.682 5  25398161.100       -2913.298
 -15362632.295 8 -11998981.159 9  21680939.769        1290.469
   4748380.275 7  -6899282.075 8  22342815.502        1937.580
 93  5  8  7  7 30.0030000  0  8 26  3 21 28  1 31 23 17             0.003156640
   6784864.766 5   4670006.101 5  25532480.311        3400.668
 -13655337.750 6  -2840815.594 5  23830084.083        3831.755
 -20108431.045 7 -13513357.122 9  21850518.111        -892.342
 -15851935.989 7 -12321688.709 8  22430706.294       -1471.906
 -32119013.066 6  -3832538.346 5  24189580.483       -3283.602
  -1352567.775 5  -1066357.372 5  25381552.680       -2905.439
 -15323808.355 8 -11968728.737 9  21688327.653        1297.671
   4806650.776 7  -6853876.487 8  22353904.053        1946.992
 93  5  8  7  8  0.0030000  0  8 26  3 21 28  1 31 23 17             0.003162150
   6887016.815 5   4749605.158 5  25551918.922        3409.613
 -13540204.471 6  -2751101.375 5  23851993.039        3843.714
 -20135029.400 7 -13534083.083 9  21845456.904        -880.731
 -15895821.432 7 -12355885.156 8  22422355.427       -1453.728
 -32217432.841 6  -3909229.079 5  24170851.917       -3277.558
  -1439610.897 5  -1134183.152 5  25364989.834       -2897.283
 -15284758.047 8 -11938299.933 9  21695758.458        1305.989
   4865202.130 7  -6808252.067 8  22365046.063        1956.524
 93  5  8  7  8 30.0030000  0  8 26  3 21 28  1 31 23 17             0.003167680
   6989431.910 5   4829409.078 5  25571408.919        3418.186
 -13424713.905 6  -2661108.748 5  23873969.627        3855.609
 -20161284.878 7 -13554541.889 9  21840460.195        -869.617
 -15939162.341 7 -12389657.297 8  22414107.937       -1435.352
 -32315667.146 6  -3985775.294 6  24152158.240       -3271.303
  -1526406.795 5  -1201816.251 5  25348472.901       -2889.011
 -15245451.733 8 -11907671.636 9  21703238.120        1314.659
   4924032.652 7  -6762410.114 8  22376241.490        1965.609
 93  5  8  7  9  0.0030000  0  8 26  3 21 28  1 31 23 17             0.003173210
   7092096.650 5   4909407.493 5  25590945.232        3426.168
 -13308869.967 6  -2570840.769 5  23896013.718        3867.126
 -20187210.248 7 -13574743.460 9  21835526.689        -858.590
 -15981950.557 7 -12422998.765 8  22405965.852       -1417.281
 -32413725.387 6  -4062184.329 6  24133498.265       -3265.810
  -1612954.925 5  -1269256.275 5  25332004.238       -2880.831
 -15205883.763 8 -11876839.455 9  21710768.248        1323.290
   4983132.598 7  -6716358.213 8  22387488.012        1974.455
 93  5  8  7  9 30.0030000  0  8 26  3 21 28  1 31 23 17             0.003178740
   7194999.294 5   4989591.412 5  25610526.032        3433.612
 -13192674.705 6  -2480299.022 5  23918125.169        3878.623
 -20212804.220 7 -13594686.808 9  21830656.191        -847.937
 -16024201.032 7 -12455921.212 8  22397925.618       -1399.624
 -32511612.520 6  -4138460.018 6  24114872.760       -3260.190
  -1699252.539 6  -1336501.216 5  25315582.300       -2872.593
 -15166047.974 8 -11845798.577 9  21718348.759        1332.239
   5042498.242 7  -6670099.270 8  22398784.914        1982.897
 93  5  8  7 10  0.0030000  0  8 26  3 21 28  1 31 23 17             0.003184270
   7298108.311 5   5069936.141 5  25630148.688        3439.994
 -13076138.852 6  -2389491.896 5  23940300.561        3890.083
 -20238093.459 7 -13614392.674 9  21825843.804        -838.274
 -16065924.920 7 -12488433.341 8  22389985.784       -1381.968
 -32609327.348 6  -4214601.449 6  24096278.411       -3254.240
  -1785305.069 5  -1403555.074 5  25299207.267       -2864.224
 -15125947.306 8 -11814551.308 9  21725979.446        1341.001
   5102113.507 7  -6623645.843 8  22410129.253        1991.470
 93  5  8  7 10 30.0030000  0  8 26  3 21 28  1 31 23 17             0.003189780
   7401398.501 5   5150421.960 5  25649803.293        3445.946
 -12959260.067 6  -2298417.532 5  23962542.439        3901.478
 -20263100.510 7 -13633878.665 9  21821084.967        -829.060
 -16107107.716 7 -12520523.831 8  22382149.111       -1363.553
 -32706865.343 6  -4290605.090 6  24077717.299       -3248.339
  -1871104.992 5  -1470412.109 5  25282879.629       -2855.797
 -15085587.117 8 -11783101.811 9  21733659.822        1349.544
   5161993.046 7  -6576986.467 8  22421523.632        2000.346
 93  5  8  7 11  0.0030000  0  8 26  3 21 28  1 31 23 17             0.003195290
   7504873.953 5   5231052.167 5  25669494.089        3452.724
 -12842041.029 6  -2207078.050 5  23984848.563        3913.004
 -20287839.530 7 -13653155.814 9  21816377.387        -820.068
 -16147738.360 7 -12552184.066 8  22374416.962       -1344.956
 -32804222.027 6  -4366467.454 6  24059191.139       -3241.894
  -1956650.086 6  -1537070.581 5  25266601.774       -2847.025
 -15044974.502 8 -11751455.627 9  21741387.861        1358.029
   5222141.836 7  -6530117.282 8  22432969.289        2009.766
 93  5  8  7 11 30.0030000  0  8 26  3 21 28  1 31 23 17             0.003200800
   7608554.191 5   5311842.019 5  25689224.663        3459.171
 -12724482.419 6  -2115473.929 5  24007218.958        3923.986
 -20312313.652 7 -13672226.541 9  21811720.672        -811.535
 -16187810.922 7 -12583409.438 8  22366791.692       -1326.423
 -32901384.962 6  -4442178.813 6  24040701.199       -3235.617
  -2041936.242 5  -1603527.283 5  25250371.808       -2838.555
 -15004117.867 8 -11719619.281 9  21749162.688        1365.718
   5282563.915 7  -6483035.143 8  22444467.092        2018.500
 93  5  8  7 12  0.0030000  0  8 26  3 21 28  1 31 23 17             0.003206320
   7712434.425 5   5392787.624 5  25708992.247        3466.007
 -12606587.337 6  -2023607.675 5  24029653.478        3935.163
 -20336520.312 7 -13691088.843 9  21807114.500        -802.533
 -16227317.625 7 -12614193.883 8  22359273.588       -1307.663
 -32998358.523 6  -4517742.650 6  24022247.803       -3229.653
  -2126961.288 6  -1669780.525 5  25234193.081       -2829.952
 -14963021.343 8 -11687596.016 9  21756982.996        1373.712
   5343262.538 7  -6435737.529 8  22456017.889        2027.736
 93  5  8  7 12 30.0030000  0  8 26  3 21 28  1 31 23 17             0.003211830
   7816525.890 5   5473897.847 5  25728800.292        3473.504
 -12488361.924 6  -1931484.004 5  24052151.452        3946.243
 -20360448.177 7 -13709733.922 9  21802560.891        -792.585
 -16266257.147 7 -12644536.363 8  22351863.277       -1288.366
 -33095154.688 6  -4593168.243 6  24003828.424       -3223.413
  -2211726.028 6  -1735830.972 5  25218062.363       -2821.106
 -14921682.974 8 -11655384.299 9  21764849.508        1382.107
   5404228.296 7  -6388231.754 8  22467619.771        2036.459
 93  5  8  7 13  0.0030000  0  8 26  3 21 28  1 31 23 17             0.003217350
   7920840.346 5   5555181.867 5  25748650.107        3480.725
 -12369803.357 6  -1839100.752 5  24074712.813        3957.355
 -20384068.262 7 -13728139.170 9  21798065.832        -781.959
 -16304622.885 7 -12674431.741 8  22344562.510       -1269.384
 -33191758.957 6  -4668444.267 6  23985445.474       -3216.949
  -2296223.231 6  -1801672.863 5  25201982.497       -2812.030
 -14880097.708 8 -11622980.191 9  21772762.790        1390.167
   5465452.063 7  -6340524.918 8  22479270.195        2045.165
 93  5  8  7 13 30.0030000  0  8 26  3 21 28  1 31 23 17             0.003222870
   8025364.359 5   5636629.170 5  25768541.182        3487.606
 -12250915.493 6  -1746460.840 5  24097337.204        3968.418
 -20407356.470 7 -13746285.801 9  21793634.410        -770.398
 -16342422.766 7 -12703886.209 9  22337369.421       -1250.550
 -33288170.812 6  -4743570.430 6  23967098.640       -3210.313
  -2380451.046 5  -1867304.923 5  25185954.278       -2802.897
 -14838271.364 8 -11590388.239 9  21780722.480        1398.492
   5526927.327 7  -6292622.107 8  22490968.565        2053.439
 93  5  8  7 14  0.0030000  0  8 26  3 21 28  1 31 23 17             0.003228390
   8130091.013 5   5718234.358 5  25788469.711        3494.362
 -12131699.123 6  -1653565.020 5  24120022.848        3979.138
 -20430301.993 7 -13764165.433 9  21789267.964        -759.377
 -16379665.572 7 -12732906.582 9  22330282.846       -1232.186
 -33384386.840 6  -4818543.940 6  23948788.655       -3203.946
  -2464405.846 6  -1932724.192 5  25169978.044       -2793.902
 -14796191.531 8 -11557598.768 9  21788730.087        1406.941
   5588655.055 7  -6244522.574 8  22502714.944        2061.737
 93  5  8  7 14 30.0030000  0  8 26  3 21 28  1 31 23 17             0.003233900
   8235030.071 5   5800005.045 5  25808438.746        3501.414
 -12012157.510 6  -1560415.717 5  24142770.827        3989.976
 -20452915.810 7 -13781786.578 9  21784964.626        -748.367
 -16416350.602 7 -12761492.318 9  22323302.170       -1213.628
 -33480394.457 6  -4893355.075 6  23930519.166       -3196.666
  -2548085.439 6  -1997929.049 5  25154055.291       -2784.747
 -14753852.562 8 -11524607.364 9  21796787.048        1415.487
   5650638.533 7  -6196223.780 8  22514509.770        2070.460
 93  5  8  7 15  0.0030000  0  8 26  3 21 28  1 31 23 17             0.003239420
   8340179.441 5   5881939.629 5  25828448.364        3508.400
 -11892292.133 6  -1467014.156 5  24165580.225        4000.631
 -20475210.328 7 -13799158.919 9  21780721.931        -738.309
 -16452489.307 7 -12789652.344 9  22316424.961       -1195.858
 -33576190.349 6  -4968001.207 6  23912289.851       -3189.992
  -2631485.930 5  -2062916.394 5  25138183.571       -2775.536
 -14711262.803 8 -11491420.537 9  21804891.669        1423.623
   5712894.049 7  -6147712.995 8  22526356.168        2079.833
 93  5  8  7 15 30.0030000  0  8 26  3 21 28  1 31 23 17             0.003244940
   8445538.402 5   5964037.564 5  25848497.185        3515.457
 -11772111.567 6  -1373366.998 5  24188449.726        4011.195
 -20497209.878 7 -13816301.397 9  21776535.557        -728.451
 -16488096.175 7 -12817397.961 9  22309649.022       -1177.891
 -33671786.919 6  -5042492.032 6  23894098.240       -3183.256
  -2714611.621 5  -2127689.612 5  25122365.778       -2766.250
 -14668428.407 8 -11458043.085 9  21813042.574        1431.945
   5775429.833 7  -6098983.804 7  22538256.309        2089.305
 93  5  8  7 16  0.0030000  0  8 26  3 21 28  1 31 23 17             0.003250460
   8551105.147 5   6046297.354 5  25868585.643        3522.300
 -11651614.376 6  -1279473.113 5  24211379.115        4021.759
 -20518927.260 7 -13833224.009 9  21772403.168        -719.306
 -16523160.932 7 -12844721.149 9  22302976.201       -1159.638
 -33767177.303 6  -5116822.212 6  23875945.495       -3176.068
  -2797455.161 5  -2192242.989 5  25106601.099       -2756.643
 -14625345.771 8 -11424472.203 9  21821240.850        1440.169
   5838260.202 7  -6050025.097 7  22550212.952        2099.293
 93  5  8  7 16 30.0030000  0  8 26  3 21 28  1 31 23 17             0.003255990
   8656872.804 5   6128713.736 5  25888712.166        3528.761
 -11530795.380 6  -1185328.469 5  24234370.224        4032.451
 -20540357.547 7 -13849922.917 9  21768325.062        -709.325
 -16557674.128 7 -12871614.541 9  22296408.699       -1141.375
 -33862346.119 6  -5190979.719 6  23857835.765       -3168.660
  -2880006.612 5  -2256568.723 5  25090891.830       -2746.712
 -14582023.506 8 -11390714.594 9  21829484.444        1447.754
   5901386.891 7  -6000835.481 7  22562225.345        2109.169
 93  5  8  7 17  0.0030000  0  7  3 21 28  1 31 23 17                0.003261460
 -11409662.102 6  -1090938.920 5  24257420.851        4042.900
 -20561493.318 7 -13866392.346 9  21764303.156        -699.588
 -16591644.627 7 -12898085.054 9  22289944.263       -1123.023
 -33957300.413 6  -5264970.065 6  23839767.026       -3161.446
  -2962268.354 5  -2320668.779 5  25075237.956       -2737.175
 -14538485.225 8 -11356788.658 9  21837769.477        1454.978
   5964803.200 7  -5951420.188 7  22574293.273        2118.584
 93  5  8  7 17 30.0030000  0  7  3 21 28  1 31 23 17                0.003267000
 -11288217.854 6   -996307.033 5  24280532.358        4053.379
 -20582330.518 7 -13882629.111 9  21760337.684        -689.336
 -16625049.084 7 -12924114.503 9  22283587.495       -1103.702
 -34052023.170 6  -5338780.011 6  23821742.023       -3153.225
  -3044238.499 5  -2384541.562 5  25059639.311       -2727.340
 -14494727.012 8 -11322691.346 9  21846096.912        1462.430
   6028490.838 7  -5901793.468 7  22586412.968        2127.458
 93  5  8  7 18  0.0030000  0  7  3 21 28  1 31 23 17                0.003272530
 -11166464.209 6   -901434.093 5  24303700.918        4063.494
 -20602868.063 7 -13898632.376 9  21756429.596        -679.686
 -16657870.233 7 -12949689.429 9  22277341.906       -1084.216
 -34146502.235 6  -5412400.044 6  23803762.489       -3145.150
  -3125913.552 5  -2448184.470 5  25044098.035       -2717.540
 -14450746.717 8 -11288420.995 9  21854466.040        1469.697
   6092448.865 7  -5851956.069 7  22598583.753        2136.485
 93  5  8  7 18 30.0030000  0  7  3 21 28  1 31 23 17                0.003278070
 -11044409.853 6   -806326.866 5  24326926.690        4073.293
 -20623116.312 7 -13914410.213 9  21752576.625        -670.192
 -16690102.969 7 -12974805.851 9  22271208.393       -1064.466
 -34240741.822 6  -5485833.477 6  23785829.583       -3137.451
  -3207297.412 5  -2511600.346 5  25028611.067       -2707.885
 -14406556.761 8 -11253987.273 9  21862875.176        1476.430
   6156673.311 7  -5801911.055 7  22610804.807        2145.344
 93  5  8  7 19  0.0030000  0  7  3 21 28  1 31 23 17                0.003283600
 -10922057.003 6   -710986.988 5  24350210.544        4083.366
 -20643077.752 7 -13929964.570 9  21748778.456        -660.584
 -16721722.290 7 -12999444.279 9  22265191.609       -1043.310
 -34334742.175 6  -5559080.498 6  23767941.608       -3129.214
  -3288386.746 5  -2574786.777 5  25013179.629       -2697.817
 -14362145.113 8 -11219380.789 9  21871326.166        1484.496
   6221170.393 7  -5751653.594 7  22623077.812        2154.491
 93  5  8  7 19 30.0030000  0  7  3 21 28  1 31 23 17                0.003289130
 -10799405.584 6   -615414.463 5  24373549.885        4093.012
 -20662752.985 7 -13945295.912 9  21745034.343        -651.181
 -16752710.077 7 -13023590.606 9  22259295.000       -1022.822
 -34428501.107 6  -5632139.376 6  23750100.056       -3121.619
  -3369175.805 6  -2637739.277 5  24997805.949       -2688.211
 -14317498.776 8 -11184591.440 9  21879822.044        1491.777
   6285939.106 7  -5701184.478 7  22635403.315        2163.442
 93  5  8  7 20  0.0030000  0  7  3 21 28  1 31 23 17                0.003294660
 -10676468.045 6   -519618.998 5  24396944.897        4102.735
 -20682148.692 7 -13960409.432 9  21741343.590        -641.828
 -16783093.283 7 -13047265.831 9  22253513.263       -1002.682
 -34522043.683 6  -5705029.681 6  23732299.321       -3114.413
  -3449672.621 6  -2700464.015 5  24982488.242       -2678.221
 -14272636.041 8 -11149633.452 9  21888359.584        1499.119
   6350980.866 7  -5650502.590 7  22647780.097        2172.607
 93  5  8  7 20 30.0030000  0  7  3 21 28  1 31 23 17                0.003300180
 -10553234.694 6   -423593.043 5  24420396.470        4112.756
 -20701246.324 7 -13975290.705 9  21737709.346        -631.148
 -16812866.776 7 -13070465.948 9  22247847.408        -982.273
 -34615365.468 6  -5777747.944 6  23714541.135       -3106.902
  -3529862.392 6  -2762949.526 5  24967228.534       -2667.699
 -14227548.754 8 -11114500.498 9  21896939.443        1506.927
   6416290.833 7  -5599611.749 7  22660208.344        2181.566
 93  5  8  7 21  0.0030000  0  7  3 21 28  1 31 23 17                0.003305690
 -10429712.644 6   -327342.094 5  24443901.558        4121.767
 -20720028.522 7 -13989926.154 9  21734134.784        -621.072
 -16842050.534 7 -13093206.526 9  22242293.810        -963.446
 -34708470.014 6  -5850296.928 6  23696823.880       -3100.143
  -3609746.284 6  -2825196.673 5  24952027.348       -2657.861
 -14182229.878 8 -11079187.095 9  21905563.504        1514.137
   6481866.094 7  -5548514.131 7  22672687.095        2190.050
 93  5  8  7 21 30.0030000  0  7  3 21 28  1 31 23 17                0.003311190
 -10305907.394 6   -230870.519 5  24467460.968        4131.360
 -20738499.460 7 -14004319.081 9  21730619.765        -610.668
 -16870665.497 7 -13115503.907 9  22236848.621        -944.589
 -34801356.864 6  -5922676.289 6  23679147.491       -3092.628
  -3689325.351 6  -2887206.319 5  24936884.044       -2647.542
 -14136690.433 8 -11043701.814 9  21914229.385        1521.543
   6547711.804 7  -5497205.798 7  22685217.655        2199.350
 93  5  8  7 22  0.0030000  0  7  3 21 28  1 31 23 17                0.003316690
 -10181819.162 5   -134178.405 5  24491074.493        4140.735
 -20756667.149 7 -14018475.689 9  21727162.660        -600.750
 -16898713.778 7 -13137359.721 9  22231510.833        -925.429
 -34894015.225 6  -5994877.606 6  23661515.174       -3084.780
  -3768594.058 6  -2948974.102 5  24921799.925       -2637.187
 -14090920.965 8 -11008037.288 9  21922938.846        1529.458
   6613834.874 7  -5445681.342 7  22697800.511        2208.547
 93  5  8  7 22 30.0030000  0  7  3 21 28  1 31 23 17                0.003322180
 -10057447.737 5    -37265.671 5  24514740.916        4150.495
 -20774530.286 7 -14032395.004 9  21723762.921        -590.140
 -16926182.563 7 -13158763.958 9  22226283.954        -905.808
 -34986437.810 6  -6066895.187 6  23643927.909       -3076.713
  -3847546.979 6  -3010495.802 5  24906775.549       -2626.220
 -14044916.476 8 -10972189.640 9  21931692.684        1537.562
   6680238.976 7  -5393937.882 7  22710436.709        2218.487
 93  5  8  7 23  0.0030000  0  7  3 21 28  1 31 23 17                0.003327670
  -9932790.468 5     59869.827 5  24538461.890        4159.773
 -20792090.717 7 -14046078.454 9  21720421.254        -580.585
 -16953064.988 7 -13179711.298 9  22221168.686        -886.178
 -35078619.671 6  -6138725.222 6  23626386.164       -3068.826
  -3926176.695 6  -3071765.697 5  24891813.095       -2615.528
 -13998673.322 8 -10936156.013 9  21940492.194        1545.108
   6746939.689 7  -5341963.314 7  22723129.633        2228.067
 93  5  8  7 23 30.0030000  0  7  3 21 28  1 31 23 17                0.003333170
  -9807853.826 5    157223.044 5  24562236.318        4169.183
 -20809369.451 7 -14059542.388 9  21717133.302        -571.104
 -16979354.753 7 -13200196.829 9  22216165.959        -866.289
 -35170573.118 6  -6210377.227 6  23608889.157       -3061.328
  -4004484.415 6  -3132784.643 5  24876911.301       -2604.736
 -13952213.728 8 -10899953.735 9  21949332.932        1552.272
   6813914.660 7  -5289775.034 7  22735874.033        2236.958
 93  5  8  7 24  0.0030000  0  7  3 21 28  1 31 23 17                0.003338660
  -9682641.846 5    254790.709 5  24586063.302        4178.279
 -20826359.852 7 -14072781.657 9  21713900.409        -561.342
 -17005052.414 7 -13220220.985 9  22211275.833        -846.640
 -35262313.244 6  -6281863.039 6  23591430.988       -3054.411
  -4082468.522 6  -3193551.469 5  24862070.856       -2593.968
 -13905547.637 8 -10863590.547 9  21958213.545        1558.837
   6881144.976 7  -5237387.787 7  22748667.683        2245.320
 93  5  8  7 24 30.0030000  0  7  3 21 28  1 31 23 17                0.003344150
  -9557159.965 6    352568.843 5  24609940.524        4186.930
 -20843055.447 7 -14085791.205 9  21710723.259        -551.821
 -17030157.641 7 -13239783.501 9  22206498.642        -827.028
 -35353843.039 6  -6353184.946 6  23574013.307       -3047.507
  -4160130.058 6  -3254066.899 5  24847292.488       -2583.522
 -13858698.878 8 -10827085.027 9  21967128.564        1564.508
   6948627.188 7  -5184804.259 7  22761508.904        2253.379
 93  5  8  7 25  0.0030000  0  7  3 21 28  1 31 23 17                0.003349630
  -9431418.923 6    450548.848 5  24633868.532        4195.574
 -20859472.170 7 -14098583.446 9  21707599.364        -542.624
 -17054676.718 7 -13258889.269 9  22201832.770        -807.493
 -35445156.307 6  -6424338.110 6  23556637.666       -3039.939
  -4237474.089 6  -3314334.955 5  24832574.618       -2572.736
 -13811676.373 8 -10790444.101 9  21976076.848        1570.309
   7016347.197 7  -5132035.417 7  22774396.133        2261.375
 93  5  8  7 25 30.0030000  0  7  3 21 28  1 31 23 17                0.003355120
  -9305415.434 6    548733.336 5  24657846.680        4204.282
 -20875607.389 7 -14111156.345 9  21704528.888        -533.281
 -17078599.650 7 -13277530.527 9  22197280.153        -787.576
 -35536233.737 6  -6495307.541 6  23539305.788       -3031.793
  -4314492.031 6  -3374348.868 5  24817917.904       -2561.769
 -13764472.282 8 -10753661.705 9  21985059.669        1576.612
   7084316.655 7  -5079072.219 7  22787330.255        2270.023
 93  5  8  7 26  0.0030000  0  7  3 21 28  1 31 23 17                0.003360600
  -9179157.677 6    647115.986 5  24681872.991        4212.811
 -20891471.240 7 -14123517.781 9  21701509.708        -524.371
 -17101932.970 7 -13295712.320 9  22192839.885        -767.864
 -35627053.563 6  -6566076.239 6  23522023.413       -3022.623
  -4391186.852 5  -3434111.046 5  24803323.504       -2550.969
 -13717080.841 8 -10716733.307 9  21994077.709        1582.992
   7152550.664 7  -5025902.877 7  22800314.761        2279.193
 93  5  8  7 26 30.0030000  0  7  3 21 28  1 31 23 17                0.003366090
  -9052642.597 6    745699.146 5  24705948.647        4221.388
 -20907074.691 7 -14135676.303 9  21698540.723        -515.854
 -17124673.924 7 -13313432.559 9  22188512.513        -748.284
 -35717580.835 6  -6636616.949 6  23504796.094       -3012.507
  -4467550.837 6  -3493615.422 5  24788792.095       -2539.841
 -13669491.215 8 -10679650.501 9  22003133.596        1589.908
   7221065.480 7  -4972514.702 7  22813352.204        2288.359
 93  5  8  7 27  0.0030000  0  7  3 21 28  1 31 23 17                0.003371590
  -8925870.678 6    844482.381 5  24730073.227        4229.998
 -20922420.306 7 -14147633.914 9  21695620.714        -506.972
 -17146836.880 7 -13330702.366 9  22184294.792        -728.971
 -35807806.723 6  -6706922.843 6  23487627.422       -3002.451
  -4543578.535 6  -3552857.735 5  24774324.071       -2528.514
 -13621685.012 8 -10642398.880 9  22012230.890        1597.308
   7289852.060 7  -4918914.768 7  22826441.871        2297.566
 93  5  8  7 27 30.0030000  0  7  3 21 28  1 31 23 17                0.003377090
  -8798843.882 6    943464.292 5  24754247.650        4238.338
 -20937499.255 7 -14159383.747 9  21692751.462        -498.172
 -17168413.796 7 -13347515.573 9  22180188.545        -709.535
 -35897735.479 6  -6776997.180 6  23470514.029       -2992.780
  -4619266.847 6  -3611835.633 5  24759921.070       -2517.215
 -13573665.958 8 -10604981.439 9  22021368.863        1604.100
   7358909.909 7  -4865103.457 7  22839583.303        2306.402
 93  5  8  7 28  0.0030000  0  7  3 21 28  1 31 23 17                0.003382600
  -8671564.476 6   1042643.043 5  24778467.313        4246.786
 -20952311.065 7 -14170925.426 9  21689932.763        -489.052
 -17189409.139 7 -13363875.561 9  22176193.061        -690.087
 -35987379.115 6  -6846849.366 6  23453454.969       -2983.448
  -4694613.094 6  -3670546.964 5  24745583.431       -2505.709
 -13525441.764 8 -10567404.138 9  22030545.762        1610.899
   7428232.986 7  -4811085.484 7  22852774.572        2315.072
 93  5  8  7 28 30.0030000  0  7  3 21 28  1 31 23 17                0.003388110
  -8544034.307 5   1142017.198 5  24802735.685        4254.782
 -20966838.376 7 -14182245.382 9  21687168.476        -479.499
 -17209815.870 7 -13379776.907 9  22172309.880        -670.407
 -36076749.768 6  -6916488.835 6  23436448.632       -2974.909
  -4769613.759 6  -3728989.042 5  24731311.749       -2494.453
 -13477011.636 8 -10529666.376 9  22039761.441        1617.638
   7497808.173 7  -4756871.049 7  22866014.486        2323.083
 93  5  8  7 29  0.0030000  0  7  3 21 28  1 31 23 17                0.003393610
  -8416252.636 5   1241587.255 5  24827050.655        4263.358
 -20981056.991 7 -14193324.828 9  21684462.807        -468.653
 -17229605.095 7 -13395197.087 9  22168544.009        -648.974
 -36165857.358 6  -6985923.306 6  23419492.583       -2965.917
  -4844262.799 5  -3787157.081 5  24717105.967       -2482.522
 -13428363.202 8 -10491758.503 9  22049019.010        1625.118
   7567641.970 7  -4702455.122 7  22879303.726        2332.317
 93  5  8  7 29 30.0030000  0  7  3 21 28  1 31 23 17                0.003399090
  -8288226.111 5   1341348.140 5  24851410.097        4271.369
 -20994957.552 7 -14204156.434 9  21681817.521        -458.227
 -17248755.880 7 -13410119.783 9  22164899.919        -627.995
 -36254701.145 6  -7055152.207 6  23402586.014       -2957.149
  -4918561.757 6  -3845052.370 5  24702967.659       -2470.907
 -13379505.342 8 -10453687.458 9  22058316.276        1631.995
   7637753.570 7  -4647822.699 7  22892645.431        2341.771
 93  5  8  7 30  0.0030000  0  7  3 21 28  1 31 23 17                0.003404560
  -8159959.219 5   1441296.361 5  24875817.987        4279.513
 -21008539.154 7 -14214739.497 9  21679233.130        -447.164
 -17267277.913 7 -13424552.529 9  22161375.290        -606.741
 -36343269.176 6  -7124166.264 6  23385731.445       -2947.337
  -4992509.839 6  -3902674.226 5  24688895.134       -2458.997
 -13330430.457 8 -10415447.281 9  22067654.741        1639.509
   7708157.327 7  -4592962.614 7  22906043.091        2351.641
 93  5  8  7 30 30.0030000  0  7  3 21 28  1 31 23 17                0.003410030
  -8031453.755 5   1541430.445 5  24900273.040        4287.449
 -21021791.466 7 -14225065.974 9  21676711.316        -436.313
 -17285160.799 7 -13438487.246 9  22157972.225        -585.229
 -36431539.905 6  -7192948.628 6  23368935.292       -2937.442
  -5066103.457 6  -3960019.852 5  24674890.687       -2447.131
 -13281135.631 8 -10377035.739 9  22077035.577        1646.834
   7778848.412 7  -4537878.685 7  22919494.859        2361.201
 93  5  8  7 31  0.0030000  0  7  3 21 28  1 31 23 17                0.003415470
  -7902708.178 5   1641751.642 5  24924771.857        4295.365
 -21034720.997 7 -14235140.919 9  21674250.880        -425.849
 -17302399.855 7 -13451920.278 9  22154691.934        -564.136
 -36519509.983 6  -7261496.734 6  23352194.556       -2927.332
  -5139335.991 6  -4017084.145 5  24660955.288       -2435.130
 -13231628.615 8 -10338458.827 9  22086456.285        1653.457
   7849830.336 7  -4482568.077 7  22933002.066        2370.839
 93  5  8  7 31 30.0030000  0  7  3 21 28  1 31 23 17                0.003420930
  -7773725.738 5   1742257.423 5  24949317.814        4303.270
 -21047353.395 7 -14244984.350 9  21671847.152        -416.512
 -17319018.476 7 -13464869.857 9  22151529.686        -543.940
 -36607183.733 6  -7329813.919 6  23335511.303       -2917.791
  -5212205.658 6  -4073865.720 5  24647088.717       -2422.929
 -13181933.697 8 -10299735.515 9  22095913.148        1659.494
   7921095.281 7  -4427036.959 7  22946563.464        2379.962
 93  5  8  7 32  0.0030000  0  7  3 21 28  1 31 23 17                0.003426380
  -7644512.770 5   1842942.823 5  24973906.443        4311.097
 -21059713.942 7 -14254615.923 9  21669494.760        -407.318
 -17335036.196 7 -13477351.203 9  22148481.697        -523.679
 -36694580.845 6  -7397915.539 6  23318879.658       -2908.391
  -5284713.287 6  -4130365.101 5  24633290.788       -2410.618
 -13132058.655 8 -10260871.847 9  22105404.108        1665.681
   7992613.986 7  -4371308.099 7  22960173.001        2388.075
 93  5  8  7 32 30.0030000  0  7  3 21 28  1 31 23 17                0.003431830
  -7515067.105 5   1943809.557 5  24998536.724        4318.537
 -21071806.091 7 -14264038.378 9  21667193.554        -398.757
 -17350454.214 7 -13489365.256 9  22145548.036        -503.989
 -36781708.226 6  -7465806.970 6  23302299.113       -2899.952
  -5356851.094 6  -4186576.365 5  24619563.563       -2398.341
 -13082005.740 8 -10221869.583 9  22114928.964        1671.322
   8064366.012 7  -4315397.448 7  22973827.809        2395.697
 93  5  8  7 33  0.0030000  0  7  3 21 28  1 31 23 17                0.003437310
  -7385393.111 5   2044854.153 5  25023214.907        4326.077
 -21083645.115 7 -14273263.601 9  21664940.605        -390.512
 -17365279.514 7 -13500917.444 9  22142726.879        -484.417
 -36868571.746 6  -7533492.834 6  23285769.279       -2890.839
  -5428619.512 6  -4242499.828 5  24605906.807       -2386.076
 -13031776.888 8 -10182730.215 9  22124487.287        1677.309
   8136360.096 7  -4259298.165 7  22987527.428        2403.886
 93  5  8  7 33 30.0030000  0  7  3 21 28  1 31 23 17                0.003442780
  -7255494.627 5   2146073.738 5  25047934.327        4333.454
 -21095230.920 7 -14282291.497 9  21662735.931        -381.845
 -17379517.397 7 -13512011.902 9  22140017.326        -464.899
 -36955157.702 7  -7600962.385 6  23269293.000       -2881.418
  -5500015.772 6  -4298133.259 5  24592320.401       -2373.760
 -12981357.893 8 -10143442.692 9  22134081.294        1683.866
   8208597.742 7  -4203009.116 7  23001273.780        2411.841
 93  5  8  7 34  0.0030000  0  7  3 21 28  1 31 23 17                0.003448260
  -7125377.856 5   2247463.418 5  25072693.447        4340.736
 -21106547.400 7 -14291109.513 9  21660582.301        -372.481
 -17393168.236 7 -13522648.912 9  22137419.753        -445.034
 -37041444.708 7  -7668198.987 6  23252873.932       -2870.878
  -5571041.814 6  -4353478.202 5  24578804.590       -2361.228
 -12930743.765 8 -10104003.102 9  22143713.068        1690.439
   8281075.383 7  -4146533.027 7  23015065.793        2420.121
 93  5  8  7 34 30.0030000  0  7  3 21 28  1 31 23 17                0.003453740
  -6995044.809 5   2349021.640 5  25097494.102        4348.099
 -21117582.764 7 -14299708.502 9  21658482.014        -362.937
 -17406215.850 7 -13532815.897 9  22134937.081        -424.408
 -37127411.338 6  -7735185.974 7  23236514.597       -2859.910
  -5641693.735 6  -4408531.661 5  24565360.246       -2348.579
 -12879939.626 8 -10064415.473 9  22153380.864        1696.832
   8353811.869 7  -4089855.279 7  23028906.981        2429.269
 93  5  8  7 35  0.0030000  0  7  3 21 28  1 31 23 17                0.003459210
  -6864495.950 5   2450748.012 5  25122336.694        4354.985
 -21128336.108 7 -14308087.734 9  21656435.840        -353.795
 -17418642.068 7 -13542498.655 9  22132572.409        -403.940
 -37213047.374 7  -7801915.309 7  23220219.157       -2849.017
  -5711966.965 6  -4463289.997 5  24551987.652       -2336.177
 -12828942.072 8 -10024677.117 9  22163084.977        1703.153
   8426826.050 7  -4032961.108 7  23042801.441        2438.391
 93  5  8  7 35 30.0030000  0  7  3 21 28  1 31 23 17                0.003464690
  -6733734.904 5   2552639.653 5  25147219.720        4361.854
 -21138803.486 7 -14316244.132 9  21654443.820        -344.444
 -17430450.918 7 -13551700.364 9  22130325.236        -383.488
 -37298349.725 7  -7868384.656 7  23203986.224       -2838.217
  -5781859.994 6  -4517752.070 5  24538687.669       -2323.688
 -12777749.005 8  -9984786.431 9  22172826.502        1709.391
   8500117.412 7  -3975850.990 7  23056747.819        2447.644
 93  5  8  7 36  0.0030000  0  7  3 21 28  1 31 23 17                0.003470160
  -6602762.228 5   2654696.304 5  25172142.357        4369.029
 -21148994.307 7 -14324185.018 9  21652504.792        -335.374
 -17441631.484 7 -13560412.477 9  22128197.555        -362.183
 -37383328.358 7  -7934601.752 7  23187815.529       -2827.525
  -5851368.453 6  -4571914.503 5  24525460.510       -2310.678
 -12726370.175 8  -9944750.971 9  22182603.631        1715.586
   8573702.320 7  -3918512.100 7  23070750.320        2457.651
 93  5  8  7 36 30.0030000  0  7  3 21 28  1 31 23 17                0.003475640
  -6471583.392 5   2756913.547 5  25197106.531        4375.834
 -21158917.027 7 -14331917.000 9  21650616.540        -326.417
 -17452172.227 7 -13568626.063 9  22126191.447        -340.789
 -37468003.051 7  -8000581.993 7  23171702.586       -2817.649
  -5920492.767 6  -4625777.596 5  24512306.093       -2297.866
 -12674801.838 8  -9904567.855 9  22192417.051        1722.072
   8647578.845 6  -3860945.990 7  23084808.840        2467.294
 93  5  8  7 37  0.0030000  0  7  3 21 28  1 31 23 17                0.003481120
  -6340201.249 5   2859289.224 5  25222108.695        4382.722
 -21168572.071 7 -14339440.411 9  21648779.410        -317.184
 -17462080.808 7 -13576347.036 9  22124305.546        -319.752
 -37552376.669 7  -8066327.650 7  23155646.581       -2807.439
  -5989229.922 6  -4679339.001 5  24499226.011       -2284.613
 -12623038.278 8  -9864232.620 9  22202267.570        1728.668
   8721745.783 7  -3803153.579 7  23098922.359        2477.185
 93  5  8  7 37 30.0030000  0  7  3 21 28  1 31 23 17                0.003486600
  -6208617.836 5   2961821.717 5  25247146.246        4389.355
 -21177949.054 7 -14346747.157 9  21646995.017        -307.797
 -17471359.979 7 -13583577.562 9  22122539.776        -298.564
 -37636455.318 7  -8131843.492 7  23139646.248       -2797.707
  -6057577.035 6  -4732596.453 5  24486219.803       -2271.637
 -12571091.497 8  -9823754.618 9  22212152.817        1734.640
   8796201.651 6  -3745136.042 7  23113090.609        2486.756
 93  5  8  7 38  0.0030000  0  7  3 21 28  1 31 23 17                0.003492080
  -6076828.677 5   3064514.540 5  25272223.072        4396.234
 -21187034.475 7 -14353826.677 9  21645266.134        -297.775
 -17479990.999 7 -13590303.047 9  22120897.211        -276.901
 -37720235.248 7  -8197126.510 7  23123703.912       -2787.524
  -6125524.504 6  -4785542.503 5  24473289.548       -2258.194
 -12518964.546 8  -9783136.208 9  22222072.127        1740.627
   8870943.690 6  -3686895.501 6  23127313.379        2495.783
 93  5  8  7 38 30.0030000  0  7  3 21 28  1 31 23 17                0.003497560
  -5944840.316 5   3167362.592 5  25297342.692        4402.829
 -21195810.730 7 -14360665.327 9  21643595.671        -287.333
 -17487977.841 7 -13596526.560 9  22119377.722        -255.604
 -37803705.450 7  -8262168.218 7  23107819.990       -2777.057
  -6193074.015 6  -4838178.492 5  24460435.743       -2245.024
 -12466651.620 8  -9742372.898 9  22232026.777        1746.850
   8945945.799 6  -3628452.314 6  23141585.766        2504.467
 93  5  8  7 39  0.0030000  0  7  3 21 28  1 31 23 17                0.003503030
  -5812656.298 5   3270363.087 5  25322496.022        4409.144
 -21204276.076 7 -14367261.687 9  21641985.156        -277.183
 -17495330.116 7 -13602255.594 9  22117978.602        -234.487
 -37886853.938 7  -8326959.245 7  23091997.471       -2766.320
  -6260223.369 6  -4890502.636 5  24447657.661       -2231.787
 -12414153.025 8  -9701464.899 9  22242016.832        1752.867
   9021209.073 7  -3569805.613 6  23155907.596        2512.909
 93  5  8  7 39 30.0030000  0  7  3 21 28  1 31 23 17                0.003508500
  -5680279.578 5   3373513.713 5  25347688.920        4415.747
 -21212441.933 8 -14373624.691 9  21640431.232        -267.209
 -17502044.135 7 -13607487.315 9  22116700.948        -213.193
 -37969674.583 7  -8391494.777 7  23076237.132       -2754.897
  -6326970.781 6  -4942513.562 5  24434956.048       -2218.143
 -12361475.586 8  -9660417.553 9  22252040.803        1759.146
   9096721.566 6  -3510964.720 6  23170277.415        2521.323
 93  5  8  7 40  0.0030000  0  7  3 21 28  1 31 23 17                0.003513960
  -5547710.998 5   3476813.874 5  25372913.387        4421.882
 -21220309.593 7 -14379755.347 9  21638934.228        -257.478
 -17508124.648 7 -13612225.396 9  22115544.057        -192.328
 -38052147.141 7  -8455759.096 7  23060543.139       -2743.392
  -6393311.552 6  -4994207.641 5  24422331.926       -2204.799
 -12308606.397 8  -9619220.784 9  22262101.848        1765.492
   9172486.342 6  -3451927.239 6  23184695.525        2529.641
 93  5  8  7 40 30.0030000  0  7  3 21 28  1 31 23 17                0.003519410
  -5414955.861 5   3580259.423 5  25398177.160        4427.983
 -21227889.164 8 -14385661.497 9  21637491.965        -248.234
 -17513576.992 7 -13616473.957 9  22114506.548        -171.528
 -38134270.329 7  -8519751.172 7  23044915.628       -2731.888
  -6459246.263 6  -5045585.339 5  24409784.623       -2191.103
 -12255543.031 8  -9577872.696 9  22272198.678        1771.640
   9248517.427 6  -3392682.243 6  23199164.265        2538.909
 93  5  8  7 41  0.0030000  0  7  3 21 28  1 31 23 17                0.003524870
  -5282022.675 5   3683843.695 5  25423474.007        4434.031
 -21235208.084 7 -14391364.557 9  21636098.964        -239.699
 -17518414.731 7 -13620243.639 9  22113586.163        -150.803
 -38216057.224 7  -8583481.199 7  23029351.691       -2720.635
  -6524777.561 6  -5096648.658 5  24397314.247       -2177.541
 -12202310.716 8  -9536392.985 9  22282328.725        1777.093
   9324823.795 6  -3333222.746 6  23213684.601        2548.222
 93  5  8  7 41 30.0030000  0  7  3 21 28  1 31 23 17                0.003530330
  -5148912.903 5   3787565.521 5  25448803.822        4439.895
 -21242266.353 7 -14396864.506 9  21634755.753        -230.701
 -17522635.979 7 -13623532.913 9  22112782.750        -130.472
 -38297506.475 7  -8646948.115 7  23013852.309       -2709.325
  -6589902.036 6  -5147394.970 5  24384921.298       -2164.031
 -12148919.891 8  -9494789.734 9  22292488.472        1782.479
   9401413.717 6  -3273542.295 6  23228258.937        2557.927
 93  5  8  7 42  0.0030000  0  7  3 21 28  1 31 23 17                0.003535790
  -5015634.033 5   3891419.148 5  25474166.301        4445.200
 -21249056.315 8 -14402155.387 9  21633463.574        -221.949
 -17526244.361 7 -13626344.637 9  22112096.115        -109.972
 -38378632.933 7  -8710163.546 7  22998414.031       -2699.015
  -6654622.510 6  -5197826.512 5  24372605.580       -2150.623
 -12095368.330 8  -9453061.251 9  22302679.257        1787.682
   9478289.513 6  -3213639.101 6  23242887.794        2567.095
 93  5  8  7 42 30.0030000  0  7  3 21 28  1 31 23 17                0.003541250
  -4882184.656 5   3995405.681 5  25499560.873        4451.091
 -21255577.515 8 -14407236.829 9  21632222.833        -212.772
 -17529228.652 7 -13628670.083 9  22111528.277         -89.100
 -38459440.842 7  -8773130.744 7  22983037.212       -2688.054
  -6718932.179 6  -5247937.958 5  24360367.889       -2136.717
 -12041656.977 8  -9411208.259 9  22312900.642        1792.967
   9555440.474 6  -3153521.471 6  23257569.250        2576.097
 93  5  8  7 43  0.0030000  0  7  3 21 28  1 31 23 17                0.003546710
  -4748565.701 5   4099524.265 5  25524988.305        4456.790
 -21261822.299 7 -14412102.907 9  21631034.446        -203.485
 -17531590.587 7 -13630510.539 9  22111078.618         -68.178
 -38539919.284 7  -8835841.210 7  22967722.476       -2676.989
  -6782826.702 6  -5297725.841 5  24348208.994       -2122.826
 -11987785.435 8  -9369230.435 9  22323151.862        1798.533
   9632847.776 6  -3093204.093 6  23272299.094        2584.450
 93  5  8  7 43 30.0030000  0  7  3 21 28  1 31 23 17                0.003552170
  -4614775.420 5   4203776.395 5  25550446.354        4462.261
 -21267781.201 7 -14416746.188 9  21629900.181        -194.013
 -17533317.132 7 -13631855.908 9  22110749.827         -47.204
 -38620053.256 7  -8898283.239 7  22952473.754       -2665.450
  -6846299.195 6  -5347184.925 5  24336130.909       -2108.858
 -11933739.910 8  -9327117.025 9  22333436.943        1804.311
   9710511.768 6  -3032686.694 6  23287078.478        2592.805
 93  5  8  7 44  0.0030000  0  7  3 21 28  1 31 23 17                0.003557620
  -4480818.094 5   4308158.704 5  25575936.804        4467.910
 -21273464.578 8 -14421174.808 9  21628818.829        -185.086
 -17534410.161 7 -13632707.632 9  22110541.900         -25.910
 -38699835.087 7  -8960450.886 7  22937291.973       -2653.397
  -6909348.997 6  -5396314.628 5  24324132.579       -2094.621
 -11879521.031 8  -9284868.571 9  22343754.192        1810.113
   9788417.132 6  -2971981.229 6  23301903.769        2600.672
 93  5  8  7 44 30.0030000  0  7  3 21 28  1 31 23 17                0.003563080
  -4346701.798 5   4412664.892 5  25601461.027        4473.015
 -21278893.518 8 -14425405.141 9  21627785.986        -176.780
 -17534877.327 7 -13633071.667 9  22110453.322          -5.233
 -38779254.554 7  -9022336.155 8  22922179.594       -2641.136
  -6971979.217 6  -5445117.394 5  24312214.368       -2080.692
 -11825141.338 8  -9242494.782 9  22354102.157        1815.236
   9866554.818 6  -2911094.714 6  23316772.587        2608.581
 93  5  8  7 45  0.0030000  0  7  3 21 28  1 31 23 17                0.003568530
  -4212425.174 5   4517295.998 5  25627012.392        4478.575
 -21284067.688 7 -14429436.957 9  21626800.929        -168.125
 -17534710.558 7 -13632941.708 9  22110485.298          16.524
 -38858295.668 7  -9083926.611 8  22907138.651       -2628.300
  -7034183.230 6  -5493588.047 5  24300377.747       -2066.078
 -11770594.798 8  -9199990.976 9  22364481.964        1821.158
   9944949.712 6  -2850007.779 6  23331690.234        2617.848
 93  5  8  7 45 30.0030000  0  7  3 21 28  1 31 23 17                0.003573980
  -4077987.084 5   4622052.912 5  25652591.934        4483.782
 -21288984.981 8 -14433268.616 9  21625865.385        -159.521
 -17533895.148 7 -13632306.332 9  22110640.312          37.854
 -38936959.151 7  -9145222.800 8  22892168.563       -2615.995
  -7095954.922 6  -5541721.833 5  24288622.884       -2051.895
 -11715883.265 8  -9157358.626 9  22374892.973        1826.348
  10023613.991 6  -2788710.972 6  23346658.858        2626.406
 93  5  8  7 46  0.0030000  0  7  3 21 28  1 31 23 17                0.003579430
  -3943395.729 5   4726929.221 5  25678202.271        4488.675
 -21293641.944 8 -14436897.424 9  21624979.079        -150.948
 -17532439.788 7 -13631172.308 9  22110917.312          59.084
 -39015263.477 7  -9206239.151 8  22877268.305       -2604.495
  -7157297.360 6  -5589521.124 5  24276950.048       -2037.748
 -11661012.049 8  -9114601.838 9  22385334.556        1831.640
  10102529.797 6  -2727218.120 6  23361675.952        2634.554
 93  5  8  7 46 30.0030000  0  7  3 21 28  1 31 23 17                0.003584880
  -3808657.626 5   4831919.979 5  25703844.399        4493.777
 -21298024.629 8 -14440312.501 9  21624145.086        -140.991
 -17530349.356 7 -13629543.393 9  22111315.194          80.285
 -39093220.815 7  -9266985.089 8  22862433.466       -2592.621
  -7218211.802 6  -5636986.897 5  24265358.052       -2023.147
 -11605977.463 8  -9071717.749 9  22395807.594        1837.334
  10181700.124 6  -2665526.950 6  23376742.267        2643.458
 93  5  8  7 47  0.0030000  0  7  3 21 28  1 31 23 17                0.003590320
  -3673774.257 5   4937023.798 5  25729514.553        4498.274
 -21302108.234 8 -14443494.518 9  21623368.143        -131.310
 -17527630.185 7 -13627424.563 9  22111832.539         100.828
 -39170832.909 7  -9327462.009 8  22847664.300       -2581.625
  -7278694.641 6  -5684116.398 5  24253848.826       -2008.967
 -11550778.962 8  -9028705.925 9  22406311.364        1842.434
  10261126.120 6  -2603636.570 6  23391856.773        2651.620
 93  5  8  7 47 30.0030000  0  7  3 21 28  1 31 23 17                0.003595750
  -3538749.411 5   5042237.898 5  25755207.293        4503.181
 -21305895.043 8 -14446445.271 9  21622647.942        -121.143
 -17524298.433 7 -13624828.415 9  22112466.606         121.299
 -39248110.186 7  -9387678.059 8  22832958.892       -2570.102
  -7338744.536 6  -5730908.490 5  24242421.650       -1994.226
 -11495425.499 8  -8985573.354 9  22416845.040        1847.938
  10340802.855 6  -2541550.809 6  23407018.862        2660.260
 93  5  8  7 48  0.0030000  0  7  3 21 28  1 31 23 17                0.003601180
  -3403576.723 5   5147567.241 5  25780929.579        4508.208
 -21309385.312 8 -14449164.978 9  21621983.474        -111.422
 -17520358.349 7 -13621758.233 9  22113216.327         141.610
 -39325032.644 7  -9447617.624 8  22818321.155       -2557.806
  -7398350.147 6  -5777354.413 5  24231079.238       -1979.270
 -11439899.668 8  -8942306.491 9  22427410.987        1853.955
  10420747.069 6  -2479256.636 6  23422231.476        2669.547
 93  5  8  7 48 30.0030000  0  7  3 21 28  1 31 23 17                0.003606620
  -3268258.794 5   5253009.707 5  25806680.413        4512.692
 -21312585.964 8 -14451658.969 9  21621374.404        -102.116
 -17515810.196 7 -13618214.211 9  22114081.662         161.765
 -39401582.983 7  -9507267.208 8  22803753.283       -2545.570
  -7457509.453 6  -5823452.584 5  24219821.395       -1964.559
 -11384199.480 8  -8898903.732 9  22438009.888        1859.322
  10500971.523 6  -2416744.061 6  23437497.151        2678.749
 93  5  8  7 49  0.0030000  0  7  3 21 28  1 31 23 17                0.003612070
  -3132801.558 5   5358560.768 5  25832458.465        4517.406
 -21315522.546 8 -14453947.215 9  21620815.728         -93.870
 -17510640.450 7 -13614185.855 9  22115065.521         182.921
 -39477765.068 7  -9566629.833 8  22789256.245       -2533.361
  -7516223.229 6  -5869203.563 5  24208648.053       -1949.733
 -11328341.633 8  -8855378.147 9  22448639.861        1864.592
  10581475.580 6  -2354013.642 6  23452817.054        2688.157
 93  5  8  7 49 30.0030000  0  6 21 28  1 31 23 17                   0.003617540
 -21318214.168 8 -14456044.570 9  21620303.386         -85.521
 -17504832.737 7 -13609660.359 9  22116170.943         204.385
 -39553584.240 7  -9625709.692 8  22774827.923       -2521.135
  -7574488.547 6  -5914605.104 5  24197561.064       -1934.681
 -11272316.906 8  -8811722.510 9  22459301.219        1870.450
  10662254.806 6  -2291068.772 6  23468188.485        2696.992
 93  5  8  7 50  0.0030000  0  6 21 28  1 31 23 17                   0.003622990
 -21320647.659 8 -14457940.788 9  21619840.206         -76.693
 -17498369.027 7 -13604623.719 9  22117400.854         226.512
 -39629027.815 7  -9684496.864 8  22760471.832       -2508.685
  -7632301.521 6  -5959654.145 5  24186559.251       -1919.603
 -11216114.649 8  -8767928.544 9  22469996.018        1876.167
  10743293.816 6  -2227921.499 6  23483609.597        2705.509
 93  5  8  7 50 30.0030000  0  6 21 28  1 31 23 17                   0.003628430
 -21322810.847 7 -14459626.387 9  21619428.480         -67.633
 -17491243.765 7 -13599071.571 9  22118756.545         248.388
 -39704106.387 7  -9742999.640 8  22746185.335       -2496.571
  -7689665.839 6  -6004353.633 5  24175643.408       -1904.664
 -11159752.031 8  -8724009.624 9  22480721.580        1881.318
  10824585.950 6  -2164576.987 6  23499079.179        2714.029
 93  5  8  7 51  0.0030000  0  6 21 28  1 31 23 17                   0.003633870
 -21324705.101 8 -14461102.441 9  21619067.691         -58.431
 -17483462.890 7 -13593008.557 9  22120237.217         270.205
 -39778813.817 7  -9801213.212 8  22731968.325       -2483.745
  -7746579.025 6  -6048701.552 5  24164813.100       -1889.475
 -11103232.081 8  -8679968.118 9  22491476.725        1886.907
  10906136.421 6  -2101031.178 6  23514597.412        2722.723
 93  5  8  7 51 30.0030000  0  6 21 28  1 31 23 17                   0.003639290
 -21326313.815 8 -14462355.963 9  21618761.361         -48.785
 -17475040.046 7 -13586445.318 9  22121840.030         291.368
 -39853126.950 7  -9859119.510 8  22717827.213       -2470.431
  -7803033.723 6  -6092692.219 6  24154070.202       -1874.197
 -11046546.233 7  -8635797.323 9  22502263.659        1891.982
  10987942.286 6  -2037286.348 6  23530164.787        2731.083
 93  5  8  7 52  0.0030000  0  6 21 28  1 31 23 17                   0.003644710
 -21327642.764 8 -14463391.503 9  21618509.037         -39.947
 -17465988.584 7 -13579392.235 9  22123562.267         311.982
 -39927042.411 7  -9916715.954 8  22703762.042       -2457.343
  -7859032.603 6  -6136327.702 6  24143414.205       -1859.104
 -10989721.528 8  -8591518.326 9  22513077.351        1896.244
  11070005.291 6  -1973341.165 6  23545780.805        2739.778
 93  5  8  7 52 30.0030000  0  6 21 28  1 31 23 17                   0.003650150
 -21328709.919 8 -14464223.045 9  21618305.680         -31.332
 -17456319.600 7 -13571857.969 9  22125402.391         332.524
 -40000564.046 7  -9974005.498 8  22689771.398       -2444.052
  -7914574.468 6  -6179607.048 6  24132844.579       -1843.645
 -10932764.866 8  -8547136.500 9  22523915.590        1900.880
  11152334.770 6  -1909188.300 6  23561447.239        2748.663
 93  5  8  7 53  0.0030000  0  6 21 28  1 31 23 17                   0.003655590
 -21329523.919 8 -14464857.318 9  21618150.974         -22.929
 -17446026.269 7 -13563837.195 9  22127361.366         353.679
 -40073690.098 7 -10030986.822 8  22675855.613       -2431.123
  -7969651.519 6  -6222524.225 6  24122363.968       -1828.173
 -10875667.314 8  -8502644.915 9  22534781.117        1905.479
  11234917.970 6  -1844837.767 6  23577162.682        2756.743
